[[{"header":{"parameterUnit":"m.s-1","parameterCategory":1,"la1":31.0,"la2":29.5877,"lo1":-88.7671,"lo2":-86.6584,"dy":0.0162,"dx":0.0185,"nx":115,"ny":88,"refTime":"2026-05-08T12:00:00:Z","depth":0,"parameterNumber":2,"parameterNumberName":"U-component_of_WINDS"},"data":[0.0,0.0,0.0,0.0,0.0,0.0,0.0,0.0,0.0,0.0,0.0,0.0,0.0,0.0,0.0,0.0,0.0,0.0,0.0,0.0,0.0,0.0,0.0,0.0,0.0,0.0,0.0,0.0,0.0,0.0,0.0,0.0,0.0,0.0,0.0,0.0,0.0,0.0,0.0,0.0,0.0,0.0,0.0,0.0,0.0,0.0,0.0,0.0,0.0,0.0,0.0,0.0,0.0,0.0,0.0,0.0,0.0,0.0,0.0,0.0,0.0,0.0,0.0,0.0,0.0,0.0,0.0,0.0,0.0,0.0,0.0,0.0,0.0,0.0,0.0,0.0,0.0,0.0,0.0,0.0,0.0,0.0,0.0,0.0,0.0,0.0,0.0,0.0,0.0,0.0,0.0,0.0,0.0,0.0,0.0,0.0,0.0,0.0,0.0,0.0,0.0,0.0,0.0,0.0,0.0,0.0,0.0,0.0,0.0,0.0,0.0,0.0,0.0,0.0,0.0,0.0,0.0,0.0,0.0,0.0,0.0,0.0,0.0,0.0,0.0,0.0,0.0,0.0,0.0,0.0,0.0,0.0,0.0,0.0,0.0,0.0,0.0,0.0,0.0,0.0,0.0,0.0,0.0,0.0,0.0,0.0,0.0,0.0,0.0,0.0,0.0,0.0,0.0,0.0,0.0,0.0,0.0,0.0,0.0,0.0,0.0,0.0,0.0,0.0,0.0,0.0,0.0,0.0,0.0,0.0,0.0,0.0,0.0,0.0,0.0,0.0,0.0,0.0,0.0,0.0,0.0,0.0,0.0,0.0,0.0,0.0,0.0,0.0,0.0,0.0,0.0,0.0,0.0,0.0,0.0,0.0,0.0,0.0,0.0,0.0,0.0,0.0,0.0,0.0,0.0,0.0,0.0,0.0,0.0,0.0,0.0,0.0,0.0,0.0,0.0,0.0,0.0,0.0,0.0,0.0,0.0,0.0,0.0,0.0,0.0,0.0,0.0,0.0,0.0,0.0,0.0,0.0,0.0,0.0,0.0,0.0,0.0,0.0,0.0,0.0,0.0,0.0,0.0,0.0,0.0,0.0,0.0,0.0,0.0,0.0,0.0,0.0,0.0,0.0,0.0,0.0,0.0,0.0,0.0,0.0,0.0,0.0,0.0,0.0,0.0,0.0,0.0,0.0,0.0,0.0,0.0,0.0,0.0,0.0,0.0,0.0,0.0,0.0,0.0,0.0,0.0,0.0,0.0,0.0,0.0,0.0,0.0,0.0,0.0,0.0,0.0,0.0,0.0,0.0,0.0,0.0,0.0,0.0,0.0,0.0,0.0,0.0,0.0,0.0,0.0,0.0,0.0,0.0,0.0,0.0,0.0,0.0,0.0,0.0,0.0,0.0,0.0,0.0,0.0,0.0,0.0,0.0,0.0,0.0,0.0,0.0,0.0,0.0,0.0,0.0,0.0,0.0,0.0,0.0,0.0,0.0,0.0,0.0,0.0,0.0,0.0,0.0,0.0,0.0,0.0,0.0,0.0,0.0,0.0,0.0,0.0,0.0,0.0,0.0,0.0,0.0,0.0,0.0,0.0,0.0,0.0,0.0,0.0,0.0,0.0,0.0,0.0,0.0,0.0,0.0,0.0,0.0,0.0,0.0,0.0,0.0,0.0,0.0,0.0,0.0,0.0,0.0,0.0,0.0,0.0,0.0,0.0,0.0,0.0,0.0,0.0,0.0,0.0,0.0,0.0,0.0,0.0,0.0,0.0,0.0,0.0,0.0,0.0,0.0,0.0,0.0,0.0,0.0,0.0,0.0,0.0,0.0,0.0,0.0,0.0,0.0,0.0,0.0,0.0,0.0,0.0,0.0,0.0,0.0,0.0,0.0,0.0,0.0,0.0,0.0,0.0,0.0,0.0,0.0,0.0,0.0,0.0,0.0,0.0,0.0,0.0,0.0,0.0,0.0,0.0,0.0,0.0,0.0,0.0,0.0,0.0,0.0,0.0,0.0,0.0,0.0,0.0,0.0,0.0,0.0,0.0,0.0,0.0,0.0,0.0,0.0,0.0,0.0,0.0,0.0,0.0,0.0,0.0,0.0,0.0,0.0,0.0,0.0,0.0,0.0,0.0,0.0,0.0,0.0,0.0,0.0,0.0,0.0,0.0,0.0,0.0,0.0,0.0,0.0,0.0,0.0,0.0,0.0,0.0,0.0,0.0,0.0,0.0,0.0,0.0,0.0,0.0,0.0,0.0,0.0,0.0,0.0,0.0,0.0,0.0,0.0,0.0,0.0,0.0,0.0,0.0,0.0,0.0,0.0,0.0,0.0,0.0,0.0,0.0,0.0,0.0,0.0,0.0,0.0,0.0,0.0,0.0,0.0,0.0,0.0,0.0,0.0,0.0,0.0,0.0,0.0,0.0,0.0,0.0,0.0,0.0,0.0,0.0,0.0,0.0,0.0,0.0,0.0,0.0,0.0,0.0,0.0,0.0,0.0,0.0,0.0,0.0,0.0,0.0,0.0,0.0,0.0,0.0,0.0,0.0,0.0,0.0,0.0,0.0,0.0,0.0,0.0,0.0,0.0,0.0,0.0,0.0,0.0,0.0,0.0,0.0,0.0,0.0,0.0,0.0,0.0,0.0,0.0,0.0,0.0,0.0,0.0,0.0,0.0,0.0,0.0,0.0,0.0,0.0,0.0,0.0,0.0,0.0,0.0,0.0,0.0,0.0,0.0,0.0,0.0,0.0,0.0,0.0,0.0,0.0,0.0,0.0,0.0,0.0,0.0,0.0,0.0,0.0,0.0,0.0,0.0,0.0,0.0,0.0,0.0,0.0,0.0,0.0,0.0,0.0,0.0,0.0,0.0,0.0,0.0,0.0,0.0,0.0,0.0,0.0,0.0,0.0,0.0,0.0,0.0,0.0,0.0,0.0,0.0,0.0,0.0,0.0,0.0,0.0,0.0,0.0,0.0,0.0,0.0,0.0,0.0,0.0,0.0,0.0,0.0,0.0,0.0,0.0,0.0,0.0,0.0,0.0,0.0,0.0,0.0,0.0,0.0,0.0,0.0,0.0,0.0,0.0,0.0,0.0,0.0,0.0,0.0,0.0,0.0,0.0,0.0,0.0,0.0,0.0,0.0,0.0,0.0,0.0,0.0,0.0,0.0,0.0,0.0,0.0,0.0,0.0,0.0,0.0,0.0,0.0,0.0,0.0,0.0,0.0,0.0,0.0,0.0,0.0,0.0,0.0,0.0,0.0,0.0,0.0,0.0,0.0,0.0,0.0,0.0,0.0,0.0,0.0,0.0,0.0,0.0,0.0,0.0,0.0,0.0,0.0,0.0,0.0,0.0,0.0,0.0,0.0,0.0,0.0,0.0,0.0,0.0,0.0,0.0,0.0,0.0,0.0,0.0,0.0,0.0,0.0,0.0,0.0,0.0,0.0,0.0,0.0,0.0,0.0,0.0,0.0,0.0,0.0,0.0,0.0,0.0,0.0,0.0,0.0,0.0,0.0,0.0,0.0,0.0,0.0,0.0,0.0,0.0,0.0,0.0,0.0,0.0,0.0,0.0,0.0,0.0,0.0,0.0,0.0,0.0,0.0,0.0,0.0,0.0,0.0,0.0,0.0,0.0,0.0,0.0,0.0,0.0,0.0,0.0,0.0,0.0,0.0,0.0,0.0,0.0,0.0,0.0,0.0,0.0,0.0,0.0,0.0,0.0,0.0,0.0,0.0,0.0,0.0,0.0,0.0,0.0,0.0,0.0,0.0,0.0,0.0,0.0,0.0,0.0,0.0,0.0,0.0,0.0,0.0,0.0,0.0,0.0,0.0,0.0,0.0,0.0,0.0,0.0,0.0,0.0,0.0,0.0,0.0,0.0,0.0,0.0,0.0,0.0,0.0,0.0,0.0,0.0,0.0,0.0,0.0,0.0,0.0,0.0,0.0,0.0,0.0,0.0,0.0,0.0,0.0,0.0,0.0,0.0,0.0,0.0,0.0,0.0,0.0,0.0,0.0,0.0,0.0,0.0,0.0,0.0,0.0,0.0,0.0,0.0,0.0,0.0,0.0,0.0,0.0,0.0,0.0,0.0,0.0,0.0,0.0,0.0,0.0,0.0,0.0,0.0,0.0,0.0,0.0,0.0,0.0,0.0,0.0,0.0,0.0,0.0,0.0,0.0,0.0,0.0,0.0,0.0,0.0,0.0,0.0,0.0,0.0,0.0,0.0,0.0,0.0,0.0,0.0,0.0,0.0,0.0,0.0,0.0,-0.8972,0.0,0.0,0.0,0.0,0.0,0.0,0.0,0.0,0.0,0.0,0.0,0.0,0.0,0.0,0.0,0.0,0.0,0.0,0.0,0.0,0.0,0.0,0.0,0.0,0.0,0.0,0.0,0.0,0.0,0.0,0.0,0.0,0.0,0.0,0.0,0.0,0.0,0.0,0.0,0.0,0.0,0.0,0.0,0.0,0.0,0.0,0.0,0.0,0.0,0.0,0.0,0.0,0.0,0.0,0.0,0.0,0.0,0.0,0.0,0.0,0.0,0.0,0.0,0.0,0.0,0.0,0.0,0.0,0.0,0.0,0.0,0.0,0.0,0.0,0.0,0.0,0.0,0.0,0.0,0.0,0.0,0.0,0.0,0.0,0.0,0.0,0.0,0.0,0.0,0.0,0.0,0.0,0.0,0.0,0.0,0.0,0.0,0.0,0.0,0.0,0.0,0.0,0.0,0.0,0.0,0.0,0.0,0.0,0.0,0.0,-1.0753,-1.0322,-1.0764,-1.0279,-0.8742,0.0,0.0,0.0,0.0,0.0,0.0,0.0,0.0,0.0,0.0,0.0,0.0,0.0,0.0,0.0,0.0,0.0,0.0,0.0,0.0,0.0,0.0,0.0,0.0,0.0,0.0,0.0,0.0,0.0,0.0,0.0,0.0,0.0,0.0,0.0,0.0,0.0,0.0,0.0,0.0,0.0,0.0,0.0,0.0,0.0,0.0,0.0,0.0,0.0,0.0,0.0,0.0,0.0,0.0,0.0,0.0,0.0,0.0,0.0,0.0,0.0,0.0,0.0,0.0,0.0,0.0,0.0,0.0,0.0,0.0,0.0,0.0,0.0,0.0,0.0,0.0,0.0,0.0,0.0,0.0,0.0,0.0,0.0,0.0,0.0,0.0,0.0,0.0,0.0,0.0,0.0,0.0,0.0,0.0,0.0,0.0,0.0,0.0,0.0,0.0,0.0,0.0,0.0,0.0,0.0,0.0,0.0,0.0,0.0,0.0,0.0,0.0,-1.0764,-1.0242,-0.8611,0.0,0.0,0.0,0.0,0.0,0.0,0.0,0.0,0.0,0.0,0.0,0.0,0.0,0.0,0.0,0.0,0.0,0.0,0.0,0.0,0.0,0.0,0.0,0.0,0.0,0.0,0.0,0.0,0.0,0.0,0.0,0.0,0.0,0.0,0.0,0.0,0.0,0.0,0.0,0.0,0.0,0.0,0.0,0.0,0.0,0.0,0.0,0.0,0.0,0.0,0.0,0.0,0.0,0.0,0.0,0.0,0.0,0.0,0.0,0.0,0.0,0.0,0.0,0.0,0.0,0.0,0.0,0.0,0.0,0.0,0.0,0.0,0.0,0.0,0.0,0.0,0.0,0.0,0.0,0.0,0.0,0.0,0.0,0.0,0.0,0.0,0.0,0.0,0.0,0.0,0.0,0.0,0.0,0.0,0.0,0.0,0.0,0.0,0.0,0.0,0.0,0.0,0.0,0.0,0.0,0.0,0.0,0.0,0.0,0.0,-1.0772,-1.0341,-1.0745,0.0,-0.9009,0.0,0.0,0.0,0.0,0.0,0.0,0.0,0.0,0.0,0.0,0.0,0.0,0.0,0.0,0.0,0.0,0.0,0.0,0.0,0.0,0.0,0.0,0.0,0.0,0.0,0.0,0.0,0.0,0.0,0.0,0.0,0.0,0.0,0.0,0.0,0.0,0.0,0.0,0.0,0.0,0.0,0.0,0.0,0.0,0.0,0.0,0.0,0.0,0.0,0.0,0.0,0.0,0.0,0.0,0.0,0.0,0.0,0.0,0.0,0.0,0.0,0.0,0.0,0.0,0.0,0.0,0.0,0.0,0.0,0.0,0.0,0.0,0.0,0.0,0.0,0.0,0.0,0.0,0.0,0.0,0.0,0.0,0.0,0.0,0.0,0.0,0.0,0.0,0.0,0.0,0.0,0.0,0.0,0.0,0.0,0.0,0.0,0.0,0.0,0.0,0.0,0.0,0.0,0.0,0.0,0.0,0.0,0.0,0.0,0.0,-0.9613,-0.9814,-0.9208,-0.8802,0.0,0.0,0.0,0.0,0.0,0.0,0.0,0.0,0.0,0.0,0.0,0.0,0.0,0.0,0.0,0.0,0.0,0.0,0.0,0.0,0.0,0.0,0.0,0.0,0.0,0.0,0.0,0.0,0.0,0.0,0.0,0.0,0.0,0.0,0.0,0.0,0.0,0.0,0.0,0.0,0.0,0.0,0.0,0.0,0.0,0.0,0.0,0.0,0.0,0.0,0.0,0.0,0.0,0.0,0.0,0.0,0.0,0.0,0.0,0.0,0.0,0.0,0.0,0.0,0.0,0.0,0.0,0.0,0.0,0.0,0.0,0.0,0.0,0.0,0.0,0.0,0.0,0.0,0.0,0.0,0.0,0.0,0.0,0.0,0.0,0.0,0.0,0.0,0.0,0.0,0.0,0.0,0.0,0.0,0.0,0.0,0.0,0.0,0.0,0.0,0.0,0.0,0.0,0.0,0.0,0.0,0.0,0.0,0.0,0.0,-0.8087,-0.8604,-0.9193,-0.8308,-0.79,-0.8158,0.0,0.0,0.0,0.0,0.0,0.0,0.0,0.0,0.0,0.0,0.0,0.0,0.0,0.0,0.0,0.0,0.0,0.0,0.0,0.0,0.0,0.0,0.0,0.0,0.0,0.0,0.0,0.0,0.0,0.0,0.0,0.0,0.0,0.0,0.0,0.0,0.0,0.0,0.0,0.0,0.0,0.0,0.0,0.0,0.0,0.0,0.0,0.0,0.0,0.0,0.0,0.0,0.0,0.0,0.0,0.0,0.0,0.0,0.0,0.0,0.0,0.0,0.0,0.0,0.0,0.0,0.0,0.0,0.0,0.0,0.0,0.0,0.0,0.0,0.0,0.0,0.0,0.0,0.0,0.0,0.0,0.0,0.0,0.0,0.0,0.0,0.0,0.0,0.0,0.0,0.0,0.0,0.0,0.0,0.0,0.0,0.0,0.0,0.0,0.0,0.0,0.0,0.0,0.0,0.0,0.0,0.0,0.0,-0.7036,-0.7569,-0.811,-0.8687,-0.8659,-0.832,0.0,0.0,0.0,0.0,0.0,0.0,0.0,0.0,0.0,0.0,0.0,0.0,0.0,0.0,0.0,0.0,0.0,0.0,0.0,0.0,0.0,0.0,0.0,0.0,0.0,0.0,0.0,0.0,0.0,0.0,0.0,0.0,0.0,0.0,0.0,0.0,0.0,0.0,0.0,0.0,0.0,0.0,0.0,0.0,0.0,0.0,0.0,0.0,0.0,0.0,0.0,0.0,0.0,0.0,0.0,0.0,0.0,0.0,0.0,0.0,0.0,0.0,0.0,0.0,0.0,0.0,0.0,0.0,0.0,0.0,0.0,0.0,0.0,0.0,0.0,0.0,0.0,0.0,0.0,0.0,0.0,0.0,0.0,0.0,0.0,0.0,0.0,0.0,0.0,0.0,0.0,0.0,0.0,0.0,0.0,0.0,0.0,0.0,0.0,0.0,0.0,0.0,0.0,0.0,0.0,0.0,0.0,0.0,0.0,-0.7014,-0.7895,-0.7934,-0.7113,-0.7741,-0.7847,0.0,0.0,0.0,0.0,0.0,0.0,0.0,0.0,0.0,0.0,0.0,0.0,0.0,0.0,0.0,0.0,0.0,0.0,0.0,0.0,0.0,0.0,0.0,0.0,0.0,0.0,0.0,0.0,0.0,0.0,0.0,0.0,0.0,0.0,0.0,0.0,0.0,0.0,0.0,0.0,0.0,0.0,0.0,0.0,0.0,0.0,0.0,0.0,0.0,0.0,0.0,0.0,0.0,0.0,0.0,0.0,0.0,0.0,0.0,0.0,0.0,0.0,0.0,0.0,0.0,0.0,0.0,0.0,0.0,0.0,0.0,0.0,0.0,0.0,0.0,0.0,0.0,0.0,0.0,0.0,0.0,0.0,0.0,0.0,0.0,0.0,0.0,0.0,0.0,0.0,0.0,0.0,0.0,0.0,0.0,0.0,0.0,0.0,0.0,0.0,0.0,0.0,0.0,0.0,0.0,0.0,0.0,0.0,0.0,-0.6725,0.0,-0.7578,-0.6491,-0.7335,-0.7499,0.0,0.0,0.0,0.0,0.0,0.0,0.0,0.0,0.0,0.0,0.0,0.0,0.0,0.0,0.0,0.0,0.0,0.0,0.0,0.0,0.0,0.0,0.0,0.0,0.0,0.0,0.0,0.0,0.0,0.0,0.0,0.0,0.0,0.0,0.0,0.0,0.0,0.0,0.0,0.0,0.0,0.0,0.0,0.0,0.0,0.0,0.0,0.0,0.0,0.0,0.0,0.0,0.0,0.0,0.0,0.0,0.0,0.0,0.0,0.0,0.0,0.0,0.0,0.0,0.0,0.0,0.0,0.0,0.0,0.0,0.0,0.0,0.0,0.0,0.0,0.0,0.0,0.0,0.0,0.0,0.0,0.0,0.0,0.0,0.0,0.0,0.0,0.0,0.0,0.0,0.0,0.0,0.0,0.0,0.0,0.0,0.0,0.0,0.0,0.0,0.0,0.0,0.0,0.0,0.0,0.0,0.0,0.0,-0.4957,-0.6114,-0.6685,-0.6904,-0.6979,-0.7482,-0.7344,0.0,0.0,0.0,0.0,0.0,0.0,0.0,0.0,0.0,0.0,0.0,0.0,0.0,0.0,0.0,0.0,0.0,0.0,0.0,0.0,0.0,0.0,0.0,0.0,0.0,0.0,0.0,0.0,0.0,0.0,0.0,0.0,0.0,0.0,0.0,0.0,0.0,0.0,0.0,0.0,0.0,0.0,0.0,0.0,0.0,0.0,0.0,0.0,0.0,0.0,0.0,0.0,0.0,0.0,0.0,0.0,0.0,0.0,0.0,0.0,0.0,0.0,0.0,0.0,0.0,0.0,0.0,0.0,0.0,0.0,0.0,0.0,0.0,0.0,0.0,0.0,0.0,0.0,0.0,0.0,0.0,0.0,0.0,0.0,0.0,0.0,0.0,0.0,0.0,0.0,0.0,0.0,0.0,0.0,0.0,0.0,0.0,0.0,0.0,0.0,0.0,0.0,0.0,0.0,0.0,0.0,0.0,0.0,0.0,-0.4331,-0.4852,-0.5173,-0.5229,-0.6156,-0.659,0.0,0.0,0.0,0.0,0.0,0.0,0.0,0.0,0.0,0.0,0.0,0.0,0.0,0.0,0.0,0.0,0.0,0.0,0.0,0.0,0.0,0.0,0.0,0.0,0.0,0.0,0.0,0.0,0.0,0.0,0.0,0.0,0.0,0.0,0.0,0.0,0.0,0.0,0.0,0.0,0.0,0.0,0.0,0.0,0.0,0.0,0.0,0.0,0.0,0.0,0.0,0.0,0.0,0.0,0.0,0.0,0.0,0.0,0.0,0.0,0.0,0.0,0.0,0.0,0.0,0.0,0.0,0.0,0.0,0.0,0.0,0.0,0.0,0.0,0.0,0.0,0.0,0.0,0.0,0.0,0.0,0.0,0.0,0.0,0.0,0.0,0.0,0.0,0.0,0.0,0.0,0.0,0.0,0.0,0.0,0.0,0.0,0.0,0.0,0.0,0.0,0.0,0.0,0.0,0.0,0.0,0.0,0.0,0.0,-0.2887,-0.3601,-0.4009,-0.4054,-0.4771,-0.5376,-0.5887,0.0,0.0,0.0,0.0,0.0,0.0,0.0,0.0,0.0,0.0,0.0,0.0,0.0,0.0,0.0,0.0,0.0,0.0,0.0,0.0,0.0,0.0,0.0,0.0,0.0,0.0,0.0,0.0,0.0,0.0,0.0,0.0,0.0,0.0,0.0,0.0,0.0,0.0,0.0,0.0,0.0,0.0,0.0,0.0,0.0,0.0,0.0,0.0,0.0,0.0,0.0,0.0,0.0,0.0,0.0,0.0,0.0,0.0,0.0,0.0,0.0,0.0,0.0,0.0,0.0,0.0,0.0,0.0,0.0,0.0,0.0,0.0,0.0,0.0,0.0,0.0,0.0,0.0,0.0,0.0,0.0,0.0,0.0,0.0,0.0,0.0,0.0,0.0,0.0,0.0,0.0,0.0,0.0,0.0,0.0,0.0,0.0,0.0,0.0,0.0,0.0,0.0,0.0,0.0,0.0,0.0,0.0,0.0,-0.1808,-0.281,-0.3393,-0.3462,-0.3484,-0.3904,0.0,0.0,0.0,0.0,0.0,0.0,0.0,0.0,0.0,0.0,0.0,0.0,0.0,0.0,0.0,0.0,0.0,0.0,0.0,0.0,0.0,0.0,0.0,0.0,0.0,0.0,0.0,0.0,0.0,0.0,0.0,0.0,0.0,0.0,0.0,0.0,0.0,0.0,0.0,0.0,0.0,0.0,0.0,0.0,0.0,0.0,0.0,0.0,0.0,0.0,0.0,0.0,0.0,0.0,0.0,0.0,0.0,0.0,0.0,0.0,0.0,0.0,0.0,0.0,0.0,0.0,0.0,0.0,0.0,0.0,0.0,0.0,0.0,0.0,0.0,0.0,0.0,0.0,0.0,0.0,0.0,0.0,0.0,0.0,0.0,0.0,0.0,0.0,0.0,0.0,0.0,0.0,0.0,0.0,0.0,0.0,0.0,0.0,0.0,0.0,0.0,0.0,0.0,0.0,0.0,0.0,0.0,0.0,0.0,-0.1811,-0.1671,-0.1999,-0.2876,-0.2923,-0.3821,0.0,0.0,0.0,0.0,0.0,0.0,0.0,0.0,0.0,0.0,0.0,0.0,0.0,0.0,0.0,0.0,0.0,0.0,0.0,0.0,0.0,0.0,0.0,0.0,0.0,0.0,0.0,0.0,0.0,0.0,0.0,0.0,0.0,0.0,0.0,0.0,0.0,0.0,0.0,0.0,0.0,0.0,0.0,0.0,0.0,0.0,0.0,0.0,0.0,0.0,0.0,0.0,0.0,0.0,0.0,0.0,0.0,0.0,0.0,0.0,0.0,0.0,0.0,0.0,0.0,0.0,0.0,0.0,0.0,0.0,0.0,0.0,0.0,0.0,0.0,0.0,0.0,0.0,0.0,0.0,0.0,0.0,0.0,0.0,0.0,0.0,0.0,0.0,0.0,0.0,0.0,0.0,0.0,0.0,0.0,0.0,0.0,0.0,0.0,0.0,0.0,0.0,0.0,0.0,0.0,0.0,0.0,0.0,-0.1975,-0.17,-0.1175,-0.1439,-0.2598,-0.2424,-0.3296,0.0,0.0,0.0,0.0,0.0,0.0,0.0,0.0,0.0,0.0,0.0,0.0,0.0,0.0,0.0,0.0,0.0,0.0,0.0,0.0,0.0,0.0,0.0,0.0,0.0,0.0,0.0,0.0,0.0,0.0,0.0,0.0,0.0,0.0,0.0,0.0,0.0,0.0,0.0,0.0,0.0,0.0,0.0,0.0,0.0,0.0,0.0,0.0,0.0,0.0,0.0,0.0,0.0,0.0,0.0,0.0,0.0,0.0,0.0,0.0,0.0,0.0,0.0,0.0,0.0,0.0,0.0,0.0,0.0,0.0,0.0,0.0,0.0,0.0,0.0,0.0,0.0,0.0,0.0,0.0,0.0,0.0,0.0,0.0,0.0,0.0,0.0,0.0,0.0,0.0,0.0,0.0,0.0,0.0,0.0,0.0,0.0,0.0,0.0,0.0,0.0,0.0,0.0,0.0,0.0,0.0,0.0,0.0,-0.1993,-0.1603,-0.1199,-0.1462,-0.2438,-0.2118,-0.2708,0.0,0.0,0.0,0.0,0.0,0.0,0.0,0.0,0.0,0.0,0.0,0.0,0.0,0.0,0.0,0.0,0.0,0.0,0.0,0.0,0.0,0.0,0.0,0.0,0.0,0.0,0.0,0.0,0.0,0.0,0.0,0.0,0.0,0.0,0.0,0.0,0.0,0.0,0.0,0.0,0.0,0.0,0.0,0.0,0.0,0.0,0.0,0.0,0.0,0.0,0.0,0.0,0.0,0.0,0.0,0.0,0.0,0.0,0.0,0.0,0.0,0.0,0.0,0.0,0.0,0.0,0.0,0.0,0.0,0.0,0.0,0.0,0.0,0.0,0.0,0.0,0.0,0.0,0.0,0.0,0.0,0.0,0.0,0.0,0.0,0.0,0.0,0.0,0.0,0.0,0.0,0.0,0.0,0.0,0.0,0.0,0.0,0.0,0.0,0.0,0.0,0.0,0.0,0.0,0.0,0.0,0.0,0.0,-0.1912,-0.1601,-0.1504,-0.1778,-0.2474,-0.2507,-0.3328,0.0,0.0,0.0,0.0,0.0,0.0,0.0,0.0,0.0,0.0,0.0,0.0,0.0,0.0,0.0,0.0,0.0,0.0,0.0,0.0,0.0,0.0,0.0,0.0,0.0,0.0,0.0,0.0,0.0,0.0,0.0,0.0,0.0,0.0,0.0,0.0,0.0,0.0,0.0,0.0,0.0,0.0,0.0,0.0,0.0,0.0,0.0,0.0,-0.7621,0.0,0.0,0.0,0.0,0.0,0.0,0.0,0.0,0.0,0.0,0.0,0.0,0.0,0.0,0.0,0.0,0.0,0.0,0.0,0.0,0.0,0.0,0.0,0.0,0.0,0.0,0.0,0.0,0.0,0.0,0.0,0.0,0.0,0.0,0.0,0.0,0.0,0.0,0.0,0.0,0.0,0.0,0.0,0.0,0.0,0.0,0.0,0.0,0.0,0.0,0.0,0.0,0.0,0.0,0.0,0.0,0.0,0.0,0.0,-0.2103,-0.1491,-0.1825,-0.2282,-0.2743,-0.2899,-0.3573,0.0,0.0,0.0,0.0,0.0,0.0,0.0,0.0,0.0,0.0,0.0,0.0,0.0,0.0,0.0,0.0,0.0,0.0,0.0,0.0,0.0,0.0,0.0,0.0,0.0,0.0,0.0,0.0,0.0,0.0,0.0,0.0,0.0,0.0,0.0,0.0,0.0,0.0,0.0,0.0,0.0,0.0,0.0,0.0,0.0,0.0,0.0,0.0,0.0,0.0,0.0,0.0,0.0,0.0,0.0,0.0,0.0,0.0,0.0,0.0,0.0,0.0,0.0,0.0,0.0,0.0,0.0,0.0,0.0,0.0,0.0,0.0,0.0,0.0,0.0,0.0,0.0,0.0,0.0,0.0,0.0,0.0,0.0,0.0,0.0,0.0,0.0,0.0,0.0,0.0,0.0,0.0,0.0,0.0,0.0,0.0,0.0,0.0,0.0,0.0,0.0,0.0,0.0,0.0,0.0,0.0,0.0,-0.2542,-0.2273,-0.1414,-0.2062,-0.267,-0.3102,-0.3135,-0.3496,-0.4252,0.0,0.0,0.0,0.0,0.0,0.0,0.0,0.0,0.0,0.0,0.0,0.0,0.0,0.0,0.0,0.0,0.0,0.0,0.0,0.0,0.0,0.0,0.0,0.0,0.0,0.0,0.0,0.0,0.0,0.0,0.0,0.0,0.0,0.0,0.0,0.0,0.0,0.0,-1.2062,-1.2626,0.0,0.0,0.0,0.0,0.0,0.0,0.0,0.0,-0.9064,0.0,0.0,0.0,0.0,0.0,0.0,0.0,0.0,0.0,0.0,0.0,0.0,0.0,0.0,0.0,0.0,0.0,0.0,0.0,0.0,0.0,0.0,0.0,0.0,0.0,0.0,0.0,0.0,0.0,0.0,0.0,0.0,0.0,0.0,0.0,0.0,0.0,0.0,0.0,0.0,0.0,0.0,0.0,0.0,0.0,0.0,0.0,0.0,0.0,0.0,0.0,0.0,0.0,0.0,0.0,0.0,-0.2038,-0.2004,-0.1844,-0.158,-0.2009,-0.2566,-0.3222,-0.2688,-0.2818,-0.3708,0.0,0.0,0.0,0.0,0.0,0.0,0.0,0.0,0.0,0.0,0.0,0.0,0.0,0.0,0.0,0.0,0.0,0.0,0.0,0.0,0.0,0.0,0.0,0.0,0.0,0.0,0.0,0.0,0.0,0.0,0.0,0.0,0.0,0.0,0.0,0.0,0.0,0.0,0.0,-1.207,-1.2185,0.0,0.0,0.0,0.0,0.0,0.0,0.0,0.0,-0.9598,0.0,0.0,0.0,0.0,0.0,0.0,0.0,0.0,0.0,0.0,0.0,0.0,0.0,0.0,0.0,0.0,0.0,0.0,0.0,0.0,0.0,0.0,0.0,0.0,0.0,0.0,0.0,0.0,0.0,0.0,0.0,0.0,0.0,0.0,0.0,0.0,0.0,0.0,0.0,0.0,0.0,0.0,0.0,0.0,0.0,0.0,0.0,0.0,0.0,0.0,0.0,0.0,0.0,0.0,0.0,-0.2036,-0.2166,-0.2057,-0.164,-0.2358,-0.2895,-0.3169,-0.2912,-0.3122,0.0,0.0,0.0,0.0,0.0,0.0,0.0,0.0,0.0,0.0,0.0,0.0,0.0,0.0,0.0,0.0,0.0,0.0,0.0,0.0,0.0,0.0,0.0,0.0,0.0,0.0,0.0,0.0,0.0,0.0,0.0,0.0,0.0,0.0,0.0,0.0,0.0,0.0,0.0,0.0,-1.3052,-1.3332,-1.301,0.0,0.0,0.0,0.0,0.0,0.0,-1.1725,-1.1013,0.0,0.0,0.0,0.0,0.0,0.0,0.0,0.0,0.0,0.0,0.0,0.0,0.0,0.0,0.0,0.0,0.0,0.0,0.0,0.0,0.0,0.0,0.0,0.0,0.0,0.0,0.0,0.0,0.0,0.0,0.0,0.0,0.0,0.0,0.0,0.0,0.0,0.0,0.0,0.0,0.0,0.0,0.0,0.0,0.0,0.0,0.0,0.0,0.0,0.0,0.0,0.0,0.0,0.0,0.0,-0.2229,-0.2425,-0.2282,-0.1872,-0.2798,-0.3286,-0.3199,-0.3055,-0.3319,0.0,0.0,0.0,0.0,0.0,0.0,0.0,0.0,0.0,0.0,0.0,0.0,0.0,0.0,0.0,0.0,0.0,0.0,0.0,0.0,0.0,0.0,0.0,0.0,0.0,0.0,0.0,0.0,0.0,0.0,0.0,0.0,0.0,0.0,0.0,0.0,0.0,0.0,0.0,0.0,0.0,-1.424,-1.4204,-1.3267,0.0,0.0,0.0,0.0,-1.2872,-1.2827,0.0,0.0,0.0,0.0,0.0,0.0,0.0,0.0,0.0,0.0,0.0,0.0,0.0,0.0,0.0,0.0,0.0,0.0,0.0,0.0,0.0,0.0,0.0,0.0,0.0,0.0,0.0,0.0,0.0,0.0,0.0,0.0,0.0,0.0,0.0,0.0,0.0,0.0,0.0,0.0,0.0,0.0,0.0,0.0,0.0,0.0,0.0,0.0,0.0,0.0,0.0,0.0,0.0,0.0,0.0,0.0,-0.2936,-0.225,-0.2138,-0.2563,-0.3098,-0.3447,-0.352,-0.2413,-0.2392,0.0,0.0,0.0,0.0,0.0,0.0,0.0,0.0,0.0,0.0,0.0,0.0,0.0,0.0,0.0,0.0,0.0,0.0,0.0,0.0,0.0,0.0,0.0,0.0,0.0,0.0,0.0,0.0,0.0,0.0,0.0,0.0,0.0,0.0,0.0,0.0,0.0,0.0,0.0,0.0,0.0,-1.3404,-1.3588,-1.3311,-1.3399,0.0,0.0,-1.3924,-1.4662,-1.4187,0.0,0.0,0.0,0.0,0.0,0.0,0.0,0.0,0.0,0.0,0.0,0.0,0.0,0.0,0.0,0.0,0.0,0.0,0.0,0.0,0.0,0.0,0.0,0.0,0.0,0.0,0.0,0.0,0.0,0.0,0.0,0.0,0.0,0.0,0.0,0.0,0.0,0.0,0.0,0.0,0.0,0.0,0.0,0.0,0.0,0.0,0.0,0.0,0.0,0.0,0.0,0.0,0.0,0.0,0.0,-0.2822,-0.2967,-0.2609,-0.2511,-0.2721,-0.3246,-0.3491,-0.3428,-0.2641,-0.2748,0.0,0.0,0.0,0.0,0.0,0.0,0.0,0.0,0.0,0.0,0.0,0.0,0.0,0.0,0.0,0.0,0.0,0.0,0.0,0.0,0.0,0.0,0.0,0.0,0.0,0.0,0.0,0.0,0.0,0.0,0.0,0.0,0.0,0.0,0.0,0.0,0.0,0.0,0.0,0.0,0.0,0.0,-1.4299,-1.3448,0.0,0.0,0.0,-1.3365,-1.4294,0.0,0.0,0.0,0.0,0.0,0.0,0.0,0.0,0.0,0.0,0.0,0.0,0.0,0.0,0.0,0.0,0.0,0.0,0.0,0.0,0.0,0.0,0.0,0.0,0.0,0.0,0.0,0.0,0.0,0.0,0.0,0.0,0.0,0.0,0.0,0.0,0.0,0.0,0.0,0.0,0.0,0.0,0.0,0.0,0.0,0.0,0.0,0.0,0.0,0.0,0.0,0.0,0.0,0.0,0.0,0.0,0.0,-0.3157,-0.2979,-0.2904,-0.2926,-0.3372,-0.3524,-0.337,-0.2917,0.0,0.0,0.0,0.0,0.0,0.0,0.0,0.0,0.0,0.0,0.0,0.0,0.0,0.0,0.0,0.0,0.0,0.0,0.0,0.0,0.0,0.0,0.0,0.0,0.0,0.0,0.0,-0.5712,0.0,0.0,0.0,0.0,0.0,0.0,0.0,0.0,0.0,0.0,0.0,0.0,0.0,0.0,-1.3806,-1.4434,-1.3221,-1.2543,0.0,0.0,-1.2671,-1.3412,-1.3187,-1.2793,0.0,0.0,0.0,0.0,0.0,0.0,0.0,0.0,0.0,0.0,0.0,0.0,0.0,0.0,0.0,0.0,0.0,0.0,0.0,0.0,0.0,0.0,0.0,0.0,0.0,0.0,0.0,0.0,0.0,0.0,0.0,0.0,0.0,0.0,0.0,0.0,0.0,0.0,0.0,0.0,0.0,0.0,0.0,0.0,0.0,0.0,0.0,0.0,0.0,0.0,0.0,0.0,0.0,0.0,-0.3508,-0.3881,-0.3261,-0.3118,-0.3518,-0.3578,-0.36,-0.3568,-0.3006,-0.3006,0.0,0.0,0.0,0.0,0.0,0.0,0.0,0.0,0.0,0.0,0.0,0.0,0.0,0.0,0.0,0.0,0.0,0.0,0.0,0.0,0.0,0.0,0.0,0.0,0.0,0.0,0.0,0.0,0.0,0.0,0.0,0.0,0.0,0.0,0.0,0.0,0.0,0.0,0.0,0.0,0.0,-1.2803,-1.3187,-1.2419,-1.1988,0.0,-1.2431,-1.2413,-1.2495,-1.2478,-1.2313,-1.1909,0.0,0.0,0.0,0.0,0.0,0.0,0.0,0.0,0.0,0.0,0.0,0.0,0.0,0.0,0.0,0.0,0.0,0.0,0.0,0.0,0.0,0.0,0.0,0.0,0.0,0.0,0.0,0.0,0.0,0.0,0.0,0.0,0.0,0.0,0.0,0.0,0.0,0.0,0.0,0.0,0.0,0.0,0.0,0.0,0.0,0.0,0.0,0.0,0.0,0.0,0.0,0.0,0.0,-0.4019,-0.4001,-0.3713,-0.3579,-0.3592,-0.36,-0.36,-0.36,-0.3009,-0.2987,0.0,0.0,0.0,0.0,0.0,0.0,0.0,0.0,0.0,0.0,0.0,0.0,0.0,0.0,0.0,0.0,0.0,0.0,0.0,0.0,0.0,0.0,0.0,0.0,0.0,0.0,0.0,0.0,-0.5767,-0.5498,-0.5902,0.0,0.0,0.0,0.0,0.0,0.0,0.0,0.0,0.0,0.0,-1.1448,-1.1646,-1.141,0.0,0.0,-1.2419,-1.2528,-1.2905,-1.2609,-1.2202,-1.1804,-1.0994,0.0,0.0,0.0,0.0,0.0,0.0,0.0,0.0,0.0,0.0,0.0,0.0,0.0,0.0,0.0,0.0,0.0,0.0,0.0,0.0,0.0,0.0,0.0,0.0,0.0,0.0,0.0,0.0,0.0,0.0,0.0,0.0,0.0,0.0,0.0,0.0,0.0,0.0,0.0,0.0,0.0,0.0,0.0,0.0,0.0,0.0,0.0,0.0,0.0,0.0,0.0,0.0,-0.412,-0.4065,-0.3814,-0.3652,-0.3668,-0.3624,-0.36,-0.36,-0.3192,-0.317,0.0,0.0,0.0,0.0,0.0,0.0,0.0,0.0,0.0,0.0,0.0,0.0,0.0,0.0,0.0,0.0,0.0,0.0,0.0,0.0,0.0,0.0,0.0,0.0,0.0,0.0,0.0,0.0,-0.5692,-0.5394,-0.6308,0.0,0.0,0.0,0.0,0.0,0.0,0.0,0.0,0.0,0.0,-1.0111,-1.0439,-1.0675,-1.1015,-1.1531,-1.1746,-1.1951,-1.2141,-1.1964,-1.1738,-1.1603,0.0,0.0,0.0,0.0,0.0,0.0,0.0,0.0,0.0,0.0,0.0,0.0,0.0,0.0,0.0,0.0,0.0,0.0,0.0,0.0,0.0,0.0,0.0,0.0,0.0,0.0,0.0,-0.516,0.0,0.0,-0.731,0.0,0.0,0.0,0.0,0.0,0.0,0.0,0.0,0.0,0.0,0.0,0.0,0.0,0.0,0.0,0.0,0.0,0.0,0.0,0.0,0.0,0.0,-0.3618,-0.4164,-0.3349,-0.3205,-0.3738,-0.3675,-0.3578,-0.36,-0.3578,-0.3578,-0.36,0.0,0.0,0.0,0.0,0.0,0.0,0.0,0.0,0.0,0.0,0.0,0.0,0.0,0.0,0.0,0.0,0.0,0.0,0.0,0.0,0.0,0.0,0.0,0.0,0.0,0.0,-0.6727,-0.5644,-0.5204,0.0,0.0,0.0,0.0,0.0,0.0,0.0,0.0,0.0,-0.8824,-0.867,-0.8845,-0.9678,-1.0257,-1.0321,-0.9715,-1.0207,-1.0418,-0.9823,-1.0233,-1.0775,0.0,0.0,0.0,0.0,0.0,0.0,0.0,0.0,0.0,0.0,0.0,0.0,0.0,0.0,0.0,0.0,0.0,0.0,0.0,0.0,0.0,0.0,0.0,0.0,0.0,0.0,0.0,-0.5365,-0.5382,0.0,0.0,0.0,0.0,0.0,0.0,0.0,0.0,0.0,0.0,0.0,-0.597,-0.5319,0.0,0.0,0.0,0.0,0.0,0.0,0.0,0.0,0.0,0.0,0.0,0.0,-0.3346,-0.3427,-0.2715,-0.254,-0.3057,-0.303,-0.3192,-0.3578,-0.36,-0.36,-0.36,0.0,0.0,0.0,0.0,0.0,0.0,0.0,0.0,0.0,0.0,0.0,0.0,0.0,0.0,0.0,0.0,0.0,0.0,0.0,0.0,0.0,0.0,0.0,0.0,0.0,-0.5505,0.0,0.0,0.0,0.0,0.0,0.0,0.0,0.0,0.0,0.0,0.0,-0.738,-0.7753,-0.7327,-0.7182,-0.7729,-0.8571,-0.9167,0.0,0.0,0.0,0.0,0.0,0.0,0.0,0.0,0.0,0.0,0.0,0.0,0.0,0.0,-0.8882,-0.9102,-0.9219,-0.9043,-0.8201,0.0,0.0,0.0,0.0,0.0,0.0,0.0,0.0,0.0,0.0,0.0,0.0,0.0,0.0,-0.5549,-0.5614,-0.6451,0.0,0.0,0.0,0.0,0.0,0.0,0.0,0.0,-0.6713,-0.6286,-0.5848,-0.5474,-0.4951,-0.4376,-0.4768,-0.4537,0.0,0.0,0.0,0.0,0.0,0.0,0.0,0.0,-0.2622,-0.2754,-0.2011,-0.1899,-0.2417,-0.2413,-0.2574,-0.297,-0.322,-0.3355,-0.3358,-0.3592,-0.3734,0.0,0.0,0.0,0.0,0.0,0.0,0.0,0.0,0.0,0.0,0.0,0.0,0.0,0.0,0.0,0.0,0.0,0.0,0.0,0.0,0.0,0.0,0.0,-0.4994,0.0,0.0,0.0,0.0,0.0,0.0,0.0,0.0,0.0,-0.6145,-0.6231,-0.6311,-0.6514,-0.6209,-0.6092,-0.6528,0.0,0.0,0.0,0.0,0.0,0.0,0.0,-0.9903,-0.9611,-0.9115,-0.8753,-0.8698,-0.838,-0.8141,-0.8141,0.0,0.0,-0.8068,-0.8203,-0.8024,-0.7232,-0.7692,-0.7883,-0.6822,-0.6802,-0.6789,0.0,0.0,0.0,0.0,-0.6928,0.0,0.0,0.0,-0.6079,-0.5682,0.0,-0.6493,0.0,0.0,0.0,0.0,-0.8183,-0.8163,0.0,0.0,-0.688,-0.6463,-0.5558,-0.5486,-0.545,-0.5405,-0.5155,-0.4664,-0.3948,-0.3685,0.0,0.0,0.0,0.0,0.0,0.0,-0.1454,-0.2093,-0.1325,-0.1224,-0.1934,-0.183,-0.1781,-0.1854,-0.2517,-0.2853,-0.2879,-0.3509,-0.3941,-0.3966,-0.3825,0.0,0.0,0.0,0.0,0.0,0.0,0.0,0.0,0.0,0.0,0.0,0.0,0.0,0.0,0.0,0.0,0.0,0.0,0.0,0.0,-0.5739,0.0,0.0,0.0,0.0,0.0,0.0,0.0,0.0,0.0,-0.3846,-0.5167,-0.5355,-0.5313,-0.5088,0.0,0.0,0.0,0.0,-0.726,-0.6681,-0.7154,-0.7389,-0.6783,-0.7192,-0.7623,-0.7623,0.0,0.0,-0.6718,-0.6847,-0.6974,-0.7012,-0.7092,-0.7359,-0.7306,-0.6988,-0.6696,-0.6578,-0.6595,-0.6556,-0.6507,-0.6396,-0.619,-0.5743,0.0,0.0,0.0,0.0,-0.6121,-0.5606,-0.5,-0.4787,-0.4244,-0.3589,-0.3837,0.0,0.0,0.0,0.0,0.0,0.0,-0.4795,-0.3982,-0.3946,-0.4185,-0.4597,-0.3875,-0.4285,-0.5632,-0.4763,-0.3917,-0.3233,-0.3047,-0.2913,-0.2799,0.0,0.0,0.0,0.0,-0.1187,-0.1356,-0.0657,-0.0585,-0.1197,-0.1169,-0.1362,-0.1781,-0.2003,-0.2112,-0.2109,-0.2311,-0.2661,-0.3191,-0.3185,0.0,0.0,0.0,0.0,0.0,0.0,0.0,0.0,0.0,0.0,0.0,0.0,0.0,0.0,0.0,0.0,0.0,0.0,0.0,-0.5322,-0.5063,-0.4898,0.0,0.0,0.0,0.0,0.0,0.0,0.0,0.0,0.0,-0.3168,-0.3161,-0.3319,0.0,0.0,-0.3597,-0.4746,-0.5151,-0.5431,-0.5787,-0.6621,0.0,-0.6987,-0.7093,-0.7255,-0.7255,-0.7062,-0.6821,-0.6615,-0.5827,-0.5159,-0.5163,-0.4384,-0.3739,-0.3871,-0.5552,-0.6532,-0.6023,-0.5814,-0.5655,-0.5222,-0.5,-0.4824,-0.6809,-0.6054,-0.5737,-0.5661,-0.5744,-0.5623,-0.4877,-0.3774,-0.3772,-0.3427,-0.2849,-0.2849,-0.2833,-0.277,-0.277,0.0,0.0,0.0,-0.337,-0.2884,-0.2855,-0.3161,-0.365,-0.3059,-0.3406,-0.4491,-0.3819,-0.326,-0.2799,-0.2372,-0.2111,-0.2009,0.0,-0.1066,-0.1814,-0.1064,-0.0659,-0.0628,-0.0228,-0.0166,-0.0527,-0.0555,-0.0721,-0.1054,-0.1362,-0.1526,-0.1523,-0.1809,-0.217,-0.2597,-0.2713,-0.2698,0.0,0.0,0.0,0.0,0.0,0.0,0.0,0.0,0.0,0.0,0.0,-0.6457,-0.6957,0.0,0.0,0.0,-0.5839,-0.5162,-0.4448,-0.4321,0.0,0.0,0.0,0.0,0.0,0.0,0.0,-0.3199,-0.284,-0.239,-0.1822,-0.1499,-0.1695,-0.273,-0.2474,-0.2534,-0.3412,0.0,-0.4161,-0.4608,-0.5445,-0.6089,-0.6089,-0.6085,-0.6061,-0.6057,-0.5622,-0.5301,-0.5278,-0.4338,-0.3566,-0.3406,-0.2779,-0.2204,-0.2204,-0.3865,-0.4994,-0.4319,-0.4189,-0.4055,-0.3649,-0.3474,-0.3408,-0.7611,-0.755,-0.7004,-0.6041,-0.4969,-0.4826,-0.406,-0.3014,-0.2971,-0.2931,-0.2849,-0.2849,-0.2772,-0.2676,-0.2676,0.0,-0.2846,-0.2868,-0.2835,-0.287,-0.2849,-0.2823,-0.2802,-0.2725,-0.2691,-0.2739,-0.2625,-0.2584,-0.2584,-0.1745,-0.1272,-0.1197,-0.0406,-0.0423,-0.1105,-0.041,0.0,0.0,0.0,0.0,0.0,0.0,0.0,0.0,-0.0672,-0.101,-0.1041,-0.1651,-0.2088,-0.2207,-0.239,-0.2455,-0.2347,0.0,0.0,0.0,0.0,0.0,0.0,0.0,0.0,0.0,0.0,0.0,0.0,0.0,0.0,0.0,-0.5033,0.0,-0.3589,-0.352,0.0,0.0,0.0,-0.2184,-0.2227,-0.2224,-0.2191,-0.2134,0.0,0.0,-0.102,-0.0401,-0.0483,-0.1843,-0.2024,-0.2052,-0.208,-0.2731,-0.3231,-0.3327,-0.3884,-0.4306,-0.4338,-0.4332,-0.4338,-0.431,-0.3699,-0.3342,-0.3331,-0.2703,-0.2209,-0.2151,-0.2082,-0.1984,-0.2015,-0.2073,-0.2037,-0.2065,-0.2202,-0.2259,-0.2312,-0.2307,-0.2284,-0.7699,-0.759,-0.7444,-0.6574,-0.5177,-0.4033,-0.2932,-0.1969,-0.1969,-0.1468,-0.0757,-0.0715,-0.0712,-0.0709,-0.0667,-0.0711,-0.0756,-0.0752,-0.0744,-0.0731,-0.0727,-0.1153,-0.1865,-0.1088,-0.1509,-0.2876,-0.2074,-0.1721,-0.1831,-0.1505,-0.0945,-0.0327,-0.0107,-0.0106,-0.0283,-0.0101,0.0,0.0,0.0,0.0,0.0,0.0,0.0,0.0,-0.0179,-0.0269,-0.0272,-0.0425,-0.1126,-0.2342,-0.248,-0.2778,-0.3368,-0.348,0.0,0.0,0.0,0.0,0.0,0.0,0.0,0.0,0.0,-0.5697,-0.4968,0.0,-0.3889,0.0,-0.3226,-0.315,-0.2954,-0.2834,0.0,0.0,-0.2365,-0.2282,-0.2546,-0.2481,-0.2213,-0.1573,-0.1355,-0.0988,-0.0351,-0.0094,-0.0123,-0.0483,0.0,-0.0723,-0.1264,-0.1504,-0.1864,-0.237,-0.2666,-0.2733,-0.2815,-0.2731,-0.2789,-0.2763,-0.2591,-0.247,-0.2486,-0.1856,-0.1354,-0.1308,-0.0886,-0.0567,0.0,-0.0542,0.0,-0.0587,-0.1424,-0.2204,-0.2202,-0.2091,-0.2024,-0.7816,-0.7694,-0.6517,-0.5509,-0.4688,-0.3776,-0.278,-0.1752,-0.1139,-0.0567,0.0,0.0,0.0,0.0,0.0,0.0,0.0,0.0,0.0,0.0,0.0,-0.0328,-0.085,-0.0284,-0.0604,-0.1669,-0.1021,-0.0777,-0.0883,-0.0758,-0.0452,0.0,0.0,0.0,0.0,0.0,0.0,0.0,0.0,0.0,0.0,0.0,-0.0185,-0.0555,-0.0586,-0.0771,-0.117,-0.1215,-0.1631,-0.2539,-0.2949,-0.3364,-0.376,-0.3854,-0.3804,0.0,0.0,0.0,0.0,0.0,0.0,0.0,0.0,0.0,0.0,0.0,-0.296,-0.2609,-0.2653,-0.2536,-0.2119,-0.2001,-0.1848,-0.1535,-0.1316,-0.1298,-0.1471,-0.1457,-0.1222,-0.0771,-0.0729,-0.0559,0.0,0.0,0.0,0.0,0.0,-0.0129,-0.0528,-0.0862,-0.1261,-0.166,-0.1966,-0.2213,-0.2213,-0.2213,-0.2213,-0.2179,-0.1939,-0.1715,-0.1676,-0.1105,-0.0621,-0.0577,-0.0269,0.0,0.0,0.0,0.0,0.0,-0.065,-0.1147,-0.1228,-0.1169,-0.1108,-0.8042,-0.7829,-0.5356,-0.4283,-0.4275,-0.3761,-0.2883,-0.1669,-0.051,0.0,0.0,0.0,0.0,0.0,0.0,0.0,0.0,0.0,0.0,0.0,0.0,0.0,0.0,0.0,0.0,0.0,0.0,0.0,0.0,0.0,0.0,0.0,0.0,0.0,0.0,0.0,0.0,0.0,0.0,0.0,0.0,-0.0126,-0.0565,-0.1291,-0.1449,-0.1919,-0.2708,-0.2736,-0.2803,-0.2935,-0.3671,-0.4046,-0.4078,-0.417,-0.4435,0.0,-0.4241,0.0,0.0,0.0,0.0,0.0,0.0,0.0,0.0,-0.2592,-0.2213,-0.2316,-0.2361,-0.2034,-0.1199,-0.114,-0.0844,0.0,0.0,0.0,0.0,0.0,0.0068,0.017,0.0204,0.0238,0.0,0.0409,0.0,0.0,0.0,0.0,-0.0032,-0.054,-0.0922,-0.0945,-0.151,-0.1721,-0.1769,-0.1854,-0.182,-0.1779,-0.1365,-0.0969,-0.0959,-0.0471,0.0,0.0,0.0,0.0,0.0,0.0,0.0,0.0,0.0,0.0,0.0,0.0,0.0134,-0.8397,-0.8225,-0.6586,-0.5872,-0.5659,-0.3359,-0.1612,-0.0379,-0.0095,0.0,0.0,0.0,0.0,0.0,0.0,0.0,0.0,0.0,0.0,0.0,0.0,0.0,0.0,0.0,0.0,0.0,0.0,0.0,0.0,0.0,0.0,0.0,0.0,0.0,0.0,0.0,0.0,0.0,0.0,0.0,0.0,-0.0864,-0.1381,-0.1551,-0.2329,0.0,-0.2998,-0.3013,-0.3372,-0.4111,-0.4308,0.0,0.0,0.0,0.0,0.0,0.0,0.0,0.0,0.0,0.0,0.0,-0.2198,-0.1698,-0.1563,-0.0904,-0.0468,-0.0509,-0.0509,-0.0437,-0.0255,-0.0254,-0.0181,0.0,0.0,0.0,0.0,0.0,0.0323,0.1183,0.129,0.1612,0.2286,0.2508,0.2187,0.1406,0.13,0.0934,0.0142,-0.007,-0.0212,0.0,0.0,0.0,-0.0413,0.0,0.0,-0.04,-0.0324,0.0,0.0,0.0,0.0,0.0,0.0,0.0,0.0,0.0,0.0,0.0,0.0,0.0,0.0,0.0474,0.0879,-0.8535,-0.8367,-0.6977,-0.5959,0.0,-0.3008,-0.1274,0.0,0.0,0.0,0.0,0.0,0.0,0.0,0.0,0.0,0.0,0.0,0.0,0.0,0.0,0.0,0.0,0.0,0.0,0.0,0.0,0.0,0.0,0.0,0.0,0.0,0.0,0.0,0.0,0.0,0.0,0.0,0.0,-0.0252,-0.0763,-0.1328,-0.2078,-0.2971,-0.3519,0.0,0.0,0.0,0.0,0.0,0.0,0.0,0.0,0.0,0.0,-0.4789,-0.3918,-0.3323,-0.3248,-0.24,-0.1933,-0.1996,-0.1177,-0.0624,-0.0572,-0.0219,0.0,0.0,0.0,0.0,0.0,0.0,0.0,0.0,0.0,0.0182,0.0691,0.08,0.1201,0.2108,0.2324,0.2543,0.3051,0.3123,0.2924,0.2439,0.2334,0.2157,0.1538,0.0628,0.0,0.0,0.0,0.0,0.0,0.0,0.0,0.0,0.0,0.0,0.0,0.0,0.0,0.0,0.0,0.0,0.0,0.0,0.0,0.0,0.0,0.0,0.0,0.0316,0.0681,-0.856,-0.8451,-0.709,-0.5804,-0.4528,-0.2925,-0.1372,0.0,0.0,0.0,0.0,0.0,0.0,0.0,0.0,0.0,0.0,0.0,0.0,0.0,0.0,0.0,0.0,0.0,0.0,0.0,0.0,0.0,0.0,0.0,0.0,0.0,0.0,0.0,0.0,0.0,0.0,0.0,0.0,-0.0404,-0.129,-0.1688,-0.2637,-0.4223,-0.4444,-0.4885,-0.555,-0.5438,-0.5328,-0.5325,-0.5325,-0.5325,-0.5289,-0.4486,-0.4001,-0.3912,-0.3046,-0.246,-0.245,-0.158,-0.1069,-0.1069,-0.0414,0.0,0.0,0.0,0.0,0.0,0.0,0.0,0.0,0.0,0.0,0.0,0.0187,0.0665,0.1475,0.1805,0.2251,0.3165,0.3393,0.3497,0.3726,0.3763,0.3558,0.3438,0.3379,0.3244,0.294,0.1664,0.0,0.0,0.0,0.0,0.0,0.0,0.0549,0.0,0.0,0.0281,0.028,0.0137,0.0,0.0,0.0,0.0,0.0,0.0,0.0,0.0,0.0,0.0,0.0,0.0,0.0,-0.8817,-0.8698,-0.726,-0.656,-0.6121,-0.3366,-0.1329,0.0,0.0,0.0,0.0,0.0,0.0,0.0,0.0,0.0,0.0,0.0,0.0,0.0,0.0,0.0,0.0,0.0,0.0,0.0,0.0,0.0,0.0,0.0,0.0,0.0,0.0,0.0,0.0,0.0,0.0,0.0,0.0,-0.0076,-0.0233,-0.1975,-0.2994,-0.3319,-0.4171,-0.4717,-0.4835,-0.3979,-0.3477,-0.3478,-0.3477,-0.3477,-0.3478,-0.3357,-0.322,-0.3049,-0.226,-0.169,-0.1505,-0.0652,-0.0194,-0.0194,-0.0078,0.0,0.0,0.0,0.0,0.0,0.0,0.0,0.0,0.0,0.0,0.0,0.0817,0.1435,0.1663,0.2393,0.3315,0.4315,0.4486,0.4865,0.551,0.5711,0.5325,0.4696,0.4493,0.4201,0.3465,0.2876,0.267,0.2669,0.2667,0.2683,0.2452,0.2628,0.2497,0.266,0.1889,0.1368,0.1369,0.072,0.0,0.0,0.0,0.0,0.0,0.0,0.0,0.0,0.0,0.0,0.0,0.0,0.03,-0.7709,-0.7756,-0.781,-0.7396,-0.6451,-0.3471,-0.135,0.0,0.0,0.0,0.0,0.0,0.0,0.0,0.0,0.0,0.0,0.0,0.0,0.0,0.0,0.0,0.0,0.0,0.0,0.0,0.0,0.0,0.0,0.0,0.0,0.0,0.0,0.0,0.0,0.0,0.0,0.0,0.0,-0.0275,-0.0862,-0.1783,-0.2554,-0.3085,-0.3591,-0.3826,-0.3826,-0.3357,-0.3124,-0.3124,-0.3124,-0.3124,-0.3085,-0.2579,-0.2259,-0.2159,-0.1285,-0.0703,-0.0579,-0.0234,0.0,0.0,0.0,0.0,0.0,0.0,0.0,0.0,0.0,0.0,0.0,0.0,0.0,0.0,0.098,0.1802,0.2425,0.3359,0.4414,0.5354,0.555,0.5747,0.6257,0.63,0.618,0.5631,0.555,0.5315,0.4844,0.4805,0.4373,0.3357,0.3124,0.311,0.3118,0.3114,0.3097,0.3104,0.2672,0.2363,0.2277,0.1764,0.1516,0.1476,0.1477,0.1477,0.141,0.0,0.1476,0.1442,0.1476,0.1454,0.1366,0.1273,0.1188,-0.6422,-0.6813,-0.7931,-0.754,-0.6026,-0.3749,-0.1702,0.0,0.0,0.0,0.0,0.0,0.0,0.0,0.0,0.0,0.0,0.0,0.0,0.0,0.0,0.0,0.0,0.0,0.0,0.0,0.0,0.0,0.0,0.0,-0.0135,0.0,-0.0404,-0.0538,-0.0807,-0.0794,-0.0822,-0.0805,-0.0541,-0.069,-0.1217,-0.1489,-0.2073,-0.3007,-0.289,-0.2852,-0.3046,-0.2656,-0.2383,-0.2384,-0.2396,-0.2404,-0.2364,-0.1666,-0.1232,-0.1147,-0.0475,0.0,0.0,0.0,0.0,0.0,0.0,0.0,0.0,0.0,0.0,0.0,0.0,0.0,0.0,0.0,0.0,0.0,0.1194,0.2265,0.3074,0.4288,0.538,0.6155,0.63,0.6261,0.63,0.63,0.6261,0.6261,0.63,0.63,0.63,0.63,0.5512,0.4453,0.3826,0.3941,0.3826,0.3902,0.3938,0.3824,0.3541,0.3372,0.3213,0.303,0.2703,0.2587,0.2611,0.2544,0.2644,0.2611,0.2569,0.2455,0.2414,0.2505,0.2306,0.218,0.2004,-0.5475,-0.6644,-0.6869,-0.6033,-0.4691,-0.435,-0.2565,0.0,0.0,0.0,0.0,0.0,0.0,0.0,0.0,0.0,0.0,0.0,0.0,0.0,0.0,0.0,0.0,0.0,0.0,0.0,0.0,0.0,0.0,0.0,-0.0538,-0.1522,-0.1657,-0.2102,-0.3078,-0.3207,-0.3216,-0.3242,-0.2199,-0.1171,-0.0237,-0.1098,-0.2074,-0.3046,-0.2232,-0.2151,-0.3054,-0.1292,-0.0314,-0.0275,-0.0361,0.0,0.0,0.0,0.0,0.0,0.0,0.0,0.0,0.0,0.0,0.0,0.0,0.0,0.0,0.0,0.0,0.0,0.0,0.0,0.0,0.0,0.0,0.0,0.1825,0.3139,0.3362,0.5036,0.6324,0.6271,0.6327,0.63,0.6306,0.63,0.63,0.63,0.63,0.63,0.63,0.6296,0.6257,0.5944,0.5944,0.5867,0.5825,0.5983,0.5709,0.5735,0.5121,0.4577,0.4212,0.3611,0.2899,0.3259,0.2911,0.2978,0.2878,0.2709,0.279,0.2979,0.2849,0.2568,0.2312,0.2363,0.2296,-0.5641,-0.5472,-0.6366,-0.5303,-0.3296,-0.3129,-0.1958,0.0,0.0,0.0,0.0,0.0,0.0,0.0,0.0,0.0,0.0,0.0,0.0,0.0,0.0,0.0,0.0,0.0,0.0,0.0,0.0,0.0,0.0,0.0,-0.0584,-0.17,-0.179,-0.2413,-0.3525,-0.3614,-0.358,-0.3556,-0.312,-0.2591,-0.2174,-0.1835,-0.1917,-0.2322,-0.2608,-0.2936,-0.3217,-0.1876,-0.1062,-0.1021,-0.0413,0.0,0.0,0.0,0.0,0.0,0.0,0.0,0.0,0.0,0.0,0.0,0.0,0.0,0.0,0.0,0.0,0.0,0.0,0.0,0.0,0.0,0.0,0.0,0.2014,0.3338,0.3309,0.5281,0.6549,0.646,0.6504,0.648,0.6344,0.63,0.63,0.63,0.63,0.6313,0.6303,0.63,0.63,0.63,0.63,0.63,0.63,0.63,0.63,0.6195,0.5863,0.5418,0.5171,0.4897,0.446,0.4272,0.4187,0.4181,0.4384,0.4284,0.4262,0.4089,0.3964,0.3858,0.3693,0.3605,0.3567,-0.5475,-0.4751,-0.5697,-0.4578,-0.2235,-0.218,-0.1343,0.0,0.0,0.0,0.0,0.0,0.0,0.0,0.0,0.0,0.0,0.0,0.0,0.0,0.0,0.0,0.0,0.0,0.0,0.0,0.0,0.0,0.0,0.0,-0.0632,-0.1657,-0.2147,-0.2904,-0.4016,-0.4372,-0.4561,-0.4548,-0.428,-0.3943,-0.3503,-0.2772,-0.2418,-0.2727,-0.2932,-0.3226,-0.3477,-0.243,-0.1635,-0.1301,-0.0465,0.0,0.0,0.0,0.0,0.0,0.0,0.0,0.0,0.0,0.0,0.0,0.0,0.0,0.0,0.0,0.0,0.0,0.0,0.0,0.0,0.0,0.0,0.0557,0.2305,0.3491,0.3932,0.5661,0.6702,0.6576,0.6614,0.663,0.648,0.6433,0.6443,0.6443,0.6433,0.6419,0.6409,0.6399,0.6364,0.6354,0.633,0.63,0.63,0.63,0.63,0.6282,0.6118,0.5962,0.5857,0.5708,0.5555,0.4953,0.5289,0.5326,0.5057,0.5193,0.5262,0.525,0.5018,0.4736,0.4478,0.454,0.4459,-0.4526,-0.4526,-0.4582,-0.3632,-0.218,-0.2124,-0.1343,0.0,0.0,0.0,0.0,0.0,0.0,0.0,0.0,0.0,0.0,0.0,0.0,0.0,0.0,0.0,0.0,0.0,0.0,0.0,0.0,0.0,0.0,0.0,-0.0594,-0.1794,-0.278,-0.4026,-0.5107,-0.6094,-0.683,-0.6479,-0.5755,-0.4809,-0.3778,-0.3556,-0.3877,-0.4426,-0.3017,-0.2523,-0.3149,-0.2391,-0.1303,-0.0168,-0.0086,0.0,0.0,0.0,0.0,0.0,0.0,0.0,0.0,0.0,0.0,0.0,0.0,0.0,0.0,0.0,0.0,0.0,0.0,0.0,0.0,0.0,0.0579,0.1511,0.2845,0.4003,0.4887,0.6046,0.672,0.6725,0.6695,0.6692,0.6671,0.6681,0.6651,0.6647,0.6664,0.6651,0.662,0.6539,0.6474,0.6344,0.6277,0.6264,0.6222,0.6022,0.6103,0.6054,0.5899,0.6094,0.5945,0.5762,0.5641,0.5501,0.5429,0.5395,0.5395,0.5365,0.5281,0.5176,0.4982,0.4796,0.4762,0.461,0.4535,-0.6312,-0.4416,-0.3408,-0.218,-0.084,-0.0784,-0.0504,0.0,0.0,0.0,0.0,0.0,0.0,0.0,0.0,0.0,0.0,0.0,0.0,0.0,0.0,0.0,0.0,0.0,0.0,0.0,0.0,0.0,0.0,0.0,-0.061,-0.1633,-0.2233,-0.3068,-0.4272,-0.5522,-0.6121,-0.6207,-0.6421,-0.6102,-0.482,-0.4045,-0.3805,-0.4061,-0.3403,-0.3143,-0.3535,-0.2403,-0.1575,-0.1183,-0.0442,0.0,0.0,0.0,0.0,0.0,0.0,0.0,0.0,0.0,0.0,0.0,0.0,0.0,0.0,0.0673,0.1165,0.1255,0.1924,0.2281,0.2147,0.1612,0.1344,0.1924,0.3573,0.4851,0.5396,0.6308,0.7007,0.6868,0.677,0.6736,0.6765,0.6763,0.6702,0.6702,0.6702,0.6625,0.6657,0.6644,0.626,0.5644,0.5425,0.5128,0.4256,0.4882,0.5237,0.5237,0.5244,0.5551,0.5585,0.5748,0.5681,0.5504,0.5423,0.5395,0.5395,0.5388,0.5324,0.5179,0.4945,0.4894,0.4857,0.4711,0.4665,-0.7253,-0.5189,-0.3681,-0.2145,-0.0785,-0.0789,-0.0507,0.0,0.0,0.0,0.0,0.0,0.0,0.0,0.0,0.0,0.0,0.0,0.0,0.0,0.0,0.0,0.0,0.0,0.0,0.0,0.0,0.0,0.0,0.0,0.0,-0.1143,-0.1571,-0.2188,-0.3134,-0.4316,-0.4978,-0.515,-0.5756,-0.5565,-0.442,-0.3502,-0.2788,-0.2505,-0.2413,-0.2637,-0.2948,-0.2235,-0.1613,-0.1165,-0.0449,0.0,0.0,0.0,0.0,0.0,0.0,0.0,0.0,0.0,0.0,0.0,0.0,0.0583,0.0673,0.17,0.2281,0.2592,0.3037,0.3614,0.3527,0.3172,0.295,0.3127,0.4465,0.5536,0.5938,0.6605,0.7004,0.6924,0.649,0.6481,0.6744,0.6123,0.5917,0.6202,0.5984,0.5726,0.5684,0.5602,0.5374,0.4563,0.4349,0.38,0.311,0.3246,0.4336,0.4533,0.4763,0.5068,0.555,0.5722,0.5728,0.5515,0.5433,0.5405,0.5395,0.5395,0.5337,0.5216,0.509,0.4995,0.4924,0.4837,0.4785,-0.7078,-0.6595,-0.547,-0.3855,-0.2368,-0.2451,-0.1592,0.0,0.0,0.0,0.0,0.0,0.0,0.0,0.0,0.0,0.0,0.0,0.0,0.0,0.0,0.0,0.0,0.0,0.0,0.0,0.0,0.0,0.0,0.0,0.0,0.0,-0.115,-0.1631,-0.1812,-0.2962,-0.362,-0.3716,-0.3852,-0.3296,-0.1991,-0.1987,-0.1421,0.0,0.0,-0.0766,-0.1749,-0.1701,-0.1165,0.0,0.0,0.0,0.0,0.0,0.0,0.0,0.0,0.0,0.0,0.0,0.0,0.0317,0.1125,0.1714,0.1986,0.2924,0.364,0.3688,0.3864,0.39,0.4127,0.4717,0.5163,0.5361,0.546,0.5983,0.6754,0.7054,0.7095,0.699,0.6342,0.6015,0.6331,0.5676,0.4995,0.544,0.4914,0.4379,0.4588,0.4452,0.3649,0.3446,0.3506,0.3199,0.2348,0.1724,0.2934,0.3906,0.4292,0.4665,0.5501,0.5882,0.5783,0.5586,0.5443,0.5409,0.5395,0.5395,0.5395,0.5287,0.5213,0.5127,0.5104,0.5023,0.4897,-0.8064,-0.704,-0.6606,-0.5538,-0.4162,-0.4124,-0.383,-0.3348,-0.3256,-0.2672,-0.1817,-0.1575,-0.1008,0.0,0.0,0.0,0.0,0.0,0.0,0.0,0.0,0.0,0.0,0.0,0.0,0.0,0.0,0.0,0.0,0.0,0.0,0.0,0.0,-0.0546,-0.0693,-0.183,-0.2471,-0.2615,-0.3316,-0.3137,-0.2064,-0.1851,-0.1222,0.0,0.0,-0.0233,-0.055,-0.0543,-0.0404,0.0,0.0,0.0,0.0,0.0,0.0,0.0,0.0,0.0,0.0,0.0,0.0467,0.1215,0.1774,0.2428,0.3311,0.4419,0.5062,0.5206,0.582,0.6334,0.6429,0.6617,0.6483,0.5665,0.6171,0.6703,0.7133,0.7162,0.7105,0.7095,0.6786,0.6786,0.6874,0.6065,0.5844,0.6157,0.5401,0.4863,0.5523,0.4747,0.4345,0.374,0.3407,0.0,0.0,0.0,0.1691,0.2859,0.3513,0.4358,0.5258,0.5936,0.583,0.5647,0.5511,0.5412,0.5399,0.5395,0.5395,0.5395,0.5334,0.5274,0.527,0.5179,0.5047,-0.8974,-0.8049,-0.8089,-0.7161,-0.5812,-0.5779,-0.5422,-0.4916,-0.478,-0.3835,-0.2626,-0.2253,-0.1399,0.0,0.0,0.0,0.0,0.0,0.0,0.0,0.0,0.0,0.0,0.0,0.0,0.0,0.0,0.0,0.0,0.0,0.0,0.0,0.0,0.0,0.0,-0.0756,-0.126,-0.1408,-0.194,-0.2021,-0.137,-0.1163,-0.0768,0.0,0.0,0.0,0.0,0.0,0.0,0.0,0.0,0.0,0.0,0.0,0.0,0.0,0.0,0.0,0.0618,0.0,0.1332,0.2473,0.3136,0.375,0.4697,0.5784,0.6449,0.6593,0.7067,0.7597,0.7547,0.7597,0.7192,0.6555,0.6899,0.7314,0.7417,0.7319,0.7238,0.7131,0.6732,0.6748,0.6959,0.611,0.6113,0.6157,0.5489,0.451,0.5041,0.4374,0.3574,0.2747,0.1975,0.0,0.0,0.0,0.0,0.1613,0.2698,0.3852,0.4958,0.567,0.5885,0.5667,0.5501,0.5419,0.5395,0.5395,0.5395,0.5395,0.5395,0.5375,0.5347,0.5291,0.5186,-0.9741,-0.9646,-0.9761,-0.8746,-0.7386,-0.7468,-0.6802,-0.5467,-0.5198,-0.4362,-0.2976,-0.2648,-0.1566,0.0,0.0,0.0,0.0,0.0,0.0,0.0,0.0,0.0,0.0,0.0,0.0,0.0,0.0,0.0,0.0,0.0,0.0,0.0,0.0,0.0,0.0,0.0,0.0,0.0,0.0,0.0,0.0,0.0,0.0,0.0,0.0,0.0,0.0,0.0,0.0,0.0,0.0,0.0,0.0,0.0,0.0,0.0,0.0,0.0,0.1863,0.2113,0.2685,0.3979,0.4934,0.59,0.6077,0.6861,0.7441,0.7434,0.757,0.7651,0.7655,0.7658,0.7658,0.778,0.7621,0.7597,0.758,0.7461,0.7383,0.72,0.6382,0.5899,0.6972,0.5442,0.5043,0.4999,0.4552,0.366,0.2948,0.2719,0.1551,0.1142,0.1174,0.0,0.0,0.0,0.0,0.0827,0.1918,0.3119,0.4178,0.4912,0.5263,0.5107,0.5123,0.5148,0.5226,0.5057,0.5226,0.5395,0.5395,0.5395,0.5382,0.5321,0.5298,-0.9798,-0.9771,-0.9805,-0.9533,-0.9102,-0.9144,-0.8887,-0.8459,-0.8184,-0.6512,-0.4634,-0.4018,-0.2349,0.0,0.0,0.0,0.0,0.0,0.0,0.0,0.0,0.0,0.0,0.0,0.0,0.0,0.0,0.0,0.0,0.0,0.0,0.0,0.0,0.0,0.0,0.0,0.0,0.0,0.0,0.0,0.0,0.0,0.0,0.0,0.0,0.0,0.0,0.0,0.0,0.0,0.0,0.0,0.1213,0.1418,0.1768,0.2453,0.2783,0.2979,0.3354,0.346,0.4104,0.5248,0.5819,0.6383,0.7373,0.7671,0.7874,0.7874,0.7874,0.7864,0.7867,0.786,0.7891,0.795,0.7841,0.7719,0.7634,0.7563,0.7502,0.7344,0.7021,0.6998,0.6739,0.6441,0.5719,0.5225,0.4372,0.3392,0.2725,0.2101,0.1469,0.1507,0.1447,0.0859,0.0,0.0,0.0,0.0,0.1176,0.2229,0.3059,0.3669,0.3694,0.3543,0.3779,0.3908,0.4185,0.4281,0.4686,0.4954,0.5057,0.4957,0.5259,0.5345,0.5309,-0.939,-0.8833,-0.9511,-0.9819,-0.9819,-0.9819,-0.9819,-0.9764,-0.9454,-0.7677,-0.5298,-0.4591,-0.2796,0.0,0.0,0.0,0.0,0.0,0.0,0.0,0.0,0.0,0.0,0.0,0.0,0.0,0.0,0.0,0.0,0.0,0.0,0.0,0.0,0.0,0.0,0.0,0.0,0.0,0.0,0.0,0.0,0.0,0.0,0.0,0.0,0.0,0.0,0.0,0.0,0.0,0.0,0.1349,0.2449,0.2678,0.3111,0.3888,0.3964,0.4173,0.4756,0.487,0.5475,0.6528,0.6833,0.7185,0.7779,0.7988,0.7988,0.7978,0.7988,0.7988,0.7988,0.7988,0.7988,0.7971,0.796,0.7826,0.7787,0.7733,0.7658,0.7573,0.7499,0.7178,0.6625,0.6469,0.5849,0.4924,0.4059,0.3349,0.2726,0.2148,0.1566,0.1337,0.0,0.0,0.0,0.0,0.0,0.0,0.0,0.0,0.2215,0.2685,0.2806,0.2772,0.2699,0.2771,0.3189,0.3478,0.3613,0.3882,0.4217,0.4486,0.4652,0.502,0.5057,-0.8465,-0.7299,-0.8897,-0.9454,-0.9207,-0.9451,-0.9191,-0.9131,-0.8725,-0.7079,-0.4875,-0.4304,-0.2518,0.0,0.0,0.0,0.0,0.0,0.0,0.0,0.0,0.0,0.0,0.0,0.0,0.0,0.0,0.0,0.0,0.0,0.0,0.0,0.0,0.0,0.0,0.0,0.0,0.0,0.0,0.0,0.0,0.0,0.0,0.0,0.0,0.0,0.0,0.1107,0.1925,0.1988,0.2026,0.2732,0.3791,0.4002,0.4262,0.4578,0.4851,0.5261,0.5977,0.6229,0.6631,0.7587,0.7839,0.7988,0.7988,0.7988,0.7988,0.7988,0.7988,0.7988,0.7988,0.7988,0.7988,0.7985,0.7982,0.7985,0.7813,0.7818,0.7779,0.7607,0.7441,0.6786,0.5893,0.5281,0.4922,0.3715,0.3081,0.2592,0.2013,0.1389,0.0808,0.0404,0.0,0.0,0.0,0.0,0.0,0.0,0.0,0.0,0.0,0.2039,0.229,0.227,0.1757,0.1846,0.2394,0.2577,0.2611,0.2945,0.3413,0.3547,0.3682,0.4215,0.445,-0.5774,-0.5588,-0.724,-0.7118,-0.6261,-0.7301,-0.719,-0.6084,-0.5852,-0.4891,-0.3276,-0.2818,-0.1679,0.0,0.0,0.0,0.0,0.0,0.0,0.0,0.0,0.0,0.0,0.0,0.0,0.0,0.0,0.0,0.0,0.0,0.0,0.0,0.0,0.0,0.0,0.0,0.0,0.0,0.0,0.0,0.0,0.0,0.0,0.0,0.0,0.0,0.0,0.1268,0.2402,0.3115,0.3563,0.4229,0.5148,0.5468,0.5879,0.6517,0.6909,0.7182,0.7484,0.7484,0.764,0.7889,0.7988,0.7988,0.7988,0.7988,0.7988,0.7988,0.7988,0.7988,0.7988,0.7988,0.7988,0.7988,0.7988,0.7584,0.6877,0.7307,0.7337,0.6551,0.6157,0.5649,0.425,0.4053,0.3479,0.2464,0.0,0.0,0.0,0.0,0.0,0.0,0.0,0.0,0.0,0.0,0.0,0.0,0.0,0.0,0.0,0.0,0.0,0.0,0.0545,0.0915,0.1558,0.1641,0.1708,0.2143,0.0,0.2644,0.2878,0.3378,0.4015,-0.5159,-0.3996,-0.5527,-0.571,-0.51,-0.5831,-0.5724,-0.4978,-0.4781,-0.3893,-0.269,-0.2309,-0.1343,0.0,0.0,0.0,0.0,0.0,0.0,0.0,0.0,0.0,0.0,0.0,0.0,0.0,0.0,0.0,0.0,0.0,0.0,0.0,0.0,0.0,0.0,0.0,0.0,0.0,0.0,0.0,0.0,0.0,0.0,0.0,0.0,0.0201,0.0995,0.228,0.3546,0.4643,0.5456,0.6061,0.655,0.6795,0.7201,0.773,0.7931,0.7988,0.7988,0.7988,0.7988,0.7988,0.7988,0.7988,0.7988,0.7988,0.7988,0.7988,0.7988,0.7988,0.7988,0.7988,0.7988,0.7988,0.7988,0.7434,0.6481,0.6631,0.6509,0.5394,0.4959,0.4185,0.344,0.29,0.2217,0.1308,0.0,0.0,0.0,0.0,0.0,0.0,0.0,0.0,0.0,0.0,0.0,0.0,0.0,0.0,0.0,0.0,0.0,0.0,0.0,0.0,0.0685,0.0713,0.0,0.0,0.0,0.0,0.1945,0.2283,0.3117,-0.5096,-0.2278,-0.412,-0.461,-0.4242,-0.4424,-0.4319,-0.4005,-0.4012,-0.296,-0.2284,-0.1911,-0.1008,0.0,0.0,0.0,0.0,0.0,0.0,0.0,0.0,0.0,0.0,0.0,0.0,0.0,0.0,0.0,0.0,0.0,0.0,0.0,0.0,0.0,0.0,0.0,0.0,0.0,0.0,0.0,0.0,0.0,0.0,0.0,0.0,0.0,0.1757,0.3107,0.4409,0.5677,0.6983,0.7421,0.7391,0.7754,0.7889,0.7982,0.7985,0.7988,0.7988,0.7988,0.7988,0.7988,0.7988,0.7988,0.7988,0.7988,0.7988,0.7988,0.7988,0.7988,0.7988,0.7988,0.7988,0.7988,0.7988,0.7282,0.6126,0.5677,0.5066,0.4007,0.3612,0.3012,0.2246,0.1594,0.0876,0.0,0.0,0.0,0.0,0.0,0.0,0.0,0.0,0.0,0.0,0.0,0.0,0.0,0.0,0.0,0.0,0.0,0.0,0.0,0.0,0.0,0.0,0.0,0.0,0.0,0.0,0.0,0.1028,0.1183,0.2224,-0.3383,-0.0678,-0.3629,-0.3382,-0.1233,-0.2278,-0.2182,-0.0947,0.0,0.0,0.0,0.0,0.0,0.0,0.0,0.0,0.0,0.0,0.0,0.0,0.0,0.0,0.0,0.0,0.0,0.0,0.0,0.0,0.0,0.0,0.0,0.0,0.0,0.0,0.0,0.0,0.0,0.0,0.0,0.0,0.0,0.0,0.0,0.0,0.0,0.0,0.1963,0.3215,0.4116,0.4418,0.5625,0.561,0.5487,0.6732,0.7552,0.7624,0.7584,0.7534,0.7736,0.7889,0.7939,0.7988,0.7988,0.7988,0.7988,0.7988,0.7988,0.7988,0.7988,0.7988,0.7988,0.7789,0.7889,0.7939,0.7683,0.6877,0.5018,0.4368,0.3869,0.2613,0.2283,0.0,0.0,0.0,0.0,0.0,0.0,0.0,0.0,0.0,0.0,0.0,0.0,0.0,0.0,0.0,0.0,0.0,0.0,0.0,0.0,0.0,0.0,0.0,0.0,0.0,0.0,0.0,0.0,0.0,0.0,0.0,0.0386,0.0796,0.1506,-0.4301,-0.1541,-0.3015,-0.2278,-0.037,-0.0863,-0.0788,0.0,0.0,0.0,0.0,0.0,0.0,0.0,0.0,0.0,0.0,0.0,0.0,0.0,0.0,0.0,0.0,0.0,0.0,0.0,0.0,0.0,0.0,0.0,0.0,0.0,0.0,0.0,0.0,0.0,0.0,0.0,0.0,0.0,0.0,0.0,0.0,0.0,0.0,0.0,0.1963,0.3265,0.3966,0.4268,0.5325,0.507,0.4768,0.4918,0.5924,0.5922,0.6022,0.6326,0.6781,0.6983,0.7185,0.7939,0.7988,0.7988,0.7988,0.7988,0.7988,0.7988,0.7939,0.7686,0.7033,0.7033,0.6628,0.6226,0.6476,0.5622,0.3967,0.3767,0.2765,0.0,0.0,0.0,0.0,0.0,0.0,0.0,0.0,0.0,0.0,0.0,0.0,0.0,0.0,0.0,0.0,0.0,0.0,0.0,0.0,0.0,0.0,0.0,0.0,0.0,0.0,0.0,0.0,0.0,0.0,0.0,0.0,0.0,0.0,0.046,0.1158,-0.5955,-0.2953,-0.2954,-0.2033,-0.0617,-0.0123,0.0,0.0,0.0,0.0,0.0,0.0,0.0,0.0,0.0,0.0,0.0,0.0,0.0,0.0,0.0,0.0,0.0,0.0,0.0,0.0,0.0,0.0,0.0,0.0,0.0,0.0,0.0,0.0,0.0,0.0,0.0,0.0,0.0,0.0,0.0,0.0,0.0,0.0,0.0,0.0605,0.1963,0.2864,0.3364,0.3667,0.4219,0.447,0.3416,0.3165,0.3165,0.3265,0.3667,0.4568,0.5272,0.6079,0.6581,0.7285,0.7789,0.7939,0.7988,0.7988,0.7988,0.7988,0.7988,0.769,0.6933,0.6229,0.5625,0.5122,0.5172,0.482,0.3265,0.2514,0.2163,0.0,0.0,0.0,0.0,0.0,0.0,0.0,0.0,0.0,0.0,0.0,0.0,0.0,0.0,0.0,0.0,0.0,0.0,0.0,0.0,0.0,0.0,0.0,0.0313,0.0,0.0,0.0,0.0,0.0,0.0,0.0,0.0,0.0,0.0,0.0,0.065,-0.7609,-0.4611,-0.455,-0.369,-0.1967,0.0,0.0,0.0,0.0,0.0,0.0,0.0,0.0,0.0,0.0,0.0,0.0,0.0,0.0,0.0,0.0,0.0,0.0,0.0,0.0,0.0,0.0,0.0,0.0,0.0,0.0,0.0,0.0,0.0,0.0,0.0,0.0,0.0,0.0,0.0,0.0,0.0,0.0,0.0,0.0,0.0504,0.1611,0.2213,0.2363,0.2263,0.2414,0.1863,0.0757,0.0454,0.0454,0.1159,0.2414,0.4066,0.4318,0.4972,0.5879,0.6481,0.7235,0.7836,0.7988,0.7988,0.7988,0.7988,0.7988,0.7587,0.6983,0.6481,0.5977,0.5122,0.432,0.3568,0.2314,0.2163,0.1711,0.0,0.0,0.0,0.0,0.0,0.0,0.0,0.0,0.0,0.0,0.0,0.0,0.0,0.0,0.0,0.0,0.0,0.0,0.0,0.0,0.0,0.0,0.0434,0.0275,0.0,0.0,0.0,0.0,0.0,0.0,0.0,0.0,0.0,0.0,0.0,0.0,-0.7057,-0.4856,-0.3935,-0.2585,-0.1107,-0.0243,0.0,0.0,0.0,0.0,0.0,0.0,0.0,0.0,0.0,0.0,0.0,0.0,0.0,0.0,0.0,0.0,0.0,0.0,0.0,0.0,0.0,0.0,0.0,0.0,0.0,0.0,0.0,0.0,0.0,0.0,0.0,0.0,0.0,0.0,0.0,0.0,0.0,0.0,0.0,0.0,0.0857,0.1711,0.1511,0.1309,0.146,0.136,0.0,0.0,0.0,0.0151,0.1009,0.2013,0.2815,0.3468,0.4472,0.5727,0.6581,0.7132,0.7686,0.7939,0.7939,0.7988,0.7988,0.7381,0.6124,0.5272,0.3969,0.3217,0.3066,0.2314,0.1611,0.1963,0.0,0.0,0.0,0.0,0.0,0.0,0.0,0.0,0.0,0.0,0.0,0.0,0.0,0.0,0.0,0.0,0.0,0.0,0.0,0.0,0.0,0.0,0.0,0.0239,0.0197,0.0392,0.0,0.0,0.0,0.0,0.0,0.0,0.0,0.0,0.0,0.0,0.0,-0.6444,-0.4794,-0.3199,-0.1783,-0.0613,-0.0181,0.0,0.0,0.0,0.0,0.0,0.0,0.0,0.0,0.0,0.0,0.0,0.0,0.0,0.0,0.0,0.0,0.0,0.0,0.0,0.0,0.0,0.0,0.0,0.0,0.0,0.0,0.0,0.0,0.0,0.0,0.0,0.0,0.0,0.0,0.0,0.0,0.0,0.0,0.0,0.0,0.0,0.0806,0.0756,0.0555,0.0857,0.0807,0.0,0.0,0.0,0.0,0.0,0.0656,0.141,0.2163,0.3116,0.4422,0.5827,0.6379,0.6578,0.7182,0.7182,0.6728,0.6675,0.567,0.4568,0.3867,0.2865,0.1963,0.136,0.0756,0.0,0.0,0.0,0.0,0.0,0.0,0.0,0.0,0.0,0.0,0.0,0.0,0.0,0.0,0.0,0.0,0.0,0.0,0.0,0.0,0.0,0.0,0.0,0.0,0.0,0.0,0.0354,0.0628,0.0,0.0,0.0,0.0,0.0,0.0,0.0,0.0,0.0,0.0,0.0,-0.6444,-0.4795,-0.3199,-0.2444,-0.2111,-0.0653,0.0,0.0,0.0,0.0,0.0,0.0,0.0,0.0,0.0,0.0,0.0,0.0,0.0,0.0,0.0,0.0,0.0,0.0,0.0,0.0,0.0,0.0,0.0,0.0,0.0,0.0,0.0,0.0,0.0,0.0,0.0,0.0,0.0,0.0,0.0,0.0,0.0,0.0,0.0,0.0,0.0,0.0,0.0,0.0,0.0,0.0,0.0,0.0,0.0,0.0,0.0,0.0,0.0,0.1209,0.1963,0.2967,0.4221,0.5425,0.512,0.5724,0.5522,0.4918,0.5068,0.4568,0.3717,0.2964,0.2113,0.136,0.0,0.0,0.0,0.0,0.0,0.0,0.0,0.0,0.0,0.0,0.0,0.0,0.0,0.0,0.0,0.0,0.0,0.0,0.0,0.0,0.0,0.0,0.0,0.0,0.0,0.0,0.0,0.0,0.0,0.0,0.0,0.0,0.0,0.0,0.0,0.0,0.0,0.0,0.0,0.0,0.0,-0.7055,-0.6261,-0.4669,-0.3372,-0.2436,-0.1664,-0.1406,-0.1508,-0.1416,-0.0784,0.0,0.0,0.0,0.0,0.0,0.0,0.0,0.0,0.0,0.0,0.0,0.0,0.0,0.0,0.0,0.0,0.0,0.0,0.0,0.0,0.0,0.0,0.0,0.0,0.0,0.0,0.0,0.0,0.0,0.0,0.0,0.0,0.0,0.0,0.0,0.0,0.0,0.0,0.0,0.0,0.0,0.0,0.0,0.0,0.0,0.0,0.0,0.0,0.0,0.0,0.1058,0.2264,0.3618,0.4468,0.3765,0.4518,0.4568,0.4168,0.3815,0.3466,0.2665,0.2264,0.1762,0.0958,0.0,0.0,0.0,0.0,0.0,0.0,0.0,0.0,0.0,0.0,0.0,0.0,0.0,0.0,0.0,0.0,0.0,0.0,0.0,0.0,0.0,0.0,0.0,0.0,0.0,0.0,0.0,0.0,0.0,0.0,0.0,0.0,0.0629,0.0903,0.0,0.0,0.0,0.0,0.0,0.1254,0.1488,-0.785,-0.7299,-0.6139,-0.4717,-0.3288,-0.3028,-0.3042,-0.3074,-0.2942,-0.2069,-0.0616,0.0,0.0,0.0,0.0,0.0,0.0,0.0,0.0,0.0,0.0,0.0,0.0,0.0,0.0,0.0,0.0,0.0,0.0,0.0,0.0,0.0,0.0,0.0,0.0,0.0,0.0,0.0,0.0,0.0,0.0,0.0,0.0,0.0,0.0,0.0,0.0,0.0,0.0,0.0,0.0,0.0,0.0,0.0,0.0,0.0,0.0,0.0,0.0,0.0,0.0,0.131,0.2564,0.3015,0.2964,0.3115,0.3165,0.2615,0.2615,0.0,0.0,0.121,0.1008,0.0,0.0,0.0,0.0,0.0,0.0,0.0,0.0,0.0,0.0,0.0,0.0,0.0,0.0,0.0,0.0,0.0,0.0,0.0,0.0,0.0,0.0,0.0,0.0,0.0,0.0,0.0,0.0,0.0,0.0,0.0,0.0,0.0,0.122,0.1647,0.188,0.0,0.2229,0.2384,0.2267,0.2189,0.2112,-0.8711,-0.7423,-0.7299,-0.633,-0.5047,-0.4724,-0.4654,-0.4596,-0.417,-0.3242,-0.1789,0.0,0.0,0.0,0.0,0.0,0.0,0.0,0.0,0.0,0.0,0.0,0.0,0.0,0.0,0.0,0.0,0.0,0.0,0.0,0.0,0.0,0.0,0.0,0.0,0.0,0.0,0.0,0.0,0.0,0.0,0.0,0.0,0.0,0.0,0.0,0.0,0.0,0.0,0.0,0.0,0.0,0.0,0.0,0.0,0.0,0.0,0.0,0.0,0.0,0.0,0.0,0.1561,0.1611,0.0908,0.1109,0.1711,0.0,0.0,0.0,0.0,0.0,0.0,0.0,0.0,0.0,0.0,0.0,0.0,0.0,0.0,0.0,0.0,0.0,0.0,0.0,0.0,0.0,0.0,0.0,0.0,0.0,0.0,0.0,0.0,0.0,0.0,0.0,0.0,0.0,0.0,0.0,0.0,0.0,0.0647,0.1281,0.186,0.2466,0.3051,0.3636,0.3398,0.3396,0.3279,0.3163,0.3124,-0.7911,-0.7423,-0.736,-0.7664,-0.7793,-0.6664,-0.619,-0.5905,-0.4078,-0.2738,-0.2012,-0.0672,0.0,0.0,0.0,0.0,0.0,0.0,0.0,0.0,0.0,0.0,0.0,0.0,0.0,0.0,0.0,0.0,0.0,0.0,0.0,0.0,0.0,0.0,0.0,0.0,0.0,0.0,0.0,0.0,0.0,0.0,0.0,0.0,0.0,0.0,0.0,0.0,0.0,0.0,0.0,0.0,0.0,0.0,0.0,0.0,0.0,0.0,0.0,0.0,0.0,0.0,0.0,0.0,0.0,0.0,0.0303,0.0,0.0,0.0,0.0,0.0,0.0,0.0,0.0,0.0,0.0,0.0,0.0,0.0,0.0,0.0,0.0,0.0,0.0,0.0,0.0,0.0,0.0,0.0,0.0,0.0,0.0,0.0,0.0,0.0,0.0,0.0,0.0,0.0,0.0,0.0,0.0,0.0,0.0,0.178,0.2677,0.3594,0.4742,0.5237,0.4844,0.4724,0.4805,0.453,0.4178,-0.6505,-0.6566,-0.7177,-0.7933,-0.8686,-0.8043,-0.7751,-0.7247,-0.4957,-0.3741,-0.3519,-0.2292,0.0,0.0,-0.1567,-0.1008,-0.084,0.0,0.0,0.0,0.0,0.0,0.0,0.0,0.0,0.0,0.0,0.0,0.0,0.0,0.0,0.0,0.0,0.0,0.0,0.0,0.0,0.0,0.0,0.0,0.0,0.0,0.0,0.0,0.0,0.0,0.0,0.0,0.0,0.0,0.0,0.0,0.0,0.0,0.0,0.0,0.0,0.0,0.0,0.0,0.0,0.0,0.0,0.0,0.0,0.0,0.0,0.0,0.0,0.0,0.0,0.0,0.0,0.0,0.0,0.0,0.0,0.0,0.0,0.0,0.0,0.0,0.0,0.0,0.0,0.0,0.0,0.0,0.0,0.0,0.0,0.0,0.0,0.0,0.0,0.0,0.0,0.0,0.0,0.0,0.0,0.0,0.0,0.0,0.0,0.2035,0.3561,0.4706,0.5436,0.5912,0.5944,0.5983,0.6296,0.5786,0.5157,-0.4851,-0.5161,-0.6623,-0.7342,-0.7727,-0.874,-0.902,-0.8729,-0.7207,-0.6533,-0.6422,-0.4747,-0.3911,-0.4191,-0.4303,-0.3465,-0.2291,-0.2124,-0.1287,-0.0448,0.0,0.0,0.0,0.0,0.0,0.0,0.0,0.0,0.0,0.0,0.0,0.0,0.0,0.0,0.0,0.0,0.0,0.0,0.0,0.0,0.0,0.0,0.0,0.0,0.0,0.0,0.0,0.0,0.0,0.0,0.0,0.0,0.0,0.0,0.0,0.0,0.0,0.0,0.0,0.0,0.0,0.0,0.0,0.0,0.0,0.0,0.0,0.0,0.0,0.0,0.0,0.0,0.0,0.0,0.0,0.0,0.0,0.0,0.0,0.0,0.0,0.0,0.0,0.0,0.0,0.0,0.0,0.0,0.0,0.0,0.0,0.0,0.0,0.0,0.0,0.0,0.0,0.0,0.0,0.0,0.0,0.0,0.0,0.0,0.0,0.2126,0.3435,0.4671,0.5713,0.6041,0.6025,0.63,0.63,0.63,0.5864,-0.3836,-0.4911,-0.5341,-0.6779,-0.8697,-0.8964,-0.8959,-0.8719,-0.7371,-0.6702,-0.6589,-0.514,-0.4804,-0.447,-0.447,-0.4247,-0.3521,-0.2794,-0.2124,-0.1343,0.0,0.0,0.0,0.0,0.0,0.0,0.0,0.0,0.0,0.0,0.0,0.0,0.0,0.0,0.0,0.0,0.0,0.0,0.0,0.0,0.0,0.0,0.0,0.0,0.0,0.0,0.0,0.0,0.0,0.0,0.0,0.0,0.0,0.0,0.0,0.0,0.0,0.0,0.0,0.0,0.0,0.0,0.0,0.0,0.0,0.0,0.0,0.0,0.0,0.0,0.0,0.0,0.0,0.0,0.0,0.0,0.0,0.0,0.0,0.0,0.0,0.0,0.0,0.0,0.0,0.0,0.0,0.0,0.0,0.0,0.0,0.0,0.0,0.0,0.0,0.0,0.0,0.0,0.0,0.0,0.0,0.0,0.0,0.0,0.0,0.1995,0.3141,0.4248,0.512,0.5494,0.5547,0.5944,0.6257,0.618,0.6219,-0.383,-0.4757,-0.5372,-0.7067,-0.904,-0.91,-0.8994,-0.8725,-0.7934,-0.7595,-0.7429,-0.6702,-0.6255,-0.6366,-0.6311,-0.5697,-0.4357,-0.3576,-0.2572,-0.084,-0.0448,0.0,0.0,0.0,0.0,0.0,0.0,0.0,0.0,0.0,0.0,0.0,0.0,0.0,0.0,0.0,0.0,0.0,0.0,0.0,0.0,0.0,0.0,0.0,0.0,0.0,0.0,0.0,0.0,0.0,0.0,0.0,0.0,0.0,0.0,0.0,0.0,0.0,0.0,0.0,0.0,0.0,0.0,0.0,0.0,0.0,0.0,0.0,0.0,0.0,0.0,0.0,0.0,0.0,0.0,0.0,0.0,0.0,0.0,0.0,0.0,0.0,0.0,0.0,0.0,0.0,0.0,0.0,0.0,0.0,0.0,0.0,0.0,0.0,0.0,0.0,0.0,0.0,0.0,0.0,0.0,0.0,0.0,0.0,0.0,0.1789,0.2474,0.3327,0.413,0.443,0.4569,0.4686,0.5196,0.5867,0.5983,-0.4566,-0.4869,-0.6376,-0.7878,-0.9034,-0.9173,-0.9049,-0.8892,-0.8771,-0.8881,-0.8771,-0.8826,-0.8436,-0.7762,-0.7706,-0.6422,-0.4916,-0.3855,-0.2516,-0.0224,-0.0112,0.0,0.0,0.0,0.0,0.0,0.0,0.0,0.0,0.0,0.0,0.0,0.0,0.0,0.0,0.0,0.0,0.0,0.0,0.0,0.0,0.0,0.0,0.0,0.0,0.0,0.0,0.0,0.0,0.0,0.0,0.0,0.0,0.0,0.0,0.0,0.0,0.0,0.0,0.0,0.0,0.0,0.0,0.0,0.0,0.0,0.0,0.0,0.0,0.0,0.0,0.0,0.0,0.0,0.0,0.0,0.0,0.0,0.0,0.0,0.0,0.0,0.0,0.0,0.0,0.0,0.0,0.0,0.0,0.0,0.0,0.0,0.0,0.0,0.0,0.0,0.0,0.0,0.0,0.0,0.0,0.0,0.0,0.0,0.062,0.0994,0.164,0.2397,0.2952,0.3154,0.3242,0.324,0.3826,0.4805,0.5118,-0.5215,-0.6434,-0.7979,-0.8838,-0.8942,-0.8991,-0.8919,-0.8937,-0.8937,-0.8937,-0.8881,-0.8826,-0.8266,-0.7482,-0.726,-0.6031,-0.4636,-0.3408,-0.2403,-0.1231,-0.0504,0.0,0.0,0.0,0.0,0.0,0.0,0.0,0.0,0.0,0.0,0.0,0.0,0.0,0.0,0.0,0.0,0.0,0.0,0.0,0.0,0.0,0.0,0.0,0.0,0.0,0.0,0.0,0.0,0.0,0.0,0.0,0.0,0.0,0.0,0.0,0.0,0.0,0.0,0.0,0.0,0.0,0.0,0.0,0.0,0.0,0.0,0.0,0.0,0.0,0.0,0.0,0.0,0.0,0.0,0.0,0.0,0.0,0.0,0.0,0.0,0.0,0.0,0.0,0.0,0.0,0.0,0.0,0.0,0.0,0.0,0.0,0.0,0.0,0.0,0.0,0.0,0.0,0.0,0.0,0.0,0.0,0.0,0.0,0.0223,0.0,0.0,0.1343,0.1805,0.1984,0.2228,0.2306,0.2578,0.3398,0.3593,-0.6997,-0.7903,-0.8696,-0.9011,-0.8892,-0.8937,-0.8937,-0.8937,-0.8937,-0.8937,-0.8768,-0.8211,-0.7429,-0.6478,-0.6089,-0.4914,-0.3575,-0.2681,-0.1733,-0.1007,0.0,0.0,0.0,0.0,0.0,0.0,0.0,0.0,0.0,0.0,0.0,0.0,0.0,0.0,0.0,0.0,0.0,0.0,0.0,0.0,0.0,0.0,0.0,0.0,0.0,0.0,0.0,0.0,0.0,0.0,0.0,0.0,0.0,0.0,0.0,0.0,0.0,0.0,0.0,0.0,0.0,0.0,0.0,0.0,0.0,0.0,0.0,0.0,0.0,0.0,0.0,0.0,0.0,0.0,0.0,0.0,0.0,0.0,0.0,0.0,0.0,0.0,0.0,0.0,0.0,0.0,0.0,0.0,0.0,0.0,0.0,0.0,0.0,0.0,0.0,0.0,0.0,0.0,0.0,0.0,0.0,0.0,0.0,0.0,0.0,0.0,0.0,0.0,0.0,0.0872,0.1177,0.1487,0.0,0.0,0.0,-0.8833,-0.8937,-0.8885,-0.894,-0.8937,-0.8937,-0.8937,-0.8937,-0.8937,-0.8937,-0.8602,-0.7146,-0.6533,-0.5919,-0.486,-0.3353,-0.2236,-0.1677,-0.0896,0.0,0.0,0.0,0.0,0.0,0.0,0.0,0.0,0.0,0.0,0.0,0.0,0.0,0.0,0.0,0.0,0.0,0.0,0.0,0.0,0.0,0.0,0.0,0.0,0.0,0.0,0.0,0.0,0.0,0.0,0.0,0.0,0.0,0.0,0.0,0.0,0.0,0.0,0.0,0.0,0.0,0.0,0.0,0.0,0.0,0.0,0.0,0.0,0.0,0.0,0.0,0.0,0.0,0.0,0.0,0.0,0.0,0.0,0.0,0.0,0.0,0.0,0.0,0.0,0.0,0.0,0.0,0.0,0.0,0.0,0.0,0.0,0.0,0.0,0.0,0.0,0.0,0.0,0.0,0.0,0.0,0.0,0.0,0.0,0.0,0.0,0.0,0.0,0.0,0.0,0.0,0.0,0.0,0.0,0.0,0.0,-0.8937,-0.8937,-0.8937,-0.8937,-0.8937,-0.8937,-0.8937,-0.8937,-0.8937,-0.8937,-0.8266,-0.6144,-0.4916,-0.486,-0.3296,0.0,0.0,0.0,0.0,0.0,0.0,0.0,0.0,0.0,0.0,0.0,0.0,0.0,0.0,0.0,0.0,0.0,0.0,0.0,0.0,0.0,0.0,0.0,0.0,0.0,0.0,0.0,0.0,0.0,0.0,0.0,0.0,0.0,0.0,0.0,0.0,0.0,0.0,0.0,0.0,0.0,0.0,0.0,0.0,0.0,0.0,0.0,0.0,0.0,0.0,0.0,0.0,0.0,0.0,0.0,0.0,0.0,0.0,0.0,0.0,0.0,0.0,0.0,0.0,0.0,0.0,0.0,0.0,0.0,0.0,0.0,0.0,0.0,0.0,0.0,0.0,0.0,0.0,0.0,0.0,0.0,0.0,0.0,0.0,0.0,0.0,0.0,0.0,0.0,0.0,0.0,0.0,0.0,0.0,0.0,0.0,0.0,0.0,0.0,0.0]},{"header":{"parameterUnit":"m.s-1","parameterCategory":1,"la1":31.0,"la2":29.5877,"lo1":-88.7671,"lo2":-86.6584,"dy":0.0162,"dx":0.0185,"nx":115,"ny":88,"refTime":"2026-05-08T12:00:00:Z","depth":0,"parameterNumber":3,"parameterNumberName":"V-component_of_WINDS"},"data":[0.0,0.0,0.0,0.0,0.0,0.0,0.0,0.0,0.0,0.0,0.0,0.0,0.0,0.0,0.0,0.0,0.0,0.0,0.0,0.0,0.0,0.0,0.0,0.0,0.0,0.0,0.0,0.0,0.0,0.0,0.0,0.0,0.0,0.0,0.0,0.0,0.0,0.0,0.0,0.0,0.0,0.0,0.0,0.0,0.0,0.0,0.0,0.0,0.0,0.0,0.0,0.0,0.0,0.0,0.0,0.0,0.0,0.0,0.0,0.0,0.0,0.0,0.0,0.0,0.0,0.0,0.0,0.0,0.0,0.0,0.0,0.0,0.0,0.0,0.0,0.0,0.0,0.0,0.0,0.0,0.0,0.0,0.0,0.0,0.0,0.0,0.0,0.0,0.0,0.0,0.0,0.0,0.0,0.0,0.0,0.0,0.0,0.0,0.0,0.0,0.0,0.0,0.0,0.0,0.0,0.0,0.0,0.0,0.0,0.0,0.0,0.0,0.0,0.0,0.0,0.0,0.0,0.0,0.0,0.0,0.0,0.0,0.0,0.0,0.0,0.0,0.0,0.0,0.0,0.0,0.0,0.0,0.0,0.0,0.0,0.0,0.0,0.0,0.0,0.0,0.0,0.0,0.0,0.0,0.0,0.0,0.0,0.0,0.0,0.0,0.0,0.0,0.0,0.0,0.0,0.0,0.0,0.0,0.0,0.0,0.0,0.0,0.0,0.0,0.0,0.0,0.0,0.0,0.0,0.0,0.0,0.0,0.0,0.0,0.0,0.0,0.0,0.0,0.0,0.0,0.0,0.0,0.0,0.0,0.0,0.0,0.0,0.0,0.0,0.0,0.0,0.0,0.0,0.0,0.0,0.0,0.0,0.0,0.0,0.0,0.0,0.0,0.0,0.0,0.0,0.0,0.0,0.0,0.0,0.0,0.0,0.0,0.0,0.0,0.0,0.0,0.0,0.0,0.0,0.0,0.0,0.0,0.0,0.0,0.0,0.0,0.0,0.0,0.0,0.0,0.0,0.0,0.0,0.0,0.0,0.0,0.0,0.0,0.0,0.0,0.0,0.0,0.0,0.0,0.0,0.0,0.0,0.0,0.0,0.0,0.0,0.0,0.0,0.0,0.0,0.0,0.0,0.0,0.0,0.0,0.0,0.0,0.0,0.0,0.0,0.0,0.0,0.0,0.0,0.0,0.0,0.0,0.0,0.0,0.0,0.0,0.0,0.0,0.0,0.0,0.0,0.0,0.0,0.0,0.0,0.0,0.0,0.0,0.0,0.0,0.0,0.0,0.0,0.0,0.0,0.0,0.0,0.0,0.0,0.0,0.0,0.0,0.0,0.0,0.0,0.0,0.0,0.0,0.0,0.0,0.0,0.0,0.0,0.0,0.0,0.0,0.0,0.0,0.0,0.0,0.0,0.0,0.0,0.0,0.0,0.0,0.0,0.0,0.0,0.0,0.0,0.0,0.0,0.0,0.0,0.0,0.0,0.0,0.0,0.0,0.0,0.0,0.0,0.0,0.0,0.0,0.0,0.0,0.0,0.0,0.0,0.0,0.0,0.0,0.0,0.0,0.0,0.0,0.0,0.0,0.0,0.0,0.0,0.0,0.0,0.0,0.0,0.0,0.0,0.0,0.0,0.0,0.0,0.0,0.0,0.0,0.0,0.0,0.0,0.0,0.0,0.0,0.0,0.0,0.0,0.0,0.0,0.0,0.0,0.0,0.0,0.0,0.0,0.0,0.0,0.0,0.0,0.0,0.0,0.0,0.0,0.0,0.0,0.0,0.0,0.0,0.0,0.0,0.0,0.0,0.0,0.0,0.0,0.0,0.0,0.0,0.0,0.0,0.0,0.0,0.0,0.0,0.0,0.0,0.0,0.0,0.0,0.0,0.0,0.0,0.0,0.0,0.0,0.0,0.0,0.0,0.0,0.0,0.0,0.0,0.0,0.0,0.0,0.0,0.0,0.0,0.0,0.0,0.0,0.0,0.0,0.0,0.0,0.0,0.0,0.0,0.0,0.0,0.0,0.0,0.0,0.0,0.0,0.0,0.0,0.0,0.0,0.0,0.0,0.0,0.0,0.0,0.0,0.0,0.0,0.0,0.0,0.0,0.0,0.0,0.0,0.0,0.0,0.0,0.0,0.0,0.0,0.0,0.0,0.0,0.0,0.0,0.0,0.0,0.0,0.0,0.0,0.0,0.0,0.0,0.0,0.0,0.0,0.0,0.0,0.0,0.0,0.0,0.0,0.0,0.0,0.0,0.0,0.0,0.0,0.0,0.0,0.0,0.0,0.0,0.0,0.0,0.0,0.0,0.0,0.0,0.0,0.0,0.0,0.0,0.0,0.0,0.0,0.0,0.0,0.0,0.0,0.0,0.0,0.0,0.0,0.0,0.0,0.0,0.0,0.0,0.0,0.0,0.0,0.0,0.0,0.0,0.0,0.0,0.0,0.0,0.0,0.0,0.0,0.0,0.0,0.0,0.0,0.0,0.0,0.0,0.0,0.0,0.0,0.0,0.0,0.0,0.0,0.0,0.0,0.0,0.0,0.0,0.0,0.0,0.0,0.0,0.0,0.0,0.0,0.0,0.0,0.0,0.0,0.0,0.0,0.0,0.0,0.0,0.0,0.0,0.0,0.0,0.0,0.0,0.0,0.0,0.0,0.0,0.0,0.0,0.0,0.0,0.0,0.0,0.0,0.0,0.0,0.0,0.0,0.0,0.0,0.0,0.0,0.0,0.0,0.0,0.0,0.0,0.0,0.0,0.0,0.0,0.0,0.0,0.0,0.0,0.0,0.0,0.0,0.0,0.0,0.0,0.0,0.0,0.0,0.0,0.0,0.0,0.0,0.0,0.0,0.0,0.0,0.0,0.0,0.0,0.0,0.0,0.0,0.0,0.0,0.0,0.0,0.0,0.0,0.0,0.0,0.0,0.0,0.0,0.0,0.0,0.0,0.0,0.0,0.0,0.0,0.0,0.0,0.0,0.0,0.0,0.0,0.0,0.0,0.0,0.0,0.0,0.0,0.0,0.0,0.0,0.0,0.0,0.0,0.0,0.0,0.0,0.0,0.0,0.0,0.0,0.0,0.0,0.0,0.0,0.0,0.0,0.0,0.0,0.0,0.0,0.0,0.0,0.0,0.0,0.0,0.0,0.0,0.0,0.0,0.0,0.0,0.0,0.0,0.0,0.0,0.0,0.0,0.0,0.0,0.0,0.0,0.0,0.0,0.0,0.0,0.0,0.0,0.0,0.0,0.0,0.0,0.0,0.0,0.0,0.0,0.0,0.0,0.0,0.0,0.0,0.0,0.0,0.0,0.0,0.0,0.0,0.0,0.0,0.0,0.0,0.0,0.0,0.0,0.0,0.0,0.0,0.0,0.0,0.0,0.0,0.0,0.0,0.0,0.0,0.0,0.0,0.0,0.0,0.0,0.0,0.0,0.0,0.0,0.0,0.0,0.0,0.0,0.0,0.0,0.0,0.0,0.0,0.0,0.0,0.0,0.0,0.0,0.0,0.0,0.0,0.0,0.0,0.0,0.0,0.0,0.0,0.0,0.0,0.0,0.0,0.0,0.0,0.0,0.0,0.0,0.0,0.0,0.0,0.0,0.0,0.0,0.0,0.0,0.0,0.0,0.0,0.0,0.0,0.0,0.0,0.0,0.0,0.0,0.0,0.0,0.0,0.0,0.0,0.0,0.0,0.0,0.0,0.0,0.0,0.0,0.0,0.0,0.0,0.0,0.0,0.0,0.0,0.0,0.0,0.0,0.0,0.0,0.0,0.0,0.0,0.0,0.0,0.0,0.0,0.0,0.0,0.0,0.0,0.0,0.0,0.0,0.0,0.0,0.0,0.0,0.0,0.0,0.0,0.0,0.0,0.0,0.0,0.0,0.0,0.0,0.0,0.0,0.0,0.0,0.0,0.0,0.0,0.0,0.0,0.0,0.0,0.0,0.0,0.0,0.0,0.0,0.0,0.0,0.0,0.0,0.0,0.0,0.0,0.0,0.0,0.0,0.0,0.0,0.0,0.0,0.0,0.0,0.0,0.0,0.0,0.0,0.0,0.0,0.0,0.0,0.0,0.0,0.0,0.0,0.0,0.0,0.0,0.0,0.0,0.0,0.0,0.0,0.0,0.0,0.0,0.0,0.0,0.0,0.0,0.0,0.0,0.0,0.0,0.0,0.0,0.0,0.0,0.0,0.0,0.0,0.0,0.0,0.0,0.0,0.0,0.0,0.0,0.0,0.0,0.0,0.0,0.0,0.0,1.5501,0.0,0.0,0.0,0.0,0.0,0.0,0.0,0.0,0.0,0.0,0.0,0.0,0.0,0.0,0.0,0.0,0.0,0.0,0.0,0.0,0.0,0.0,0.0,0.0,0.0,0.0,0.0,0.0,0.0,0.0,0.0,0.0,0.0,0.0,0.0,0.0,0.0,0.0,0.0,0.0,0.0,0.0,0.0,0.0,0.0,0.0,0.0,0.0,0.0,0.0,0.0,0.0,0.0,0.0,0.0,0.0,0.0,0.0,0.0,0.0,0.0,0.0,0.0,0.0,0.0,0.0,0.0,0.0,0.0,0.0,0.0,0.0,0.0,0.0,0.0,0.0,0.0,0.0,0.0,0.0,0.0,0.0,0.0,0.0,0.0,0.0,0.0,0.0,0.0,0.0,0.0,0.0,0.0,0.0,0.0,0.0,0.0,0.0,0.0,0.0,0.0,0.0,0.0,0.0,0.0,0.0,0.0,0.0,0.0,0.0,1.7462,1.7789,1.7479,1.6814,1.5811,0.0,0.0,0.0,0.0,0.0,0.0,0.0,0.0,0.0,0.0,0.0,0.0,0.0,0.0,0.0,0.0,0.0,0.0,0.0,0.0,0.0,0.0,0.0,0.0,0.0,0.0,0.0,0.0,0.0,0.0,0.0,0.0,0.0,0.0,0.0,0.0,0.0,0.0,0.0,0.0,0.0,0.0,0.0,0.0,0.0,0.0,0.0,0.0,0.0,0.0,0.0,0.0,0.0,0.0,0.0,0.0,0.0,0.0,0.0,0.0,0.0,0.0,0.0,0.0,0.0,0.0,0.0,0.0,0.0,0.0,0.0,0.0,0.0,0.0,0.0,0.0,0.0,0.0,0.0,0.0,0.0,0.0,0.0,0.0,0.0,0.0,0.0,0.0,0.0,0.0,0.0,0.0,0.0,0.0,0.0,0.0,0.0,0.0,0.0,0.0,0.0,0.0,0.0,0.0,0.0,0.0,0.0,0.0,0.0,0.0,0.0,0.0,1.7479,1.6837,1.586,0.0,0.0,0.0,0.0,0.0,0.0,0.0,0.0,0.0,0.0,0.0,0.0,0.0,0.0,0.0,0.0,0.0,0.0,0.0,0.0,0.0,0.0,0.0,0.0,0.0,0.0,0.0,0.0,0.0,0.0,0.0,0.0,0.0,0.0,0.0,0.0,0.0,0.0,0.0,0.0,0.0,0.0,0.0,0.0,0.0,0.0,0.0,0.0,0.0,0.0,0.0,0.0,0.0,0.0,0.0,0.0,0.0,0.0,0.0,0.0,0.0,0.0,0.0,0.0,0.0,0.0,0.0,0.0,0.0,0.0,0.0,0.0,0.0,0.0,0.0,0.0,0.0,0.0,0.0,0.0,0.0,0.0,0.0,0.0,0.0,0.0,0.0,0.0,0.0,0.0,0.0,0.0,0.0,0.0,0.0,0.0,0.0,0.0,0.0,0.0,0.0,0.0,0.0,0.0,0.0,0.0,0.0,0.0,0.0,0.0,1.7451,1.7777,1.7491,0.0,1.5683,0.0,0.0,0.0,0.0,0.0,0.0,0.0,0.0,0.0,0.0,0.0,0.0,0.0,0.0,0.0,0.0,0.0,0.0,0.0,0.0,0.0,0.0,0.0,0.0,0.0,0.0,0.0,0.0,0.0,0.0,0.0,0.0,0.0,0.0,0.0,0.0,0.0,0.0,0.0,0.0,0.0,0.0,0.0,0.0,0.0,0.0,0.0,0.0,0.0,0.0,0.0,0.0,0.0,0.0,0.0,0.0,0.0,0.0,0.0,0.0,0.0,0.0,0.0,0.0,0.0,0.0,0.0,0.0,0.0,0.0,0.0,0.0,0.0,0.0,0.0,0.0,0.0,0.0,0.0,0.0,0.0,0.0,0.0,0.0,0.0,0.0,0.0,0.0,0.0,0.0,0.0,0.0,0.0,0.0,0.0,0.0,0.0,0.0,0.0,0.0,0.0,0.0,0.0,0.0,0.0,0.0,0.0,0.0,0.0,0.0,1.7938,1.8029,1.7688,1.6953,0.0,0.0,0.0,0.0,0.0,0.0,0.0,0.0,0.0,0.0,0.0,0.0,0.0,0.0,0.0,0.0,0.0,0.0,0.0,0.0,0.0,0.0,0.0,0.0,0.0,0.0,0.0,0.0,0.0,0.0,0.0,0.0,0.0,0.0,0.0,0.0,0.0,0.0,0.0,0.0,0.0,0.0,0.0,0.0,0.0,0.0,0.0,0.0,0.0,0.0,0.0,0.0,0.0,0.0,0.0,0.0,0.0,0.0,0.0,0.0,0.0,0.0,0.0,0.0,0.0,0.0,0.0,0.0,0.0,0.0,0.0,0.0,0.0,0.0,0.0,0.0,0.0,0.0,0.0,0.0,0.0,0.0,0.0,0.0,0.0,0.0,0.0,0.0,0.0,0.0,0.0,0.0,0.0,0.0,0.0,0.0,0.0,0.0,0.0,0.0,0.0,0.0,0.0,0.0,0.0,0.0,0.0,0.0,0.0,0.0,1.8654,1.84,1.8288,1.8021,1.7284,1.6054,0.0,0.0,0.0,0.0,0.0,0.0,0.0,0.0,0.0,0.0,0.0,0.0,0.0,0.0,0.0,0.0,0.0,0.0,0.0,0.0,0.0,0.0,0.0,0.0,0.0,0.0,0.0,0.0,0.0,0.0,0.0,0.0,0.0,0.0,0.0,0.0,0.0,0.0,0.0,0.0,0.0,0.0,0.0,0.0,0.0,0.0,0.0,0.0,0.0,0.0,0.0,0.0,0.0,0.0,0.0,0.0,0.0,0.0,0.0,0.0,0.0,0.0,0.0,0.0,0.0,0.0,0.0,0.0,0.0,0.0,0.0,0.0,0.0,0.0,0.0,0.0,0.0,0.0,0.0,0.0,0.0,0.0,0.0,0.0,0.0,0.0,0.0,0.0,0.0,0.0,0.0,0.0,0.0,0.0,0.0,0.0,0.0,0.0,0.0,0.0,0.0,0.0,0.0,0.0,0.0,0.0,0.0,0.0,1.9201,1.8913,1.8708,1.8577,1.8569,1.7843,0.0,0.0,0.0,0.0,0.0,0.0,0.0,0.0,0.0,0.0,0.0,0.0,0.0,0.0,0.0,0.0,0.0,0.0,0.0,0.0,0.0,0.0,0.0,0.0,0.0,0.0,0.0,0.0,0.0,0.0,0.0,0.0,0.0,0.0,0.0,0.0,0.0,0.0,0.0,0.0,0.0,0.0,0.0,0.0,0.0,0.0,0.0,0.0,0.0,0.0,0.0,0.0,0.0,0.0,0.0,0.0,0.0,0.0,0.0,0.0,0.0,0.0,0.0,0.0,0.0,0.0,0.0,0.0,0.0,0.0,0.0,0.0,0.0,0.0,0.0,0.0,0.0,0.0,0.0,0.0,0.0,0.0,0.0,0.0,0.0,0.0,0.0,0.0,0.0,0.0,0.0,0.0,0.0,0.0,0.0,0.0,0.0,0.0,0.0,0.0,0.0,0.0,0.0,0.0,0.0,0.0,0.0,0.0,0.0,1.9271,1.8885,1.8805,1.9089,1.8864,1.7992,0.0,0.0,0.0,0.0,0.0,0.0,0.0,0.0,0.0,0.0,0.0,0.0,0.0,0.0,0.0,0.0,0.0,0.0,0.0,0.0,0.0,0.0,0.0,0.0,0.0,0.0,0.0,0.0,0.0,0.0,0.0,0.0,0.0,0.0,0.0,0.0,0.0,0.0,0.0,0.0,0.0,0.0,0.0,0.0,0.0,0.0,0.0,0.0,0.0,0.0,0.0,0.0,0.0,0.0,0.0,0.0,0.0,0.0,0.0,0.0,0.0,0.0,0.0,0.0,0.0,0.0,0.0,0.0,0.0,0.0,0.0,0.0,0.0,0.0,0.0,0.0,0.0,0.0,0.0,0.0,0.0,0.0,0.0,0.0,0.0,0.0,0.0,0.0,0.0,0.0,0.0,0.0,0.0,0.0,0.0,0.0,0.0,0.0,0.0,0.0,0.0,0.0,0.0,0.0,0.0,0.0,0.0,0.0,0.0,1.9394,0.0,1.8993,1.933,1.9046,1.8161,0.0,0.0,0.0,0.0,0.0,0.0,0.0,0.0,0.0,0.0,0.0,0.0,0.0,0.0,0.0,0.0,0.0,0.0,0.0,0.0,0.0,0.0,0.0,0.0,0.0,0.0,0.0,0.0,0.0,0.0,0.0,0.0,0.0,0.0,0.0,0.0,0.0,0.0,0.0,0.0,0.0,0.0,0.0,0.0,0.0,0.0,0.0,0.0,0.0,0.0,0.0,0.0,0.0,0.0,0.0,0.0,0.0,0.0,0.0,0.0,0.0,0.0,0.0,0.0,0.0,0.0,0.0,0.0,0.0,0.0,0.0,0.0,0.0,0.0,0.0,0.0,0.0,0.0,0.0,0.0,0.0,0.0,0.0,0.0,0.0,0.0,0.0,0.0,0.0,0.0,0.0,0.0,0.0,0.0,0.0,0.0,0.0,0.0,0.0,0.0,0.0,0.0,0.0,0.0,0.0,0.0,0.0,0.0,1.988,1.9616,1.9346,1.9228,1.9305,1.9115,1.835,0.0,0.0,0.0,0.0,0.0,0.0,0.0,0.0,0.0,0.0,0.0,0.0,0.0,0.0,0.0,0.0,0.0,0.0,0.0,0.0,0.0,0.0,0.0,0.0,0.0,0.0,0.0,0.0,0.0,0.0,0.0,0.0,0.0,0.0,0.0,0.0,0.0,0.0,0.0,0.0,0.0,0.0,0.0,0.0,0.0,0.0,0.0,0.0,0.0,0.0,0.0,0.0,0.0,0.0,0.0,0.0,0.0,0.0,0.0,0.0,0.0,0.0,0.0,0.0,0.0,0.0,0.0,0.0,0.0,0.0,0.0,0.0,0.0,0.0,0.0,0.0,0.0,0.0,0.0,0.0,0.0,0.0,0.0,0.0,0.0,0.0,0.0,0.0,0.0,0.0,0.0,0.0,0.0,0.0,0.0,0.0,0.0,0.0,0.0,0.0,0.0,0.0,0.0,0.0,0.0,0.0,0.0,0.0,0.0,1.9945,1.9644,1.9562,1.9688,1.9378,1.8738,0.0,0.0,0.0,0.0,0.0,0.0,0.0,0.0,0.0,0.0,0.0,0.0,0.0,0.0,0.0,0.0,0.0,0.0,0.0,0.0,0.0,0.0,0.0,0.0,0.0,0.0,0.0,0.0,0.0,0.0,0.0,0.0,0.0,0.0,0.0,0.0,0.0,0.0,0.0,0.0,0.0,0.0,0.0,0.0,0.0,0.0,0.0,0.0,0.0,0.0,0.0,0.0,0.0,0.0,0.0,0.0,0.0,0.0,0.0,0.0,0.0,0.0,0.0,0.0,0.0,0.0,0.0,0.0,0.0,0.0,0.0,0.0,0.0,0.0,0.0,0.0,0.0,0.0,0.0,0.0,0.0,0.0,0.0,0.0,0.0,0.0,0.0,0.0,0.0,0.0,0.0,0.0,0.0,0.0,0.0,0.0,0.0,0.0,0.0,0.0,0.0,0.0,0.0,0.0,0.0,0.0,0.0,0.0,0.0,2.0225,1.9911,1.9813,1.9924,1.9684,1.9142,1.8254,0.0,0.0,0.0,0.0,0.0,0.0,0.0,0.0,0.0,0.0,0.0,0.0,0.0,0.0,0.0,0.0,0.0,0.0,0.0,0.0,0.0,0.0,0.0,0.0,0.0,0.0,0.0,0.0,0.0,0.0,0.0,0.0,0.0,0.0,0.0,0.0,0.0,0.0,0.0,0.0,0.0,0.0,0.0,0.0,0.0,0.0,0.0,0.0,0.0,0.0,0.0,0.0,0.0,0.0,0.0,0.0,0.0,0.0,0.0,0.0,0.0,0.0,0.0,0.0,0.0,0.0,0.0,0.0,0.0,0.0,0.0,0.0,0.0,0.0,0.0,0.0,0.0,0.0,0.0,0.0,0.0,0.0,0.0,0.0,0.0,0.0,0.0,0.0,0.0,0.0,0.0,0.0,0.0,0.0,0.0,0.0,0.0,0.0,0.0,0.0,0.0,0.0,0.0,0.0,0.0,0.0,0.0,0.0,2.0408,2.0157,2.0007,2.0015,2.0012,1.9516,0.0,0.0,0.0,0.0,0.0,0.0,0.0,0.0,0.0,0.0,0.0,0.0,0.0,0.0,0.0,0.0,0.0,0.0,0.0,0.0,0.0,0.0,0.0,0.0,0.0,0.0,0.0,0.0,0.0,0.0,0.0,0.0,0.0,0.0,0.0,0.0,0.0,0.0,0.0,0.0,0.0,0.0,0.0,0.0,0.0,0.0,0.0,0.0,0.0,0.0,0.0,0.0,0.0,0.0,0.0,0.0,0.0,0.0,0.0,0.0,0.0,0.0,0.0,0.0,0.0,0.0,0.0,0.0,0.0,0.0,0.0,0.0,0.0,0.0,0.0,0.0,0.0,0.0,0.0,0.0,0.0,0.0,0.0,0.0,0.0,0.0,0.0,0.0,0.0,0.0,0.0,0.0,0.0,0.0,0.0,0.0,0.0,0.0,0.0,0.0,0.0,0.0,0.0,0.0,0.0,0.0,0.0,0.0,0.0,2.0447,2.0381,2.0292,2.0147,2.016,1.989,0.0,0.0,0.0,0.0,0.0,0.0,0.0,0.0,0.0,0.0,0.0,0.0,0.0,0.0,0.0,0.0,0.0,0.0,0.0,0.0,0.0,0.0,0.0,0.0,0.0,0.0,0.0,0.0,0.0,0.0,0.0,0.0,0.0,0.0,0.0,0.0,0.0,0.0,0.0,0.0,0.0,0.0,0.0,0.0,0.0,0.0,0.0,0.0,0.0,0.0,0.0,0.0,0.0,0.0,0.0,0.0,0.0,0.0,0.0,0.0,0.0,0.0,0.0,0.0,0.0,0.0,0.0,0.0,0.0,0.0,0.0,0.0,0.0,0.0,0.0,0.0,0.0,0.0,0.0,0.0,0.0,0.0,0.0,0.0,0.0,0.0,0.0,0.0,0.0,0.0,0.0,0.0,0.0,0.0,0.0,0.0,0.0,0.0,0.0,0.0,0.0,0.0,0.0,0.0,0.0,0.0,0.0,0.0,2.1491,1.9928,2.0298,2.0261,1.9732,2.0108,2.0103,0.0,0.0,0.0,0.0,0.0,0.0,0.0,0.0,0.0,0.0,0.0,0.0,0.0,0.0,0.0,0.0,0.0,0.0,0.0,0.0,0.0,0.0,0.0,0.0,0.0,0.0,0.0,0.0,0.0,0.0,0.0,0.0,0.0,0.0,0.0,0.0,0.0,0.0,0.0,0.0,0.0,0.0,0.0,0.0,0.0,0.0,0.0,0.0,0.0,0.0,0.0,0.0,0.0,0.0,0.0,0.0,0.0,0.0,0.0,0.0,0.0,0.0,0.0,0.0,0.0,0.0,0.0,0.0,0.0,0.0,0.0,0.0,0.0,0.0,0.0,0.0,0.0,0.0,0.0,0.0,0.0,0.0,0.0,0.0,0.0,0.0,0.0,0.0,0.0,0.0,0.0,0.0,0.0,0.0,0.0,0.0,0.0,0.0,0.0,0.0,0.0,0.0,0.0,0.0,0.0,0.0,0.0,0.0,2.1686,1.9289,1.9964,1.9966,1.9162,1.9946,2.023,0.0,0.0,0.0,0.0,0.0,0.0,0.0,0.0,0.0,0.0,0.0,0.0,0.0,0.0,0.0,0.0,0.0,0.0,0.0,0.0,0.0,0.0,0.0,0.0,0.0,0.0,0.0,0.0,0.0,0.0,0.0,0.0,0.0,0.0,0.0,0.0,0.0,0.0,0.0,0.0,0.0,0.0,0.0,0.0,0.0,0.0,0.0,0.0,0.0,0.0,0.0,0.0,0.0,0.0,0.0,0.0,0.0,0.0,0.0,0.0,0.0,0.0,0.0,0.0,0.0,0.0,0.0,0.0,0.0,0.0,0.0,0.0,0.0,0.0,0.0,0.0,0.0,0.0,0.0,0.0,0.0,0.0,0.0,0.0,0.0,0.0,0.0,0.0,0.0,0.0,0.0,0.0,0.0,0.0,0.0,0.0,0.0,0.0,0.0,0.0,0.0,0.0,0.0,0.0,0.0,0.0,0.0,0.0,2.1066,1.9269,1.9375,1.9352,1.9118,1.9882,2.0157,0.0,0.0,0.0,0.0,0.0,0.0,0.0,0.0,0.0,0.0,0.0,0.0,0.0,0.0,0.0,0.0,0.0,0.0,0.0,0.0,0.0,0.0,0.0,0.0,0.0,0.0,0.0,0.0,0.0,0.0,0.0,0.0,0.0,0.0,0.0,0.0,0.0,0.0,0.0,0.0,0.0,0.0,0.0,0.0,0.0,0.0,0.0,0.0,1.8512,0.0,0.0,0.0,0.0,0.0,0.0,0.0,0.0,0.0,0.0,0.0,0.0,0.0,0.0,0.0,0.0,0.0,0.0,0.0,0.0,0.0,0.0,0.0,0.0,0.0,0.0,0.0,0.0,0.0,0.0,0.0,0.0,0.0,0.0,0.0,0.0,0.0,0.0,0.0,0.0,0.0,0.0,0.0,0.0,0.0,0.0,0.0,0.0,0.0,0.0,0.0,0.0,0.0,0.0,0.0,0.0,0.0,0.0,0.0,2.0655,1.8691,1.8955,1.8925,1.8489,1.9256,1.9758,0.0,0.0,0.0,0.0,0.0,0.0,0.0,0.0,0.0,0.0,0.0,0.0,0.0,0.0,0.0,0.0,0.0,0.0,0.0,0.0,0.0,0.0,0.0,0.0,0.0,0.0,0.0,0.0,0.0,0.0,0.0,0.0,0.0,0.0,0.0,0.0,0.0,0.0,0.0,0.0,0.0,0.0,0.0,0.0,0.0,0.0,0.0,0.0,0.0,0.0,0.0,0.0,0.0,0.0,0.0,0.0,0.0,0.0,0.0,0.0,0.0,0.0,0.0,0.0,0.0,0.0,0.0,0.0,0.0,0.0,0.0,0.0,0.0,0.0,0.0,0.0,0.0,0.0,0.0,0.0,0.0,0.0,0.0,0.0,0.0,0.0,0.0,0.0,0.0,0.0,0.0,0.0,0.0,0.0,0.0,0.0,0.0,0.0,0.0,0.0,0.0,0.0,0.0,0.0,0.0,0.0,0.0,2.1884,2.0342,1.8226,1.8636,1.8559,1.7937,1.8486,1.9216,2.0002,0.0,0.0,0.0,0.0,0.0,0.0,0.0,0.0,0.0,0.0,0.0,0.0,0.0,0.0,0.0,0.0,0.0,0.0,0.0,0.0,0.0,0.0,0.0,0.0,0.0,0.0,0.0,0.0,0.0,0.0,0.0,0.0,0.0,0.0,0.0,0.0,0.0,0.0,1.4862,1.5182,0.0,0.0,0.0,0.0,0.0,0.0,0.0,0.0,1.833,0.0,0.0,0.0,0.0,0.0,0.0,0.0,0.0,0.0,0.0,0.0,0.0,0.0,0.0,0.0,0.0,0.0,0.0,0.0,0.0,0.0,0.0,0.0,0.0,0.0,0.0,0.0,0.0,0.0,0.0,0.0,0.0,0.0,0.0,0.0,0.0,0.0,0.0,0.0,0.0,0.0,0.0,0.0,0.0,0.0,0.0,0.0,0.0,0.0,0.0,0.0,0.0,0.0,0.0,0.0,0.0,2.1917,2.1057,2.0072,1.9016,1.8347,1.8258,1.8749,1.826,1.8715,2.013,0.0,0.0,0.0,0.0,0.0,0.0,0.0,0.0,0.0,0.0,0.0,0.0,0.0,0.0,0.0,0.0,0.0,0.0,0.0,0.0,0.0,0.0,0.0,0.0,0.0,0.0,0.0,0.0,0.0,0.0,0.0,0.0,0.0,0.0,0.0,0.0,0.0,0.0,0.0,1.5006,1.5014,0.0,0.0,0.0,0.0,0.0,0.0,0.0,0.0,1.7769,0.0,0.0,0.0,0.0,0.0,0.0,0.0,0.0,0.0,0.0,0.0,0.0,0.0,0.0,0.0,0.0,0.0,0.0,0.0,0.0,0.0,0.0,0.0,0.0,0.0,0.0,0.0,0.0,0.0,0.0,0.0,0.0,0.0,0.0,0.0,0.0,0.0,0.0,0.0,0.0,0.0,0.0,0.0,0.0,0.0,0.0,0.0,0.0,0.0,0.0,0.0,0.0,0.0,0.0,0.0,2.1643,2.0825,1.9992,1.9227,1.87,1.8407,1.8322,1.8384,1.8785,0.0,0.0,0.0,0.0,0.0,0.0,0.0,0.0,0.0,0.0,0.0,0.0,0.0,0.0,0.0,0.0,0.0,0.0,0.0,0.0,0.0,0.0,0.0,0.0,0.0,0.0,0.0,0.0,0.0,0.0,0.0,0.0,0.0,0.0,0.0,0.0,0.0,0.0,0.0,0.0,1.4817,1.4645,1.4802,0.0,0.0,0.0,0.0,0.0,0.0,1.6515,1.6998,0.0,0.0,0.0,0.0,0.0,0.0,0.0,0.0,0.0,0.0,0.0,0.0,0.0,0.0,0.0,0.0,0.0,0.0,0.0,0.0,0.0,0.0,0.0,0.0,0.0,0.0,0.0,0.0,0.0,0.0,0.0,0.0,0.0,0.0,0.0,0.0,0.0,0.0,0.0,0.0,0.0,0.0,0.0,0.0,0.0,0.0,0.0,0.0,0.0,0.0,0.0,0.0,0.0,0.0,0.0,2.1898,2.0875,2.0027,1.9441,1.9152,1.8757,1.8257,1.8757,1.9069,0.0,0.0,0.0,0.0,0.0,0.0,0.0,0.0,0.0,0.0,0.0,0.0,0.0,0.0,0.0,0.0,0.0,0.0,0.0,0.0,0.0,0.0,0.0,0.0,0.0,0.0,0.0,0.0,0.0,0.0,0.0,0.0,0.0,0.0,0.0,0.0,0.0,0.0,0.0,0.0,0.0,1.4649,1.4329,1.533,0.0,0.0,0.0,0.0,1.5789,1.5876,0.0,0.0,0.0,0.0,0.0,0.0,0.0,0.0,0.0,0.0,0.0,0.0,0.0,0.0,0.0,0.0,0.0,0.0,0.0,0.0,0.0,0.0,0.0,0.0,0.0,0.0,0.0,0.0,0.0,0.0,0.0,0.0,0.0,0.0,0.0,0.0,0.0,0.0,0.0,0.0,0.0,0.0,0.0,0.0,0.0,0.0,0.0,0.0,0.0,0.0,0.0,0.0,0.0,0.0,0.0,0.0,2.2682,2.1189,2.0337,2.015,1.9422,1.9304,1.9965,1.948,1.9483,0.0,0.0,0.0,0.0,0.0,0.0,0.0,0.0,0.0,0.0,0.0,0.0,0.0,0.0,0.0,0.0,0.0,0.0,0.0,0.0,0.0,0.0,0.0,0.0,0.0,0.0,0.0,0.0,0.0,0.0,0.0,0.0,0.0,0.0,0.0,0.0,0.0,0.0,0.0,0.0,0.0,1.5184,1.3948,1.4979,1.5551,0.0,0.0,1.503,1.4283,1.4755,0.0,0.0,0.0,0.0,0.0,0.0,0.0,0.0,0.0,0.0,0.0,0.0,0.0,0.0,0.0,0.0,0.0,0.0,0.0,0.0,0.0,0.0,0.0,0.0,0.0,0.0,0.0,0.0,0.0,0.0,0.0,0.0,0.0,0.0,0.0,0.0,0.0,0.0,0.0,0.0,0.0,0.0,0.0,0.0,0.0,0.0,0.0,0.0,0.0,0.0,0.0,0.0,0.0,0.0,0.0,2.2775,2.2165,2.1443,2.0826,2.0326,1.9933,1.9673,1.9565,1.9726,1.9712,0.0,0.0,0.0,0.0,0.0,0.0,0.0,0.0,0.0,0.0,0.0,0.0,0.0,0.0,0.0,0.0,0.0,0.0,0.0,0.0,0.0,0.0,0.0,0.0,0.0,0.0,0.0,0.0,0.0,0.0,0.0,0.0,0.0,0.0,0.0,0.0,0.0,0.0,0.0,0.0,0.0,0.0,1.3899,1.5067,0.0,0.0,0.0,1.5477,1.4705,0.0,0.0,0.0,0.0,0.0,0.0,0.0,0.0,0.0,0.0,0.0,0.0,0.0,0.0,0.0,0.0,0.0,0.0,0.0,0.0,0.0,0.0,0.0,0.0,0.0,0.0,0.0,0.0,0.0,0.0,0.0,0.0,0.0,0.0,0.0,0.0,0.0,0.0,0.0,0.0,0.0,0.0,0.0,0.0,0.0,0.0,0.0,0.0,0.0,0.0,0.0,0.0,0.0,0.0,0.0,0.0,0.0,2.1942,2.1711,2.1169,2.0337,2.0288,1.9985,1.9357,1.9964,0.0,0.0,0.0,0.0,0.0,0.0,0.0,0.0,0.0,0.0,0.0,0.0,0.0,0.0,0.0,0.0,0.0,0.0,0.0,0.0,0.0,0.0,0.0,0.0,0.0,0.0,0.0,1.5588,0.0,0.0,0.0,0.0,0.0,0.0,0.0,0.0,0.0,0.0,0.0,0.0,0.0,0.0,1.5401,1.4403,1.5446,1.6126,0.0,0.0,1.6001,1.5463,1.5578,1.5904,0.0,0.0,0.0,0.0,0.0,0.0,0.0,0.0,0.0,0.0,0.0,0.0,0.0,0.0,0.0,0.0,0.0,0.0,0.0,0.0,0.0,0.0,0.0,0.0,0.0,0.0,0.0,0.0,0.0,0.0,0.0,0.0,0.0,0.0,0.0,0.0,0.0,0.0,0.0,0.0,0.0,0.0,0.0,0.0,0.0,0.0,0.0,0.0,0.0,0.0,0.0,0.0,0.0,0.0,2.3647,2.2737,2.1986,2.1178,2.0342,2.0292,2.0288,2.0235,2.0266,2.0266,0.0,0.0,0.0,0.0,0.0,0.0,0.0,0.0,0.0,0.0,0.0,0.0,0.0,0.0,0.0,0.0,0.0,0.0,0.0,0.0,0.0,0.0,0.0,0.0,0.0,0.0,0.0,0.0,0.0,0.0,0.0,0.0,0.0,0.0,0.0,0.0,0.0,0.0,0.0,0.0,0.0,1.7107,1.5681,1.6221,1.6615,0.0,1.6163,1.6177,1.6138,1.6152,1.6302,1.6696,0.0,0.0,0.0,0.0,0.0,0.0,0.0,0.0,0.0,0.0,0.0,0.0,0.0,0.0,0.0,0.0,0.0,0.0,0.0,0.0,0.0,0.0,0.0,0.0,0.0,0.0,0.0,0.0,0.0,0.0,0.0,0.0,0.0,0.0,0.0,0.0,0.0,0.0,0.0,0.0,0.0,0.0,0.0,0.0,0.0,0.0,0.0,0.0,0.0,0.0,0.0,0.0,0.0,2.418,2.2836,2.2488,2.1679,2.0369,2.0288,2.0288,2.0288,2.0286,2.0289,0.0,0.0,0.0,0.0,0.0,0.0,0.0,0.0,0.0,0.0,0.0,0.0,0.0,0.0,0.0,0.0,0.0,0.0,0.0,0.0,0.0,0.0,0.0,0.0,0.0,0.0,0.0,0.0,1.9314,1.9493,1.9925,0.0,0.0,0.0,0.0,0.0,0.0,0.0,0.0,0.0,0.0,1.7926,1.6594,1.6758,0.0,0.0,1.7171,1.7164,1.6932,1.7636,1.8132,1.7834,1.8208,0.0,0.0,0.0,0.0,0.0,0.0,0.0,0.0,0.0,0.0,0.0,0.0,0.0,0.0,0.0,0.0,0.0,0.0,0.0,0.0,0.0,0.0,0.0,0.0,0.0,0.0,0.0,0.0,0.0,0.0,0.0,0.0,0.0,0.0,0.0,0.0,0.0,0.0,0.0,0.0,0.0,0.0,0.0,0.0,0.0,0.0,0.0,0.0,0.0,0.0,0.0,0.0,2.4619,2.3201,2.2947,2.2122,2.0673,2.0423,2.0288,2.0288,2.0297,2.0301,0.0,0.0,0.0,0.0,0.0,0.0,0.0,0.0,0.0,0.0,0.0,0.0,0.0,0.0,0.0,0.0,0.0,0.0,0.0,0.0,0.0,0.0,0.0,0.0,0.0,0.0,0.0,0.0,2.0879,2.0857,2.1211,0.0,0.0,0.0,0.0,0.0,0.0,0.0,0.0,0.0,0.0,1.9067,1.7811,1.7943,1.8286,1.8589,1.8662,1.8624,1.8431,1.9193,1.9584,1.8981,0.0,0.0,0.0,0.0,0.0,0.0,0.0,0.0,0.0,0.0,0.0,0.0,0.0,0.0,0.0,0.0,0.0,0.0,0.0,0.0,0.0,0.0,0.0,0.0,0.0,0.0,0.0,2.9077,0.0,0.0,2.728,0.0,0.0,0.0,0.0,0.0,0.0,0.0,0.0,0.0,0.0,0.0,0.0,0.0,0.0,0.0,0.0,0.0,0.0,0.0,0.0,0.0,0.0,2.4954,2.4076,2.3276,2.2448,2.1474,2.0712,2.0292,2.0288,2.0292,2.0292,2.0288,0.0,0.0,0.0,0.0,0.0,0.0,0.0,0.0,0.0,0.0,0.0,0.0,0.0,0.0,0.0,0.0,0.0,0.0,0.0,0.0,0.0,0.0,0.0,0.0,0.0,0.0,2.2002,2.2325,2.2431,0.0,0.0,0.0,0.0,0.0,0.0,0.0,0.0,0.0,1.976,2.055,2.0774,1.9465,1.9916,2.0476,2.0834,2.0641,2.0558,2.0827,2.0694,2.0373,0.0,0.0,0.0,0.0,0.0,0.0,0.0,0.0,0.0,0.0,0.0,0.0,0.0,0.0,0.0,0.0,0.0,0.0,0.0,0.0,0.0,0.0,0.0,0.0,0.0,0.0,0.0,3.0231,2.995,0.0,0.0,0.0,0.0,0.0,0.0,0.0,0.0,0.0,0.0,0.0,2.7644,2.8353,0.0,0.0,0.0,0.0,0.0,0.0,0.0,0.0,0.0,0.0,0.0,0.0,2.4992,2.4192,2.3378,2.2513,2.1581,2.0737,2.0297,2.0292,2.0288,2.0288,2.0288,0.0,0.0,0.0,0.0,0.0,0.0,0.0,0.0,0.0,0.0,0.0,0.0,0.0,0.0,0.0,0.0,0.0,0.0,0.0,0.0,0.0,0.0,0.0,0.0,0.0,2.3264,0.0,0.0,0.0,0.0,0.0,0.0,0.0,0.0,0.0,0.0,0.0,2.3231,2.2201,2.2468,2.2351,2.1235,2.1015,2.1145,0.0,0.0,0.0,0.0,0.0,0.0,0.0,0.0,0.0,0.0,0.0,0.0,0.0,0.0,2.3139,2.2317,2.2121,2.2172,2.2456,0.0,0.0,0.0,0.0,0.0,0.0,0.0,0.0,0.0,0.0,0.0,0.0,0.0,0.0,3.1269,3.1238,3.1016,0.0,0.0,0.0,0.0,0.0,0.0,0.0,0.0,2.982,2.9733,2.9066,2.9715,2.9589,2.885,2.849,2.8053,0.0,0.0,0.0,0.0,0.0,0.0,0.0,0.0,2.5216,2.4651,2.388,2.3164,2.2527,2.1388,2.0779,2.0805,2.0767,2.0885,2.1201,2.1182,2.1177,0.0,0.0,0.0,0.0,0.0,0.0,0.0,0.0,0.0,0.0,0.0,0.0,0.0,0.0,0.0,0.0,0.0,0.0,0.0,0.0,0.0,0.0,0.0,2.4277,0.0,0.0,0.0,0.0,0.0,0.0,0.0,0.0,0.0,2.4877,2.4876,2.4513,2.359,2.3793,2.3662,2.2673,0.0,0.0,0.0,0.0,0.0,0.0,0.0,2.4205,2.3712,2.3363,2.3334,2.3979,2.4423,2.4688,2.4688,0.0,0.0,2.3683,2.3409,2.3471,2.3747,2.35,2.356,2.4599,2.4219,2.3675,0.0,0.0,0.0,0.0,3.2772,0.0,0.0,0.0,3.2801,3.2852,0.0,3.2642,0.0,0.0,0.0,0.0,3.2219,3.2144,0.0,0.0,3.2542,3.2309,3.1724,3.1717,3.1306,3.0462,2.9613,2.924,2.9246,2.8473,0.0,0.0,0.0,0.0,0.0,0.0,2.5603,2.552,2.4769,2.4364,2.4239,2.2621,2.1724,2.1737,2.1671,2.2043,2.2827,2.2798,2.2787,2.2782,2.2707,0.0,0.0,0.0,0.0,0.0,0.0,0.0,0.0,0.0,0.0,0.0,0.0,0.0,0.0,0.0,0.0,0.0,0.0,0.0,0.0,2.4493,0.0,0.0,0.0,0.0,0.0,0.0,0.0,0.0,0.0,2.5354,2.5118,2.5059,2.4729,2.3938,0.0,0.0,0.0,0.0,2.4412,2.4718,2.4545,2.4455,2.4772,2.4575,2.4362,2.4362,0.0,0.0,2.4749,2.5442,2.5914,2.5944,2.6469,2.6537,2.4663,2.4572,2.4775,2.4766,2.4721,2.4792,2.4825,2.4733,2.4484,3.8144,0.0,0.0,0.0,0.0,3.4064,3.3499,3.2963,3.3014,3.3069,3.3107,3.304,0.0,0.0,0.0,0.0,0.0,0.0,3.2816,3.3022,3.3027,3.2899,3.2706,3.274,3.2551,3.2147,3.1399,3.1062,3.1082,3.0257,2.925,2.8103,0.0,0.0,0.0,0.0,2.6516,2.643,2.5109,2.4387,2.4365,2.3271,2.2674,2.2625,2.2607,2.2714,2.295,2.295,2.2912,2.2884,2.2845,0.0,0.0,0.0,0.0,0.0,0.0,0.0,0.0,0.0,0.0,0.0,0.0,0.0,0.0,0.0,0.0,0.0,0.0,0.0,2.6602,2.6354,2.6425,0.0,0.0,0.0,0.0,0.0,0.0,0.0,0.0,0.0,2.6274,2.5744,2.5212,0.0,0.0,2.5194,2.4704,2.4763,2.4883,2.4943,2.526,0.0,2.5627,2.5578,2.5512,2.5512,2.5039,2.47,2.4797,2.5114,2.5359,2.5378,2.5683,2.5785,2.5331,2.5436,2.5485,2.5088,2.4937,2.4993,2.5107,2.4714,2.4251,4.0961,3.9914,3.8106,3.705,3.6524,3.6009,3.5546,3.5169,3.515,3.5185,3.5217,3.5217,3.5022,3.4714,3.4714,0.0,0.0,0.0,3.4602,3.4705,3.4354,3.3994,3.367,3.3689,3.346,3.2997,3.257,3.2375,3.2399,3.1924,3.1159,3.0148,0.0,2.873,2.8634,2.7851,2.7453,2.7395,2.6132,2.5429,2.5405,2.4232,2.3602,2.3551,2.3535,2.3681,2.4034,2.4347,2.4494,2.4452,2.4774,2.4638,0.0,0.0,0.0,0.0,0.0,0.0,0.0,0.0,0.0,0.0,0.0,2.3484,2.387,0.0,0.0,0.0,2.6613,2.719,2.789,2.7475,0.0,0.0,0.0,0.0,0.0,0.0,0.0,2.863,2.7903,2.7317,2.7342,2.6911,2.6293,2.544,2.5407,2.544,2.5278,0.0,2.5206,2.5168,2.5479,2.5735,2.5735,2.5716,2.5741,2.5722,2.5361,2.521,2.5514,2.5414,2.5376,2.5654,2.5631,2.551,2.551,2.5668,2.5691,2.5298,2.5201,2.5243,2.5364,2.4718,2.4057,4.3162,4.2816,3.9719,3.8414,3.8391,3.8271,3.8222,3.8299,3.8283,3.8306,3.8332,3.8332,3.7867,3.7111,3.7111,0.0,3.8293,3.7488,3.706,3.6979,3.6197,3.5376,3.4633,3.4619,3.4191,3.3403,3.3354,3.3298,3.3298,3.3294,3.3296,3.324,3.1032,2.986,2.9784,2.8942,2.8516,2.8496,2.7578,2.7109,2.707,2.5547,2.4727,2.4727,2.4639,2.4999,2.578,2.6511,2.6911,2.6921,2.767,2.7371,2.5851,0.0,0.0,0.0,0.0,0.0,0.0,0.0,0.0,0.0,0.0,0.0,0.0,0.0,0.0,0.0,2.7492,0.0,2.821,2.816,0.0,0.0,0.0,2.8138,2.8291,2.8252,2.8235,2.8298,0.0,0.0,2.8321,2.8298,2.7672,2.595,2.5721,2.5719,2.5717,2.5715,2.5617,2.5703,2.5605,2.5558,2.575,2.5712,2.575,2.5755,2.5514,2.582,2.6412,2.5993,2.5902,2.6593,2.6089,2.5568,2.5604,2.5619,2.5524,2.5522,2.5491,2.5506,2.5462,2.4815,2.3993,4.3662,4.3047,4.222,4.1217,3.9998,3.8775,3.8325,3.8367,3.8367,3.8429,3.8528,3.8528,3.8411,3.8216,3.8217,3.8314,3.8508,3.8313,3.7864,3.7239,3.7024,3.6447,3.5596,3.5608,3.5456,3.5078,3.4528,3.4273,3.4228,3.3619,3.3326,3.3338,3.2773,3.248,3.2421,3.0996,3.0273,3.0293,2.8769,2.7988,2.7969,2.7578,2.7383,2.7383,2.7363,2.744,2.7655,2.7829,2.7887,2.7812,2.7996,2.7889,2.7431,2.7594,0.0,0.0,0.0,0.0,0.0,0.0,0.0,0.0,0.0,2.5964,2.6014,0.0,2.7894,0.0,2.9453,2.9972,2.9992,2.9434,0.0,0.0,2.8848,2.86,2.9852,2.9466,2.935,3.0017,2.9559,2.9202,2.9256,2.8711,2.8144,2.7691,2.7637,2.7608,2.7569,2.7557,2.7515,2.7437,2.737,2.7442,2.7355,2.7423,2.7397,2.7439,2.6907,2.6565,2.674,2.6126,2.5843,2.6628,2.6196,2.597,2.6523,2.6127,2.5703,2.5638,2.5566,2.551,2.5491,2.4834,2.4036,4.4613,4.4198,4.3933,4.3303,4.2378,4.1096,4.0393,4.0137,4.016,4.0015,3.9766,3.9746,3.9746,3.9746,3.9746,3.9746,3.9726,3.9355,3.8926,3.8457,3.8047,3.7616,3.71,3.7147,3.689,3.6407,3.6001,3.5597,3.5204,3.4738,3.4509,3.457,3.4551,3.457,3.4473,3.25,3.1484,3.1465,2.9766,2.8691,2.8301,2.8281,2.83,2.8256,2.8256,2.8251,2.8218,2.8548,2.8723,2.8657,2.8971,2.8965,2.8562,2.855,2.8182,0.0,0.0,0.0,0.0,0.0,0.0,0.0,0.0,0.0,0.0,0.0,2.9716,3.0984,3.151,3.1774,3.1804,3.1049,3.0765,3.1251,3.0147,2.9718,3.0629,3.0336,3.0268,3.0732,3.0382,3.0131,3.0156,2.9766,2.9609,2.998,3.0039,2.9589,2.8472,2.8209,2.8175,2.8154,2.8115,2.8116,2.8116,2.8116,2.8116,2.808,2.7725,2.7544,2.7899,2.736,2.7083,2.7846,2.742,2.7012,2.7441,2.6875,2.6289,2.623,2.591,2.5619,2.5576,2.4914,2.4174,4.5902,4.586,4.525,4.4992,4.4914,4.4098,4.3263,4.2467,4.2536,4.2187,4.1523,4.1523,4.1465,4.1348,4.1348,4.1289,4.1152,4.041,4.0,3.9863,3.9121,3.8711,3.8613,3.8613,3.8203,3.748,3.7461,3.7012,3.6172,3.6152,3.6094,3.6016,3.6016,3.6016,3.5898,3.3672,3.2461,3.2344,3.0762,2.9609,2.8965,2.8847,2.8783,2.8858,2.885,2.8803,2.8779,2.9424,2.979,2.9797,3.0444,3.0475,2.9721,2.9669,2.9236,0.0,2.8376,0.0,0.0,0.0,0.0,0.0,0.0,0.0,0.0,3.0005,3.1641,3.3122,3.3237,3.3258,3.3299,3.2636,3.2215,3.2324,3.168,3.123,3.1211,3.1211,3.1211,3.121,3.121,3.121,3.1211,3.1208,3.1523,3.207,3.2187,3.1465,2.9551,2.9116,2.9126,2.8871,2.8808,2.9188,2.893,2.8768,2.8731,2.8577,2.8424,2.8636,2.9301,2.8766,2.8535,2.9238,2.875,2.8301,2.8418,2.7754,2.7207,2.7148,2.6621,2.6074,2.5723,2.5137,2.457,4.7625,4.7556,4.6864,4.6565,4.6512,4.5873,4.4756,4.3436,4.3457,4.3379,4.3223,4.3242,4.2832,4.2207,4.2187,4.1816,4.1211,4.1035,4.0586,3.9883,3.9746,3.9277,3.8613,3.8613,3.8516,3.8359,3.8359,3.791,3.707,3.7051,3.6699,3.6035,3.6016,3.6016,3.5937,0.0,0.0,0.0,3.2207,3.1934,3.2383,3.1687,3.163,3.2287,3.2299,0.0,3.2244,3.2399,3.2423,3.2318,3.245,0.0,0.0,0.0,0.0,0.0,0.0,0.0,0.0,0.0,0.0,0.0,3.2445,3.1732,3.0468,3.1882,3.3024,3.3336,3.3355,3.3376,3.3378,3.3241,3.3144,3.3164,3.3008,3.293,3.293,3.2891,3.2908,3.285,3.2826,3.2812,3.2694,3.2775,3.2818,3.3036,3.308,3.2916,3.248,3.2265,3.2343,3.2402,3.2129,3.2051,3.1521,3.1348,3.1016,3.0544,2.9744,2.9473,2.957,2.8945,2.8633,2.9453,2.8887,2.8594,2.9199,2.8633,2.8047,2.8066,2.7891,2.7363,2.6016,2.5542,2.516,4.8096,4.8066,4.7755,4.7676,0.0,4.7483,4.6721,4.5566,4.4707,4.4101,4.3711,4.3711,4.3457,4.3047,4.3047,4.2832,4.2441,4.2441,4.2207,4.1758,4.1328,4.0898,4.0469,4.0059,3.9648,3.9258,3.9238,3.8769,3.7988,3.793,3.7715,3.7266,3.7266,3.7285,3.7266,3.6426,3.5137,3.3418,3.2988,3.2987,3.3311,3.2883,3.2805,3.3129,3.3134,0.0,0.0,0.0,0.0,0.0,0.0,0.0,0.0,0.0,0.0,3.1809,3.2204,3.229,3.1905,3.2294,3.2775,3.3221,3.371,3.3627,3.2788,3.3534,3.4219,3.4629,3.4687,3.4687,3.4668,3.4316,3.4043,3.4004,3.3652,3.3378,3.3352,3.335,3.3338,3.3273,3.3239,3.3243,3.32,3.3193,3.3427,3.3818,3.3904,3.4053,3.436,3.3861,3.3398,3.3379,3.3379,3.3242,3.291,3.2793,3.2695,3.2129,3.1445,3.0957,3.0879,3.0156,2.9746,3.0137,2.9863,2.9766,3.0039,2.9531,2.8945,2.8906,2.8594,2.791,2.6621,2.6326,2.6007,4.8548,4.8547,4.8528,4.858,4.8696,4.8701,4.8379,4.7715,4.5976,0.0,0.0,4.416,4.4062,4.3945,4.3926,4.3848,4.3711,4.3711,4.3711,4.3652,4.2793,4.2383,4.2363,4.1562,4.084,4.0156,4.0137,3.9687,3.8848,3.8828,3.873,3.8613,3.8613,3.8613,3.8555,3.7891,3.6406,3.4199,3.3789,3.3669,3.3764,3.361,3.351,3.3485,3.3476,3.3434,3.3389,3.3388,3.3406,3.3386,3.3386,3.3386,3.3392,3.351,3.3492,3.3365,3.3553,3.3601,3.3465,3.3654,3.3772,3.3772,3.449,3.4863,3.4726,3.4824,3.5234,3.5937,3.6016,3.5996,3.5996,3.5371,3.4922,3.4902,3.4277,3.3841,3.3776,3.3741,3.3773,3.364,3.3697,3.3627,3.3681,3.3677,3.3856,3.4517,3.4699,3.4888,3.5386,3.4647,3.3945,3.3945,3.4004,3.3828,3.3633,3.3594,3.355,3.3242,3.2598,3.2186,3.2049,3.1484,3.0976,3.082,3.0918,3.0859,3.082,3.0293,2.9863,2.9824,2.9258,2.8496,2.7695,2.7324,2.6875,5.0327,5.0288,4.9687,4.941,4.9407,4.8908,4.8712,4.8555,4.6875,4.6035,4.5937,4.5937,4.5508,4.4824,4.4824,4.4414,4.3711,4.3711,4.3711,4.3652,4.2812,4.2383,4.2344,4.1582,4.1152,4.1016,4.1016,4.0586,3.9805,3.9707,3.9336,3.8711,3.8613,3.8633,3.8594,3.8476,3.7871,3.6758,3.5293,3.4883,3.5585,3.4788,3.4656,3.5274,3.5242,3.5232,3.5236,3.5264,3.5298,3.5317,3.5298,3.5298,3.5317,3.527,3.5048,3.4416,3.5064,3.5194,3.4479,3.517,3.5624,3.5624,3.5742,3.5508,3.4785,3.5391,3.5859,3.5996,3.6016,3.6016,3.5996,3.5879,3.5762,3.5781,3.5655,3.5537,3.543,3.5329,3.5235,3.5146,3.5263,3.5173,3.5038,3.5065,3.5106,3.5373,3.5321,3.5494,3.5574,3.5548,3.5407,3.5388,3.5368,3.5073,3.4522,3.4353,3.4108,3.3331,3.2641,3.2139,3.2158,3.1437,3.0937,3.0898,3.0898,3.0898,3.0879,3.084,3.0625,3.0586,3.0371,3.0059,2.9121,2.8398,2.7459,5.0825,5.0758,5.0375,5.024,5.0271,4.9644,4.9493,4.9433,4.7754,4.7012,4.6953,4.6523,4.6074,4.5723,4.5703,4.5488,4.5117,4.5117,4.5117,4.5039,4.4219,4.3828,4.373,4.2949,4.2305,4.1875,4.1855,4.1426,4.0684,4.0605,4.0391,4.0019,4.0,4.0019,3.998,3.9551,3.8887,3.8008,3.6738,3.6054,3.5927,3.5502,3.5416,3.5707,3.5659,3.5655,3.5655,3.5682,3.5703,3.5703,3.5703,3.5703,3.5707,3.5766,3.5651,3.5305,3.568,3.5794,3.5386,3.5761,3.6016,3.6016,3.6445,3.6328,3.5469,3.5762,3.6016,3.6016,3.6016,3.6016,3.6016,3.6016,3.6016,3.6016,3.5944,3.5873,3.5797,3.5702,3.5626,3.5556,3.5546,3.5534,3.5488,3.55,3.5501,3.5553,3.5546,3.5562,3.559,3.5595,3.5611,3.5682,3.5703,3.5548,3.5194,3.5155,3.4961,3.4607,3.3487,3.2766,3.2557,3.167,3.0861,3.0726,3.0746,3.0746,3.0749,3.0723,3.0726,3.0728,3.0726,3.0278,2.9109,2.7764,2.6555,5.0925,5.0894,5.0791,5.083,5.0914,5.0447,5.0323,5.0312,4.8828,4.8183,4.8027,4.6875,4.6289,4.6289,4.6289,4.6289,4.6289,4.6289,4.6289,4.6211,4.5391,4.5019,4.4922,4.4101,4.3242,4.248,4.2383,4.1973,4.1269,4.1191,4.1191,4.1152,4.115,4.1129,4.1086,4.0441,3.9659,3.8839,3.818,3.722,3.5975,3.5907,3.5819,3.5713,3.5723,3.5746,3.571,3.5741,3.576,3.578,3.5955,3.6072,3.6075,3.6348,3.6424,3.6251,3.6266,3.6289,3.6289,3.6289,3.6367,3.6582,3.7207,3.7305,3.668,3.6601,3.6484,3.6348,3.6523,3.6641,3.668,3.6641,3.6582,3.6601,3.6484,3.6375,3.6041,3.5897,3.573,3.5585,3.55,3.5507,3.55,3.55,3.5507,3.5507,3.55,3.55,3.55,3.55,3.5552,3.5621,3.5655,3.5622,3.5655,3.5627,3.5603,3.5635,3.4408,3.3483,3.2988,3.1829,3.0898,3.0731,3.0611,3.0617,3.0609,3.0611,3.0517,3.035,3.0255,2.9758,2.8128,2.6943,2.5821,5.1016,5.0896,5.0886,5.0972,5.1054,5.1006,5.1068,5.1133,5.0312,4.9961,4.9648,4.7383,4.6348,4.6289,4.6308,4.6289,4.6289,4.6289,4.6289,4.6211,4.541,4.5019,4.498,4.416,4.3242,4.2539,4.2461,4.2051,4.1289,4.1211,4.1129,4.1026,4.1021,4.0962,4.0822,4.0753,4.0301,3.9535,3.9489,3.8341,3.6151,3.594,3.5838,3.571,3.5848,3.5814,3.5807,3.5875,3.5975,3.6034,3.6756,3.7168,3.7226,3.7891,3.7969,3.7226,3.7187,3.7187,3.7187,3.7187,3.75,3.8262,3.8398,3.8418,3.8301,3.834,3.8008,3.7519,3.791,3.8203,3.834,3.8281,3.8184,3.8105,3.8003,3.778,3.7035,3.6707,3.6329,3.5565,3.5654,3.55,3.5538,3.55,3.55,3.55,3.55,3.55,3.55,3.5481,3.5488,3.5522,3.5522,3.5534,3.5522,3.5515,3.554,3.5457,3.4781,3.3911,3.3112,3.2318,3.1547,3.0687,3.0584,3.0578,3.0587,3.0583,3.036,2.9911,2.959,2.8988,2.7461,2.6673,2.6247,5.0997,5.0996,5.0932,5.0994,5.1144,5.1154,5.1252,5.1308,5.0527,5.0195,5.0,4.8516,4.7558,4.7051,4.6543,4.6289,4.6289,4.6289,4.6289,4.6269,4.5918,4.5762,4.5723,4.543,4.4766,4.3926,4.3418,4.2734,4.1973,4.1445,4.1148,4.1,4.0996,4.0925,4.0805,4.0797,4.0408,3.9645,3.9643,3.8879,3.7554,3.7357,3.7353,3.7291,3.7292,3.7306,3.7244,3.7355,3.7426,3.7447,3.783,3.8066,3.8066,3.8398,3.8457,3.8086,3.8066,3.8066,3.8047,3.8066,3.8223,3.8594,3.9082,3.916,3.8711,3.9512,3.9785,3.9004,3.8691,3.8613,3.8633,3.8613,3.8613,3.8574,3.8424,3.8155,3.7824,3.758,3.7142,3.6404,3.6654,3.6519,3.575,3.55,3.55,3.55,3.55,3.5577,3.5519,3.55,3.55,3.55,3.55,3.55,3.55,3.55,3.55,3.536,3.4802,3.3965,3.3114,3.2287,3.1483,3.0641,3.0515,3.0476,3.0467,3.0482,3.0327,2.9799,2.8889,2.8115,2.6916,2.6277,2.579,5.1016,5.1088,5.0991,5.1045,5.1201,5.1204,5.1271,5.1328,5.0781,5.0527,5.0449,4.9629,4.8926,4.8223,4.7168,4.6543,4.6308,4.6289,4.6289,4.6289,4.6289,4.6289,4.6289,4.6289,4.584,4.498,4.4101,4.3125,4.2148,4.1777,4.1362,4.1041,4.0959,4.0893,4.0779,4.0743,4.0427,3.9917,3.9888,3.9589,3.9062,3.9023,3.8831,3.8399,3.8325,3.8321,3.8299,3.8361,3.8403,3.8454,3.8767,3.8945,3.8965,3.918,3.9219,3.8945,3.873,3.8711,3.8926,3.8945,3.9062,3.9316,3.9922,4.0,3.9687,4.0488,4.0859,4.0332,3.9687,3.9375,3.9316,3.9316,3.9297,3.9254,3.9092,3.8926,3.8628,3.8453,3.8007,3.7296,3.7507,3.7603,3.6519,3.625,3.6308,3.6308,3.625,3.6173,3.6115,3.6058,3.5865,3.5808,3.5673,3.55,3.55,3.55,3.55,3.5404,3.4917,3.425,3.3218,3.2372,3.1506,3.0835,3.0581,3.0396,3.0422,3.0419,3.0229,2.9775,2.8824,2.7565,2.6757,2.5914,2.5452,5.1089,5.1089,5.1084,5.1141,5.1204,5.1206,5.1271,5.1387,5.1328,5.1328,5.1191,5.0508,5.0117,4.9863,4.832,4.7109,4.6406,4.6308,4.6289,4.6289,4.6289,4.6289,4.6289,4.6289,4.5859,4.5098,4.4238,4.2988,4.1543,4.2012,4.1871,4.1094,4.1039,4.0876,4.0854,4.0777,4.0542,4.0619,4.0629,4.0634,4.0625,4.0645,3.9812,3.8477,3.8338,3.8492,3.8406,3.8402,3.8513,3.8613,3.9414,3.9844,3.9922,4.0586,4.0625,3.9902,3.9121,3.9023,3.9707,3.9844,4.0137,4.0859,4.0976,4.1074,4.0859,4.1035,4.1113,4.1113,4.0898,4.0859,4.0859,4.0742,4.0797,4.0714,4.0682,4.0192,3.9444,3.9283,3.8857,3.8142,3.7969,3.795,3.7834,3.7892,3.7719,3.77,3.7796,3.7719,3.7546,3.7084,3.6719,3.6444,3.6059,3.5526,3.5514,3.5509,3.5515,3.5463,3.5252,3.4783,3.3718,3.2679,3.1788,3.1,3.0596,3.0404,3.0404,3.0231,2.9948,2.9352,2.8255,2.7198,2.7005,2.5981,2.5558,5.1411,5.1118,5.1136,5.1223,5.1321,5.1342,5.1365,5.1387,5.1387,5.1387,5.1348,5.1094,5.0683,5.0156,4.9551,4.8496,4.7148,4.6562,4.6289,4.6289,4.6289,4.6289,4.6289,4.6289,4.6172,4.5742,4.4961,4.3945,4.2949,4.3105,4.3042,4.2742,4.2617,4.2546,4.2422,4.2297,4.2215,4.2163,4.1716,4.1448,4.1498,4.1071,4.0446,3.9891,3.9894,3.9935,3.9902,4.0006,4.0086,4.0139,4.0544,4.0742,4.0762,4.1016,4.1074,4.0762,4.0449,4.0391,4.0664,4.0723,4.084,4.1133,4.1191,4.1191,4.1191,4.1127,4.1077,4.1074,4.099,4.0952,4.0959,4.1023,4.1052,4.099,4.084,4.061,4.0304,4.0112,3.9738,3.895,3.8392,3.82,3.8611,3.8354,3.8007,3.8007,3.8007,3.806,3.7995,3.768,3.7409,3.6935,3.6572,3.6201,3.5626,3.5585,3.5574,3.5574,3.5355,3.4557,3.3601,3.3019,3.2218,3.1019,3.0558,3.0404,3.0404,3.0365,3.0,2.9371,2.8222,2.7755,2.7544,2.6717,2.6288,5.2016,5.1536,5.1822,5.1713,5.1381,5.1654,5.1618,5.1426,5.1387,5.1387,5.1387,5.1387,5.1094,5.0605,5.0312,4.9609,4.8359,4.7285,4.6582,4.6328,4.6289,4.6289,4.6289,4.6289,4.6289,4.6211,4.5723,4.4844,4.3848,4.3984,4.3945,4.3637,4.3624,4.3558,4.3461,4.334,4.3269,4.3111,4.2641,4.2272,4.2053,4.1591,4.1156,4.0959,4.0925,4.0911,4.087,4.0935,4.1042,4.1058,4.115,4.1191,4.1191,4.1191,4.1191,4.1191,4.1191,4.1191,4.1191,4.1191,4.1191,4.1191,4.1152,4.1129,4.1127,4.1,4.0952,4.0914,4.0864,4.0797,4.0824,4.0873,4.0909,4.0877,4.0772,4.068,4.0643,4.0559,4.0235,3.9773,3.9311,3.9254,3.9507,3.9212,3.9007,3.8883,3.8878,3.8897,3.8903,3.8639,3.8237,3.7497,3.709,3.6541,3.5999,3.5751,3.5636,3.5631,3.5581,3.469,3.3845,3.3301,3.2487,3.1275,3.0615,3.0462,3.0404,3.0404,3.0077,2.9583,2.905,2.8511,2.8107,2.7607,2.714,5.2868,5.23,5.3157,5.2652,5.1645,5.2208,5.2104,5.1641,5.1484,5.1504,5.1543,5.1426,5.1328,5.1191,5.0625,5.0176,4.9707,4.8398,4.7324,4.6621,4.6543,4.6523,4.6543,4.6484,4.6367,4.6308,4.6289,4.541,4.4062,4.4629,4.4629,4.3926,4.3911,4.3954,4.3693,4.3728,4.3561,4.3572,4.3482,4.3077,4.2414,4.2336,4.2007,4.1445,4.1367,4.1301,4.1076,4.1019,4.1077,4.1172,4.1191,4.1191,4.1191,4.1191,4.123,4.1289,4.1269,4.125,4.1328,4.1406,4.1504,4.1483,4.1235,4.1332,4.1339,4.1166,4.1089,4.1124,4.1069,4.0967,4.0984,4.0999,4.0945,4.0723,4.0788,4.0636,4.0634,4.0523,4.0496,4.0416,4.0325,4.0552,4.0544,4.0384,4.0317,4.0298,4.0386,4.0388,4.0267,3.985,3.9245,3.842,3.7708,3.703,3.6428,3.5896,3.5778,3.5666,3.5601,3.5141,3.4248,3.3571,3.2795,3.1679,3.0673,3.0481,3.0404,3.0404,3.0404,2.9987,2.9563,2.9261,2.8948,2.8486,2.7775,5.3161,5.3031,5.3323,5.3248,5.2883,5.3141,5.3104,5.2843,5.2301,5.208,5.2038,5.1538,5.1318,5.1348,5.1113,5.0723,5.0176,4.957,4.8906,4.8203,4.8066,4.8027,4.793,4.7441,4.6894,4.6387,4.6289,4.6055,4.5605,4.5742,4.5723,4.5527,4.543,4.5465,4.5385,4.5315,4.5265,4.5178,4.4623,4.4166,4.3975,4.3476,4.3088,4.2949,4.291,4.2636,4.1988,4.1442,4.117,4.1211,4.1191,4.1191,4.1191,4.1191,4.1465,4.1953,4.2031,4.2344,4.2832,4.2891,4.2829,4.2815,4.2776,4.2763,4.2665,4.2486,4.2374,4.2396,4.2415,4.2381,4.2386,4.2377,4.2121,4.1628,4.0983,4.088,4.1243,4.0881,4.0554,4.0496,4.0549,4.0549,4.0534,4.0584,4.0617,4.059,4.0678,4.0707,4.0583,4.0484,4.0078,3.9295,3.8463,3.7598,3.6934,3.6348,3.6034,3.5824,3.5667,3.5495,3.4662,3.3878,3.3064,3.2025,3.1058,3.05,3.0423,3.0404,3.0404,3.0404,3.0058,2.991,2.989,2.9371,2.8621,5.3986,5.3855,5.4125,5.3941,5.3612,5.3851,5.3849,5.3505,5.2654,5.2379,5.2297,5.1591,5.127,5.1367,5.1387,5.1113,5.0664,5.0625,5.0351,4.9726,4.9082,4.8906,4.8848,4.8379,4.7617,4.6933,4.6797,4.6601,4.6289,4.6289,4.6289,4.6289,4.6289,4.6269,4.6289,4.6205,4.6174,4.6092,4.5584,4.515,4.4842,4.4399,4.3978,4.375,4.3691,4.3262,4.2461,4.1894,4.1504,4.1269,4.1191,4.1191,4.1211,4.1465,4.1875,4.2305,4.2734,4.3125,4.3589,4.3555,4.3612,4.3543,4.3481,4.3412,4.332,4.3208,4.3153,4.3151,4.3096,4.3085,4.3074,4.3085,4.2977,4.29,4.2075,4.1747,4.2066,4.1508,4.1046,4.0966,4.0776,4.0595,4.05,4.0578,4.0597,4.059,4.0666,4.0767,4.0685,4.0762,4.035,3.9905,3.9325,3.8398,3.7441,3.6855,3.6367,3.6038,3.5777,3.5534,3.5002,3.434,3.359,3.2141,3.1,3.0538,3.0404,3.0404,3.0404,3.0404,3.0404,3.0288,3.0135,3.0006,2.941,5.5241,5.4703,5.5357,5.4834,5.3831,5.4431,5.442,5.3707,5.2772,5.2495,5.2415,5.1612,5.1265,5.1367,5.1387,5.1328,5.1367,5.1289,5.125,5.082,4.9941,4.9238,4.9101,4.9004,4.8437,4.7598,4.75,4.709,4.6328,4.6289,4.6289,4.6289,4.6289,4.6289,4.6289,4.6289,4.6289,4.625,4.623,4.5801,4.5176,4.5098,4.4746,4.4043,4.4023,4.3652,4.293,4.2461,4.1953,4.1328,4.1191,4.1191,4.1308,4.1933,4.2344,4.2558,4.3281,4.373,4.3769,4.3992,4.3902,4.3824,4.3726,4.335,4.3582,4.3624,4.3588,4.355,4.3487,4.3393,4.3412,4.3431,4.3709,4.4124,4.3498,4.3085,4.2989,4.2316,4.1873,4.1628,4.1168,4.0688,4.0577,4.0653,4.0704,4.071,4.0742,4.0813,4.087,4.0808,4.0615,4.0257,3.9846,3.8984,3.7949,3.7226,3.6699,3.6084,3.5847,3.5645,3.53,3.4673,3.395,3.2472,3.1243,3.0764,3.0414,3.0422,3.0414,3.0404,3.0404,3.0404,3.0327,3.0179,3.0044,5.5568,5.5415,5.5607,5.5476,5.5132,5.5383,5.5326,5.4958,5.3558,5.3039,5.2962,5.1778,5.1235,5.1387,5.1387,5.1387,5.1387,5.1387,5.1387,5.1348,5.1035,5.0371,4.9961,4.9824,4.9082,4.7871,4.7754,4.7148,4.6348,4.6367,4.6328,4.6289,4.6289,4.6289,4.6289,4.6289,4.6289,4.6289,4.6289,4.6211,4.5996,4.5918,4.5859,4.5664,4.5547,4.5117,4.4258,4.3047,4.2031,4.1289,4.1191,4.1152,4.1173,4.191,4.262,4.3192,4.3935,4.4705,4.5129,4.5219,4.5205,4.5184,4.4957,4.5058,4.4966,4.4936,4.494,4.494,4.494,4.4883,4.4902,4.4863,4.5037,4.5086,4.447,4.3778,4.3297,4.2893,4.2547,4.192,4.1678,4.1266,4.0815,4.0665,4.0694,4.0721,4.0743,4.0816,4.0886,4.0942,4.0794,4.0616,4.0169,3.9346,3.8496,3.7734,3.6992,3.6211,3.5918,3.5809,3.5415,3.4905,3.4078,3.3014,3.1926,3.1261,3.0752,3.0462,3.0442,3.0419,3.0422,3.0439,3.0408,3.0314,3.03,5.5738,5.577,5.5717,5.5684,5.5684,5.5684,5.5684,5.5376,5.3963,5.3357,5.3194,5.1828,5.1213,5.1387,5.1387,5.1387,5.1387,5.1387,5.1387,5.1387,5.1348,5.1094,5.0762,5.0664,4.998,4.8848,4.8691,4.7988,4.707,4.6836,4.666,4.6348,4.6289,4.6289,4.6289,4.6289,4.6289,4.6289,4.6289,4.6289,4.6289,4.6289,4.6289,4.6289,4.6269,4.5898,4.4922,4.3633,4.2383,4.1426,4.1133,4.1208,4.1529,4.2278,4.313,4.3891,4.4747,4.5414,4.573,4.5855,4.5826,4.5728,4.5723,4.5688,4.5571,4.5594,4.5594,4.5537,4.5594,4.5594,4.5594,4.5594,4.5594,4.5498,4.5143,4.4671,4.4162,4.3855,4.3431,4.2951,4.2527,4.2048,4.1249,4.1135,4.0971,4.0837,4.0755,4.0839,4.0905,4.0979,4.1005,4.0837,4.0566,3.9844,3.8965,3.8144,3.7129,3.6348,3.5976,3.5879,3.5576,3.5093,3.4221,3.3362,3.2486,3.1676,3.0989,3.0525,3.0529,3.0516,3.0491,3.0472,3.0447,3.0409,3.0422,5.5807,5.5912,5.5779,5.5747,5.5768,5.5728,5.5672,5.5306,5.3947,5.3321,5.3058,5.1794,5.1247,5.1387,5.1387,5.1387,5.1387,5.1387,5.1387,5.1387,5.1387,5.1308,5.1269,5.123,5.0742,5.0039,5.0156,4.9062,4.7832,4.75,4.709,4.6504,4.6289,4.6289,4.6289,4.6289,4.6289,4.6289,4.6289,4.6289,4.6289,4.6289,4.6289,4.6289,4.6289,4.5859,4.5039,4.4107,4.3023,4.1378,4.1239,4.1688,4.2272,4.3037,4.3758,4.4492,4.5209,4.5733,4.5783,4.5769,4.5733,4.5643,4.562,4.5594,4.5594,4.5594,4.5594,4.5594,4.5594,4.5594,4.5594,4.5594,4.5594,4.5575,4.5556,4.5575,4.5466,4.491,4.4402,4.4273,4.3588,4.2845,4.2267,4.1875,4.1585,4.0925,4.086,4.0914,4.0986,4.1051,4.1125,4.1111,4.0781,4.041,3.9473,3.8535,3.7422,3.6445,3.6113,3.5937,3.5762,3.5234,3.4357,3.3517,3.2844,3.19,3.0845,3.0614,3.0611,3.0581,3.0552,3.0537,3.054,3.0472,3.0458,5.611,5.6109,5.5939,5.5955,5.6038,5.5932,5.5552,5.4996,5.398,5.3233,5.2613,5.1622,5.1301,5.1387,5.1387,5.1387,5.1387,5.1387,5.1387,5.1387,5.1387,5.1387,5.1387,5.1387,5.0957,5.041,5.0215,4.9277,4.8027,4.7598,4.7168,4.6426,4.6289,4.6289,4.6289,4.6289,4.6289,4.6289,4.6289,4.6289,4.6289,4.6289,4.6289,4.6289,4.6289,4.5859,4.5176,4.4708,4.3997,4.3189,4.2879,4.2937,4.3092,4.3742,4.4279,4.4604,4.5217,4.5669,4.564,4.564,4.5654,4.5612,4.5594,4.5594,4.5594,4.5594,4.5594,4.5594,4.5594,4.5594,4.5594,4.5594,4.5594,4.5594,4.5594,4.5624,4.5676,4.5491,4.5051,4.4501,4.3808,4.2911,4.2208,4.1619,4.1319,4.102,4.0976,4.1016,4.1074,4.1133,4.1172,4.1191,4.1055,4.0605,3.9531,3.8535,3.7422,3.6504,3.6172,3.5996,3.584,3.5586,3.4805,3.4043,3.3335,3.2253,3.1016,3.0679,3.0675,3.0648,3.0625,3.0609,3.0587,3.0536,3.0498,5.615,5.6264,5.6115,5.6097,5.6175,5.6065,5.5624,5.4833,5.3968,5.3178,5.2431,5.1589,5.1291,5.1387,5.1387,5.1387,5.1387,5.1387,5.1387,5.1387,5.1387,5.1387,5.1387,5.1387,5.1133,5.0723,5.0351,4.9414,4.8457,4.7754,4.7148,4.6367,4.6289,4.6289,4.6289,4.6289,4.6289,4.6289,4.6289,4.6289,4.6289,4.6289,4.6289,4.6289,4.6289,4.6015,4.5595,4.5392,4.5056,4.4642,4.4432,4.4176,4.383,4.4148,4.4519,4.4985,4.5267,4.5594,4.5594,4.5594,4.5594,4.5594,4.5594,4.5594,4.5594,4.5594,4.5594,4.5594,4.5594,4.5594,4.5594,4.5594,4.5594,4.5594,4.5594,4.5648,4.5754,4.5733,4.5592,4.5148,4.4824,4.3961,4.3105,4.2127,4.1445,4.1346,4.1094,4.1113,4.1113,4.1172,4.1191,4.1191,4.1191,4.0703,3.957,3.8457,3.7324,3.6562,3.6094,3.6016,3.5937,3.5684,3.5351,3.4453,3.3496,3.2441,3.1379,3.1105,3.0879,3.0801,3.0801,3.0723,3.07,3.0716,3.0623,5.6136,5.6419,5.6275,5.6217,5.6246,5.6213,5.5653,5.4697,5.3992,5.316,5.2313,5.1507,5.1318,5.1367,5.1387,5.1387,5.1387,5.1387,5.1387,5.1387,5.1387,5.1387,5.1387,5.1387,5.1367,5.1308,5.0801,4.9941,4.9101,4.8223,4.7519,4.666,4.6308,4.6308,4.6289,4.6289,4.6289,4.6289,4.6289,4.6289,4.6289,4.6289,4.6289,4.6289,4.6289,4.6211,4.6002,4.5871,4.5784,4.5821,4.57,4.5255,4.4765,4.4545,4.4739,4.5556,4.5575,4.5594,4.5594,4.5594,4.5594,4.5594,4.5594,4.5594,4.5594,4.5594,4.5594,4.5594,4.5594,4.5594,4.5594,4.5594,4.5594,4.5594,4.5594,4.5653,4.5764,4.5821,4.5795,4.5802,4.5266,4.4468,4.377,4.2959,4.2276,4.1641,4.1387,4.1191,4.1191,4.1191,4.1191,4.1191,4.1191,4.0449,3.9316,3.8359,3.7226,3.6582,3.6055,3.6016,3.6016,3.5859,3.5469,3.4473,3.3476,3.2617,3.2051,3.1836,3.1562,3.123,3.1328,3.1621,3.1409,3.0973,3.0838,5.6324,5.6539,5.6309,5.6305,5.649,5.6419,5.5523,5.4269,5.4004,5.3027,5.168,5.1445,5.1367,5.1387,5.1387,5.1387,5.1387,5.1387,5.1387,5.1387,5.1387,5.1387,5.1387,5.1387,5.1387,5.1387,5.1152,5.0664,4.9883,4.9101,4.7988,4.7324,4.6621,4.6308,4.6289,4.6289,4.6289,4.6289,4.6289,4.6289,4.6289,4.6289,4.6289,4.6289,4.6289,4.623,4.611,4.5981,4.589,4.5881,4.5808,4.5692,4.551,4.5382,4.5431,4.5558,4.5624,4.5632,4.5618,4.5612,4.5603,4.5594,4.5594,4.5594,4.5594,4.5594,4.5594,4.5594,4.5594,4.5594,4.5594,4.5629,4.5612,4.5603,4.5607,4.5676,4.582,4.5886,4.5951,4.602,4.545,4.4863,4.4199,4.3457,4.2578,4.1836,4.1387,4.123,4.1191,4.1191,4.1191,4.1191,4.1191,4.0156,3.8965,3.8105,3.7187,3.6562,3.6133,3.6016,3.6016,3.6016,3.5527,3.4805,3.418,3.3535,3.3066,3.2598,3.2344,3.209,3.2344,3.2676,3.2205,3.1709,3.1351,5.6222,5.6483,5.6345,5.6419,5.6561,5.6536,5.5561,5.4121,5.3965,5.3027,5.1797,5.1387,5.1387,5.1387,5.1387,5.1387,5.1387,5.1387,5.1387,5.1387,5.1387,5.1387,5.1387,5.1387,5.1387,5.1387,5.1348,5.0996,5.0137,4.8789,4.8183,4.7539,4.6738,4.6308,4.6289,4.6289,4.6308,4.6308,4.6289,4.6289,4.6289,4.6289,4.6289,4.6289,4.6289,4.623,4.611,4.5978,4.5903,4.5896,4.5844,4.5834,4.5846,4.5831,4.577,4.5751,4.5738,4.5736,4.5711,4.57,4.5688,4.5603,4.5594,4.5594,4.5594,4.5594,4.5594,4.5594,4.5603,4.5627,4.5692,4.5692,4.5713,4.575,4.5715,4.5789,4.5923,4.5939,4.603,4.6152,4.5918,4.5371,4.459,4.3769,4.2812,4.2109,4.1504,4.1308,4.123,4.1191,4.1191,4.1191,4.1152,4.0449,3.9316,3.8398,3.7461,3.6758,3.6172,3.6055,3.5996,3.5996,3.5898,3.5508,3.4922,3.4316,3.3633,3.3047,3.2988,3.2988,3.3144,3.3184,3.2832,3.2458,3.2147,5.6071,5.6348,5.6368,5.6448,5.6539,5.6367,5.5449,5.418,5.3769,5.2832,5.1543,5.1387,5.1387,5.1387,5.1387,5.1387,5.1387,5.1387,5.1387,5.1387,5.1387,5.1387,5.1387,5.1387,5.1387,5.1387,5.1387,5.1074,5.041,4.916,4.834,4.8105,4.7344,4.668,4.668,4.6699,4.6523,4.6308,4.6289,4.6289,4.6289,4.6289,4.6289,4.6289,4.6289,4.6246,4.611,4.6005,4.5951,4.5948,4.592,4.5896,4.5967,4.5985,4.5985,4.5978,4.5948,4.5867,4.583,4.579,4.574,4.5673,4.5629,4.5603,4.5594,4.5594,4.5594,4.5594,4.5594,4.5646,4.5708,4.5769,4.5808,4.5847,4.5842,4.5861,4.5978,4.6045,4.6082,4.6191,4.6269,4.5801,4.4941,4.4433,4.3555,4.2461,4.1855,4.1445,4.1367,4.123,4.1191,4.1191,4.1074,4.0703,3.9863,3.8945,3.8008,3.7148,3.6445,3.6035,3.5976,3.5957,3.5858,3.5801,3.5547,3.4902,3.4199,3.3769,3.3965,3.4043,3.3926,3.3809,3.3652,3.3418,3.3099,5.591,5.6237,5.6242,5.6305,5.6333,5.5781,5.4941,5.3984,5.3242,5.2324,5.1387,5.1387,5.1387,5.1387,5.1387,5.1387,5.1387,5.1387,5.1387,5.1387,5.1387,5.1387,5.1387,5.1387,5.1387,5.1387,5.1387,5.1367,5.0898,5.0137,4.9785,4.9512,4.875,4.8203,4.748,4.7441,4.7051,4.6465,4.6328,4.6289,4.6289,4.6289,4.6289,4.6289,4.6289,4.6247,4.6144,4.608,4.6053,4.6058,4.6069,4.6134,4.6244,4.6267,4.6267,4.6196,4.6069,4.5894,4.5891,4.5864,4.5816,4.5754,4.568,4.5601,4.5594,4.5594,4.5594,4.5594,4.5594,4.5643,4.57,4.5754,4.5783,4.5847,4.591,4.5975,4.6075,4.6082,4.612,4.6211,4.6289,4.5859,4.5176,4.4805,4.4297,4.3183,4.2246,4.1875,4.1484,4.1348,4.1211,4.1191,4.1172,4.084,4.041,3.9492,3.8769,3.7773,3.6894,3.623,3.6191,3.6208,3.5975,3.5879,3.5684,3.5508,3.4902,3.4746,3.5019,3.5019,3.4863,3.4726,3.4629,3.4336,3.3926,5.5963,5.6216,5.6269,5.6386,5.6395,5.5644,5.4805,5.3945,5.3066,5.2207,5.1504,5.1387,5.1387,5.1387,5.1387,5.1387,5.1387,5.1387,5.1387,5.1387,5.1387,5.1387,5.1387,5.1387,5.1387,5.1387,5.1387,5.1387,5.1133,5.0664,5.0195,5.0117,4.9414,4.8711,4.8359,4.834,4.7812,4.7168,4.6621,4.6308,4.6289,4.6308,4.6308,4.6308,4.6308,4.6269,4.6222,4.612,4.6147,4.6153,4.6149,4.6171,4.6269,4.6289,4.6289,4.6289,4.6219,4.6108,4.6027,4.5983,4.5915,4.5815,4.574,4.5677,4.5627,4.5603,4.5603,4.5594,4.5594,4.5637,4.5744,4.583,4.5942,4.6001,4.6011,4.6075,4.6144,4.611,4.6133,4.623,4.6269,4.5918,4.5566,4.5215,4.4863,4.418,4.3242,4.2676,4.207,4.1504,4.1348,4.1191,4.1172,4.1074,4.0684,4.0078,3.9648,3.8711,3.748,3.6914,3.666,3.6542,3.6171,3.5974,3.5859,3.5664,3.543,3.5469,3.5547,3.5644,3.5742,3.5508,3.5234,3.4785,3.4453,5.6017,5.6202,5.6335,5.6339,5.6149,5.5332,5.4453,5.3594,5.2715,5.1992,5.1543,5.1387,5.1387,5.1387,5.1387,5.1387,5.1387,5.1387,5.1387,5.1387,5.1387,5.1387,5.1387,5.1387,5.1387,5.1387,5.1387,5.1387,5.123,5.0898,5.0586,5.0488,5.0098,4.9492,4.9277,4.916,4.8789,4.7969,4.7402,4.7148,4.7051,4.6797,4.6699,4.6582,4.6445,4.6289,4.6269,4.6204,4.6205,4.6227,4.6203,4.6223,4.6269,4.6289,4.6289,4.6289,4.6269,4.6245,4.615,4.6082,4.6008,4.592,4.5803,4.5749,4.572,4.5669,4.5669,4.5699,4.5687,4.5763,4.5867,4.5931,4.6024,4.611,4.6171,4.6224,4.625,4.6211,4.6172,4.625,4.6289,4.6289,4.5957,4.5625,4.5293,4.498,4.4336,4.3535,4.2656,4.1777,4.1387,4.1191,4.1191,4.1152,4.0918,4.0527,4.0176,3.957,3.834,3.7519,3.7207,3.6621,3.6072,3.5971,3.5996,3.5898,3.5723,3.5879,3.6016,3.5937,3.5898,3.5957,3.5723,3.5254,3.5019,5.6017,5.6222,5.6335,5.5982,5.5253,5.441,5.3613,5.2949,5.1953,5.1523,5.1406,5.1387,5.1387,5.1387,5.1387,5.1387,5.1387,5.1387,5.1387,5.1387,5.1387,5.1387,5.1387,5.1387,5.1387,5.1387,5.1387,5.1387,5.1387,5.1269,5.1211,5.125,5.0859,5.0625,5.0273,4.9922,4.9551,4.8887,4.8476,4.8418,4.8203,4.7851,4.7402,4.7226,4.6738,4.6289,4.6289,4.6269,4.625,4.6289,4.6269,4.625,4.6289,4.6289,4.6289,4.6289,4.6289,4.6289,4.625,4.6175,4.611,4.6037,4.5939,4.5832,4.5828,4.5796,4.5801,4.5831,4.5814,4.5867,4.5944,4.5998,4.6084,4.6152,4.623,4.6269,4.6289,4.6289,4.6269,4.6289,4.6289,4.6289,4.6289,4.5957,4.5742,4.543,4.4551,4.375,4.2793,4.1933,4.1445,4.1191,4.1191,4.1152,4.1094,4.0781,4.043,3.9902,3.8945,3.8164,3.7617,3.6953,3.6309,3.6152,3.6211,3.6113,3.6016,3.5996,3.5996,3.5996,3.5996,3.5976,3.5957,3.5664,3.5566,5.5944,5.6038,5.6193,5.6129,5.5787,5.4447,5.3692,5.3162,5.1914,5.1322,5.1387,5.1387,5.1387,5.1387,5.1387,5.1387,5.1387,5.1387,5.1387,5.1387,5.1387,5.1387,5.1387,5.1387,5.1387,5.1387,5.1387,5.1387,5.1387,5.1387,5.1387,5.1387,5.1387,5.125,5.0918,5.0488,5.0039,4.9707,4.9219,4.8926,4.8711,4.8105,4.7617,4.7539,4.6738,4.6348,4.6289,4.6289,4.6289,4.6289,4.6289,4.6289,4.6289,4.6289,4.6289,4.6289,4.6289,4.6289,4.6289,4.623,4.6199,4.6077,4.5971,4.5877,4.592,4.5872,4.5867,4.5905,4.5916,4.5963,4.6036,4.6077,4.6119,4.6201,4.625,4.6289,4.6289,4.6289,4.6289,4.6289,4.6289,4.6289,4.6289,4.6269,4.6074,4.582,4.4883,4.3945,4.3047,4.2129,4.1601,4.123,4.1191,4.1191,4.1133,4.0918,4.0684,4.0137,3.9551,3.8984,3.832,3.748,3.6914,3.668,3.6348,3.6172,3.6049,3.5985,3.5937,3.5937,3.5918,3.5879,3.5898,3.5896,3.5887,5.5857,5.5912,5.6051,5.6032,5.5762,5.4369,5.3566,5.3114,5.1811,5.1247,5.1344,5.1367,5.1387,5.1387,5.1387,5.1387,5.1387,5.1387,5.1387,5.1387,5.1387,5.1387,5.1387,5.1387,5.1387,5.1387,5.1387,5.1387,5.1387,5.1387,5.1387,5.1387,5.1387,5.1367,5.125,5.0898,5.0566,5.0371,5.0058,4.9648,4.959,4.8613,4.8047,4.7832,4.6953,4.6348,4.6289,4.6289,4.6289,4.6289,4.6289,4.6289,4.6289,4.6289,4.6289,4.6289,4.6289,4.6289,4.6289,4.6289,4.625,4.6173,4.6042,4.5995,4.5998,4.5988,4.5985,4.6059,4.6059,4.6074,4.6152,4.6195,4.62,4.6269,4.6269,4.6289,4.6289,4.6289,4.6289,4.6289,4.6289,4.6289,4.6289,4.6289,4.623,4.5937,4.5215,4.4336,4.3496,4.2578,4.1699,4.1387,4.1191,4.1191,4.1191,4.1035,4.0879,4.0684,4.0156,3.9824,3.916,3.8281,3.748,3.707,3.6699,3.6289,3.6054,3.5919,3.5869,3.584,3.5809,3.578,3.5788,3.5792,3.5817,5.5789,5.5915,5.5912,5.5558,5.4925,5.3993,5.3195,5.2534,5.155,5.1167,5.1238,5.1328,5.1387,5.1387,5.1387,5.1387,5.1387,5.1387,5.1387,5.1387,5.1387,5.1387,5.1387,5.1387,5.1387,5.1387,5.1387,5.1387,5.1387,5.1387,5.1387,5.1387,5.1387,5.1387,5.1387,5.1387,5.1348,5.1348,5.1191,5.1094,5.0723,4.959,4.8984,4.8535,4.7324,4.6582,4.6562,4.6348,4.6328,4.6289,4.6289,4.6289,4.6289,4.6289,4.6289,4.6289,4.6289,4.6289,4.6289,4.6289,4.6289,4.6269,4.6145,4.6144,4.6221,4.6198,4.612,4.6191,4.623,4.625,4.6289,4.6289,4.6289,4.6289,4.6289,4.6289,4.6289,4.6289,4.6289,4.6289,4.6289,4.6289,4.6289,4.6289,4.6289,4.5996,4.543,4.4687,4.3828,4.2891,4.1914,4.1426,4.1191,4.1191,4.1191,4.1191,4.1094,4.0957,4.0762,4.041,3.9941,3.918,3.8398,3.7676,3.7065,3.6677,3.6241,3.5833,3.5768,3.5714,3.5698,3.5678,3.5689,3.57,3.5703,5.5849,5.5915,5.5904,5.541,5.4583,5.3788,5.3294,5.2855,5.1812,5.1177,5.121,5.1324,5.1387,5.1387,5.1387,5.1387,5.1387,5.1387,5.1387,5.1387,5.1387,5.1387,5.1387,5.1387,5.1387,5.1387,5.1387,5.1387,5.1387,5.1387,5.1387,5.1387,5.1387,5.1387,5.1387,5.1387,5.1387,5.1387,5.1367,5.1348,5.125,5.0351,4.9707,4.9629,4.8008,4.7129,4.7012,4.666,4.6328,4.6289,4.6289,4.6289,4.6289,4.6289,4.6289,4.6289,4.6289,4.6289,4.6289,4.6289,4.6289,4.6269,4.6269,4.625,4.6289,4.6269,4.6268,4.6269,4.6289,4.6289,4.6289,4.6289,4.6289,4.6289,4.6289,4.6289,4.6289,4.6289,4.6289,4.6289,4.6289,4.6289,4.6289,4.6289,4.6289,4.6152,4.5625,4.4824,4.3965,4.3008,4.2051,4.1504,4.1191,4.1191,4.1191,4.1191,4.1191,4.1094,4.1074,4.0976,4.0449,3.9902,3.9473,3.8828,3.793,3.7067,3.6562,3.6091,3.5722,3.5574,3.559,3.5586,3.5595,3.5611,3.5635,5.601,5.6003,5.5928,5.5569,5.4844,5.3816,5.305,5.2392,5.1481,5.1094,5.1129,5.1218,5.1289,5.1289,5.1285,5.1318,5.1321,5.1328,5.1387,5.1387,5.1387,5.1387,5.1387,5.1387,5.1387,5.1387,5.1387,5.1387,5.1387,5.1387,5.1387,5.1387,5.1387,5.1387,5.1387,5.1387,5.1387,5.1387,5.1387,5.1387,5.1152,5.0644,5.0156,4.9668,4.8672,4.7558,4.7363,4.6914,4.6308,4.6308,4.6308,4.6308,4.6308,4.6328,4.6308,4.6289,4.6289,4.6289,4.6289,4.6289,4.6289,4.6289,4.6289,4.6289,4.6289,4.6289,4.6289,4.6289,4.6289,4.6289,4.6289,4.6289,4.6289,4.6289,4.6289,4.6289,4.6289,4.6289,4.6289,4.6289,4.6289,4.6289,4.6289,4.6289,4.6289,4.6094,4.582,4.5,4.4199,4.3301,4.2363,4.1719,4.1269,4.1191,4.1191,4.1191,4.1191,4.1191,4.1191,4.1191,4.1074,4.0547,4.0273,3.9941,3.9004,3.8031,3.6977,3.6357,3.584,3.5567,3.5522,3.5515,3.5481,3.5528,3.5566,5.6158,5.6169,5.5957,5.5769,5.5421,5.3668,5.2155,5.0798,5.0879,5.0911,5.0925,5.1049,5.112,5.1117,5.1108,5.1152,5.1199,5.1206,5.1273,5.1365,5.1387,5.1387,5.1387,5.1387,5.1387,5.1387,5.1387,5.1387,5.1387,5.1387,5.1387,5.1387,5.1387,5.1387,5.1387,5.1387,5.1387,5.1387,5.1387,5.1387,5.123,5.0762,5.0508,4.998,4.9062,4.8183,4.7695,4.707,4.6543,4.6367,4.6387,4.6387,4.6387,4.6387,4.6387,4.6367,4.6406,4.6289,4.6289,4.6289,4.6289,4.6289,4.6289,4.6289,4.6289,4.6289,4.6289,4.6289,4.6289,4.6289,4.6289,4.6289,4.6289,4.6289,4.6289,4.6289,4.6289,4.6289,4.6289,4.6289,4.6289,4.6289,4.6289,4.6289,4.6289,4.6211,4.5996,4.5547,4.4746,4.3926,4.2949,4.1933,4.1523,4.123,4.1191,4.1191,4.1191,4.1191,4.1191,4.1191,4.1152,4.1094,4.0762,4.0351,3.9902,3.8946,3.7381,3.6401,3.5817,3.5624,3.5528,3.55,3.55,3.55,3.5515,5.5727,5.6133,5.5466,5.4718,5.3774,5.2165,5.1135,5.0741,5.0835,5.0908,5.0903,5.105,5.1063,5.1094,5.1094,5.1113,5.1148,5.1174,5.1206,5.1271,5.1387,5.1387,5.1387,5.1387,5.1387,5.1387,5.1387,5.1387,5.1387,5.1387,5.1387,5.1387,5.1387,5.1387,5.1387,5.1387,5.1387,5.1387,5.1387,5.1387,5.1387,5.1094,5.0957,5.0566,4.9883,4.9082,4.8437,4.7676,4.709,4.6523,4.6953,4.7187,4.7226,4.7734,4.8027,4.7207,4.6758,4.6289,4.6289,4.6289,4.6289,4.6289,4.6289,4.6289,4.6289,4.6289,4.6289,4.6289,4.6289,4.6289,4.6289,4.6289,4.6289,4.6289,4.6289,4.6289,4.6289,4.6289,4.6289,4.6289,4.6289,4.6289,4.6289,4.6289,4.6289,4.6289,4.6113,4.5683,4.5098,4.4199,4.332,4.2246,4.1582,4.125,4.1191,4.1191,4.1191,4.1191,4.1191,4.1191,4.1172,4.1133,4.1035,4.0684,4.0137,3.8875,3.7309,3.657,3.6143,3.5693,3.5526,3.5522,3.5488,3.5501,3.5494,5.4768,5.5068,5.4541,5.3677,5.2608,5.1606,5.101,5.0779,5.081,5.0822,5.0847,5.0908,5.0945,5.0932,5.0939,5.0991,5.1084,5.1145,5.1205,5.1321,5.1365,5.1387,5.1387,5.1387,5.1387,5.1387,5.1387,5.1387,5.1387,5.1387,5.1387,5.1387,5.1387,5.1387,5.1387,5.1387,5.1387,5.1387,5.1387,5.1387,5.1387,5.1387,5.1387,5.125,5.0605,4.9941,4.9375,4.8535,4.7832,4.7266,4.7793,4.7793,4.7851,4.832,4.793,4.709,4.6641,4.6328,4.6289,4.6289,4.6289,4.6289,4.6289,4.6289,4.6289,4.6289,4.6289,4.6289,4.6289,4.6289,4.6289,4.6289,4.6289,4.6289,4.6289,4.6289,4.6289,4.6289,4.6289,4.6289,4.6289,4.6289,4.6289,4.6289,4.6289,4.6289,4.6016,4.5469,4.4863,4.4043,4.3223,4.2305,4.168,4.1191,4.1191,4.1191,4.1191,4.1191,4.1191,4.1191,4.1191,4.1172,4.1113,4.0762,4.0312,3.9021,3.7751,3.7097,3.6604,3.6077,3.5606,3.5591,3.556,3.5534,3.5515,5.3536,5.3627,5.337,5.2715,5.1895,5.1692,5.1318,5.075,5.0712,5.0693,5.0712,5.0702,5.0749,5.0797,5.0805,5.0925,5.1053,5.1124,5.1208,5.1386,5.1386,5.1387,5.1387,5.1387,5.1387,5.1387,5.1387,5.1387,5.1387,5.1387,5.1387,5.1387,5.1387,5.1387,5.1387,5.1387,5.1387,5.1387,5.1387,5.1387,5.1387,5.1387,5.1367,5.1269,5.0801,5.0254,4.998,4.9512,4.8945,4.8633,4.8516,4.8398,4.873,4.832,4.7519,4.6875,4.6621,4.6328,4.6289,4.6289,4.6289,4.6289,4.6289,4.6289,4.6289,4.6289,4.6289,4.6289,4.6289,4.6289,4.6289,4.6289,4.6289,4.6289,4.6289,4.6289,4.6289,4.6289,4.6289,4.6289,4.6289,4.6289,4.6289,4.6289,4.6289,4.6289,4.5879,4.5273,4.4492,4.3711,4.2949,4.2187,4.168,4.1191,4.1191,4.1191,4.1191,4.1191,4.1191,4.1191,4.1191,4.1191,4.1191,4.0918,4.0581,3.9597,3.852,3.7834,3.6992,3.6054,3.5712,3.5693,3.5655,3.5595,3.5571,5.2947,5.3363,5.2601,5.177,5.1039,5.0991,5.0904,5.0683,5.0683,5.0683,5.0693,5.0702,5.0757,5.0819,5.0851,5.0953,5.1059,5.1136,5.1194,5.1294,5.1345,5.1387,5.1387,5.1387,5.1387,5.1387,5.1387,5.1387,5.1387,5.1387,5.1387,5.1387,5.1387,5.1387,5.1387,5.1387,5.1387,5.1387,5.1387,5.1387,5.1387,5.1387,5.1367,5.1348,5.1055,5.0723,5.043,5.0098,4.9453,4.9004,4.9473,4.998,5.0703,4.9297,4.8574,4.8105,4.6894,4.6445,4.6289,4.6289,4.6289,4.6289,4.6289,4.6289,4.6289,4.6289,4.6289,4.6289,4.6289,4.6289,4.6289,4.6289,4.6289,4.6289,4.6289,4.6289,4.6289,4.6289,4.6289,4.6289,4.6289,4.6289,4.6289,4.6289,4.6289,4.5996,4.5508,4.4863,4.3984,4.3183,4.248,4.1797,4.1523,4.1191,4.1191,4.1191,4.1191,4.1191,4.1191,4.1191,4.1191,4.1191,4.1191,4.1191,4.0839,3.9883,3.9062,3.8473,3.7574,3.6333,3.579,3.5785,3.5747,3.5698,3.5679,5.1834,5.2099,5.1616,5.1106,5.075,5.0683,5.0683,5.0683,5.0683,5.0683,5.0693,5.0766,5.0847,5.0918,5.0966,5.1033,5.1125,5.116,5.124,5.1299,5.1328,5.1387,5.1387,5.1387,5.1387,5.1387,5.1387,5.1387,5.1387,5.1387,5.1387,5.1387,5.1387,5.1387,5.1387,5.1387,5.1387,5.1387,5.1387,5.1387,5.1387,5.1387,5.1387,5.1387,5.1289,5.1055,5.0996,5.0742,5.0488,5.0195,5.0508,4.9668,4.9746,4.9004,4.8398,4.7656,4.6797,4.6289,4.6289,4.6289,4.6289,4.6289,4.6289,4.6289,4.6289,4.6289,4.6289,4.6289,4.6289,4.6289,4.6289,4.6289,4.6289,4.6289,4.6289,4.6289,4.6289,4.6289,4.6289,4.6289,4.6289,4.6289,4.6289,4.6289,4.6172,4.5586,4.5098,4.4375,4.3496,4.2734,4.2012,4.1504,4.1289,4.1191,4.1191,4.1191,4.1191,4.1191,4.1191,4.1191,4.1191,4.1191,4.1191,4.1172,4.0898,4.0215,3.9473,3.875,3.7637,3.6318,3.5957,3.5848,3.584,3.5918,3.6016,5.0741,5.0683,5.0712,5.0702,5.0683,5.0683,5.0683,5.0683,5.0683,5.0683,5.0721,5.0848,5.0911,5.0966,5.1058,5.116,5.1221,5.1242,5.132,5.1348,5.1387,5.1387,5.1387,5.1387,5.1387,5.1387,5.1387,5.1387,5.1387,5.1387,5.1387,5.1387,5.1387,5.1387,5.1387,5.1387,5.1387,5.1387,5.1387,5.1387,5.1387,5.1387,5.1387,5.1387,5.1387,5.1387,5.1387,5.1387,5.1367,5.1308,5.1172,5.041,4.9492,4.9043,4.8242,4.7519,4.6738,4.6387,4.6289,4.6289,4.6289,4.6289,4.6289,4.6289,4.6289,4.6289,4.6289,4.6289,4.6289,4.6289,4.6289,4.6289,4.6289,4.6289,4.6289,4.6289,4.6289,4.6289,4.6289,4.6289,4.6289,4.6289,4.6289,4.6289,4.5937,4.5332,4.457,4.3789,4.3066,4.2402,4.1719,4.1426,4.125,4.1191,4.1191,4.1191,4.1191,4.1191,4.1191,4.1191,4.1191,4.1191,4.1191,4.1152,4.0781,4.0078,3.9414,3.8691,3.75,3.6348,3.6426,3.6387,3.6269,3.6367,3.6523,5.0683,5.0683,5.0683,5.0683,5.0683,5.0683,5.0683,5.0683,5.0683,5.0683,5.0757,5.0959,5.1053,5.1058,5.1144,5.123,5.1328,5.1328,5.1348,5.1387,5.1387,5.1387,5.1387,5.1387,5.1387,5.1387,5.1387,5.1387,5.1387,5.1387,5.1387,5.1387,5.1387,5.1387,5.1387,5.1387,5.1387,5.1387,5.1387,5.1387,5.1387,5.1387,5.1387,5.1387,5.1387,5.1387,5.1387,5.1387,5.1387,5.1387,5.1348,5.0918,5.0195,4.9297,4.8516,4.7734,4.6933,4.6406,4.6289,4.6289,4.6289,4.6289,4.6289,4.6289,4.6289,4.6289,4.6289,4.6289,4.6289,4.6289,4.6289,4.6289,4.6289,4.6289,4.6289,4.6289,4.6289,4.6289,4.6289,4.6289,4.6289,4.6289,4.6289,4.625,4.6133,4.541,4.4453,4.3672,4.2949,4.2207,4.1426,4.1328,4.1211,4.1191,4.1191,4.1191,4.1191,4.1191,4.1191,4.1191,4.1191,4.1191,4.1191,4.1172,4.0547,3.9766,3.9121,3.8496,3.7617,3.6699,3.6973,3.7031,3.6894,3.6914,3.7148]}]]